[[{"header":{"parameterUnit":"m.s-1","parameterCategory":1,"la1":30.6,"la2":29.2853,"lo1":-89.7004,"lo2":-87.6739,"dy":0.0162,"dx":0.0183,"nx":112,"ny":82,"refTime":"2023-04-16T06:00:00:Z","depth":0,"parameterNumber":2,"parameterNumberName":"U-component_of_WINDS"},"data":[0.0,0.0,0.0,0.0,0.0,0.0,0.0,0.0,0.0,0.0,0.0,0.0,0.0,0.0,0.0,0.0,0.0,0.0,0.0,0.0,0.0,0.0,0.0,0.0,0.0,0.0,0.0,0.0,0.0,0.0,0.0,0.0,0.0,0.0,0.0,0.0,0.0,0.0,0.0,0.0,0.0,0.0,0.0,0.0,0.0,0.0,0.0,0.0,0.0,0.0,0.0,0.0,0.0,0.0,0.0,0.0,0.0,0.0,0.0,0.0,0.0,0.0,0.0,0.0,0.0,0.0,0.0,0.0,0.0,0.0,0.0,0.0,0.0,0.0,0.0,0.0,0.0,0.0,0.0,0.0,0.0,0.0,0.0,0.0,0.0,0.0,0.0,0.0,0.0,0.0,0.0,-4.3743,-4.5473,-4.6965,-4.7935,-4.8356,-4.842,-4.8001,0.0,0.0,0.0,0.0,0.0,0.0,0.0,0.0,0.0,0.0,0.0,0.0,0.0,0.0,0.0,0.0,0.0,0.0,0.0,0.0,0.0,0.0,0.0,0.0,0.0,0.0,0.0,0.0,0.0,0.0,0.0,0.0,0.0,0.0,0.0,0.0,0.0,0.0,0.0,0.0,0.0,0.0,0.0,0.0,0.0,0.0,0.0,0.0,0.0,0.0,0.0,0.0,0.0,0.0,0.0,0.0,0.0,0.0,0.0,0.0,0.0,0.0,0.0,0.0,0.0,0.0,0.0,0.0,0.0,0.0,0.0,0.0,0.0,0.0,0.0,0.0,0.0,0.0,0.0,0.0,0.0,0.0,0.0,0.0,0.0,0.0,0.0,0.0,0.0,0.0,0.0,0.0,0.0,0.0,0.0,0.0,0.0,0.0,0.0,0.0,0.0,0.0,0.0,0.0,-4.3334,-4.4884,-4.608,-4.7101,-4.7935,-4.8066,-4.8066,-4.8001,0.0,0.0,0.0,0.0,0.0,0.0,0.0,0.0,0.0,0.0,0.0,0.0,0.0,0.0,0.0,0.0,0.0,0.0,0.0,0.0,0.0,0.0,0.0,0.0,0.0,0.0,0.0,0.0,0.0,0.0,0.0,0.0,0.0,0.0,0.0,0.0,0.0,0.0,0.0,0.0,0.0,0.0,0.0,0.0,0.0,0.0,0.0,0.0,0.0,0.0,0.0,0.0,0.0,0.0,0.0,0.0,0.0,0.0,0.0,0.0,0.0,0.0,0.0,0.0,0.0,0.0,0.0,0.0,0.0,0.0,0.0,0.0,0.0,0.0,0.0,0.0,0.0,0.0,0.0,0.0,0.0,0.0,0.0,0.0,0.0,0.0,0.0,0.0,0.0,0.0,0.0,0.0,0.0,0.0,0.0,0.0,0.0,0.0,0.0,0.0,0.0,0.0,0.0,-4.1645,-4.3061,-4.4555,-4.5504,-4.6378,-4.7253,-4.777,-4.7919,-4.7704,-4.6641,0.0,0.0,0.0,0.0,0.0,0.0,0.0,0.0,0.0,0.0,0.0,0.0,0.0,0.0,0.0,0.0,0.0,0.0,0.0,0.0,0.0,0.0,0.0,0.0,0.0,0.0,0.0,0.0,0.0,0.0,0.0,0.0,0.0,0.0,0.0,0.0,0.0,0.0,0.0,0.0,0.0,0.0,0.0,0.0,0.0,0.0,0.0,0.0,0.0,0.0,0.0,0.0,0.0,0.0,0.0,0.0,0.0,0.0,0.0,0.0,0.0,0.0,0.0,0.0,0.0,0.0,0.0,0.0,0.0,0.0,0.0,0.0,0.0,0.0,0.0,0.0,0.0,0.0,0.0,0.0,0.0,0.0,0.0,0.0,0.0,0.0,0.0,0.0,0.0,0.0,0.0,0.0,0.0,0.0,0.0,0.0,0.0,0.0,0.0,0.0,0.0,0.0,-4.1937,-4.285,-4.3897,-4.4765,-4.5706,-4.6673,-4.7488,-4.7787,-4.7186,-4.6008,0.0,0.0,0.0,0.0,0.0,0.0,0.0,0.0,0.0,0.0,0.0,0.0,0.0,0.0,0.0,0.0,0.0,0.0,0.0,0.0,0.0,0.0,0.0,0.0,0.0,0.0,0.0,0.0,0.0,0.0,0.0,0.0,0.0,0.0,0.0,0.0,0.0,0.0,0.0,0.0,0.0,0.0,0.0,0.0,0.0,0.0,0.0,0.0,0.0,0.0,0.0,0.0,0.0,0.0,0.0,0.0,0.0,0.0,0.0,0.0,0.0,0.0,0.0,0.0,0.0,0.0,0.0,0.0,0.0,0.0,0.0,0.0,0.0,0.0,0.0,0.0,0.0,0.0,0.0,0.0,0.0,0.0,0.0,0.0,0.0,0.0,0.0,0.0,0.0,0.0,0.0,0.0,0.0,0.0,0.0,0.0,0.0,0.0,0.0,0.0,0.0,0.0,-4.1868,-4.2688,-4.3461,-4.4584,-4.5634,-4.6448,-4.7404,-4.7555,-4.6588,-4.5778,0.0,0.0,0.0,0.0,0.0,0.0,0.0,0.0,0.0,0.0,0.0,0.0,0.0,0.0,0.0,0.0,0.0,0.0,0.0,0.0,0.0,0.0,0.0,0.0,0.0,0.0,0.0,0.0,0.0,0.0,0.0,0.0,0.0,0.0,0.0,0.0,0.0,0.0,0.0,0.0,0.0,0.0,0.0,0.0,0.0,0.0,0.0,0.0,0.0,0.0,0.0,0.0,0.0,0.0,0.0,0.0,0.0,0.0,0.0,0.0,0.0,0.0,0.0,0.0,0.0,0.0,0.0,0.0,0.0,0.0,0.0,0.0,0.0,0.0,0.0,0.0,0.0,0.0,0.0,0.0,0.0,0.0,0.0,0.0,0.0,0.0,0.0,0.0,0.0,0.0,0.0,0.0,0.0,0.0,0.0,0.0,0.0,0.0,0.0,0.0,0.0,0.0,-4.1324,-4.2606,0.0,-4.4708,-4.5875,-4.663,-4.7886,-4.8188,-4.7125,0.0,0.0,0.0,0.0,0.0,0.0,0.0,0.0,0.0,0.0,0.0,0.0,0.0,0.0,0.0,0.0,0.0,0.0,0.0,0.0,0.0,0.0,0.0,0.0,0.0,0.0,0.0,0.0,0.0,0.0,0.0,0.0,0.0,0.0,0.0,0.0,0.0,0.0,0.0,0.0,0.0,0.0,0.0,0.0,0.0,0.0,0.0,0.0,0.0,0.0,0.0,0.0,0.0,0.0,0.0,0.0,0.0,0.0,0.0,0.0,0.0,0.0,0.0,0.0,0.0,0.0,0.0,0.0,0.0,0.0,0.0,0.0,0.0,0.0,0.0,0.0,0.0,0.0,0.0,0.0,0.0,0.0,0.0,0.0,0.0,0.0,0.0,0.0,0.0,0.0,0.0,0.0,0.0,0.0,0.0,0.0,0.0,0.0,0.0,0.0,0.0,0.0,-3.9911,-4.1539,-4.285,0.0,-4.5042,-4.6237,-4.6654,-4.8099,-4.8471,-4.7154,0.0,0.0,0.0,0.0,0.0,0.0,0.0,0.0,0.0,0.0,0.0,0.0,0.0,0.0,0.0,0.0,0.0,0.0,0.0,0.0,0.0,0.0,0.0,0.0,0.0,0.0,0.0,0.0,0.0,0.0,0.0,0.0,0.0,0.0,0.0,0.0,0.0,0.0,0.0,0.0,0.0,0.0,0.0,0.0,0.0,0.0,0.0,0.0,0.0,0.0,0.0,0.0,0.0,0.0,0.0,0.0,0.0,0.0,0.0,0.0,0.0,0.0,0.0,0.0,0.0,0.0,0.0,0.0,0.0,0.0,0.0,0.0,0.0,0.0,0.0,0.0,0.0,0.0,0.0,0.0,0.0,0.0,0.0,0.0,0.0,0.0,0.0,0.0,0.0,0.0,0.0,0.0,0.0,0.0,0.0,0.0,0.0,0.0,0.0,0.0,0.0,0.0,-4.1401,-4.2467,-4.3253,-4.3921,-4.5507,-4.6462,-4.6478,-4.804,-4.8265,0.0,0.0,0.0,0.0,0.0,0.0,0.0,0.0,0.0,0.0,0.0,0.0,0.0,0.0,0.0,0.0,0.0,0.0,0.0,0.0,0.0,0.0,0.0,0.0,0.0,0.0,0.0,0.0,0.0,0.0,0.0,0.0,0.0,0.0,0.0,0.0,0.0,0.0,0.0,0.0,0.0,0.0,0.0,0.0,0.0,0.0,0.0,0.0,0.0,0.0,0.0,0.0,0.0,0.0,0.0,0.0,0.0,0.0,0.0,0.0,0.0,0.0,0.0,0.0,0.0,0.0,0.0,0.0,0.0,0.0,0.0,0.0,0.0,0.0,0.0,0.0,0.0,0.0,0.0,0.0,0.0,0.0,0.0,0.0,0.0,0.0,0.0,0.0,0.0,0.0,0.0,0.0,0.0,0.0,0.0,0.0,0.0,0.0,0.0,0.0,0.0,0.0,0.0,-4.2032,-4.3141,-4.3935,-4.456,-4.5524,-4.6463,-4.7433,-4.8364,-4.862,-4.784,0.0,0.0,0.0,0.0,0.0,0.0,0.0,0.0,0.0,0.0,0.0,0.0,0.0,0.0,0.0,0.0,0.0,0.0,0.0,0.0,0.0,0.0,0.0,0.0,0.0,0.0,0.0,0.0,0.0,0.0,0.0,0.0,0.0,0.0,0.0,0.0,0.0,0.0,0.0,0.0,0.0,0.0,0.0,0.0,0.0,0.0,0.0,0.0,0.0,0.0,0.0,0.0,0.0,0.0,0.0,0.0,0.0,0.0,0.0,0.0,0.0,0.0,0.0,0.0,0.0,0.0,0.0,0.0,0.0,0.0,0.0,0.0,0.0,0.0,0.0,0.0,0.0,0.0,0.0,0.0,0.0,0.0,0.0,0.0,0.0,0.0,0.0,0.0,0.0,0.0,0.0,0.0,0.0,0.0,0.0,0.0,0.0,0.0,0.0,0.0,0.0,0.0,-4.3215,-4.3977,-4.4589,-4.5213,-4.5888,-4.6644,-4.7463,-4.8157,-4.8407,-4.8187,0.0,0.0,0.0,0.0,0.0,0.0,0.0,0.0,0.0,0.0,0.0,0.0,0.0,0.0,0.0,0.0,0.0,0.0,0.0,0.0,0.0,0.0,0.0,0.0,0.0,0.0,0.0,0.0,0.0,0.0,0.0,0.0,0.0,0.0,0.0,0.0,0.0,0.0,0.0,0.0,0.0,0.0,0.0,0.0,0.0,0.0,0.0,0.0,0.0,0.0,0.0,0.0,0.0,0.0,0.0,0.0,0.0,0.0,0.0,0.0,0.0,0.0,0.0,0.0,0.0,0.0,0.0,0.0,0.0,0.0,0.0,0.0,0.0,0.0,0.0,0.0,0.0,0.0,0.0,0.0,0.0,0.0,0.0,0.0,0.0,0.0,0.0,0.0,0.0,0.0,0.0,0.0,0.0,0.0,0.0,0.0,0.0,0.0,0.0,0.0,0.0,0.0,-4.4525,-4.4966,-4.5213,-4.5822,-4.6403,-4.6829,-4.6916,-4.7508,-4.7819,-4.7819,0.0,0.0,0.0,0.0,0.0,0.0,0.0,0.0,0.0,0.0,0.0,0.0,0.0,0.0,0.0,0.0,0.0,0.0,0.0,0.0,0.0,0.0,0.0,0.0,0.0,0.0,0.0,0.0,0.0,0.0,0.0,0.0,0.0,0.0,0.0,0.0,0.0,0.0,0.0,0.0,0.0,0.0,0.0,0.0,0.0,0.0,0.0,0.0,0.0,0.0,0.0,0.0,0.0,0.0,0.0,0.0,0.0,0.0,0.0,0.0,-3.4899,0.0,0.0,0.0,0.0,0.0,0.0,0.0,0.0,0.0,0.0,0.0,0.0,0.0,0.0,0.0,0.0,0.0,0.0,0.0,0.0,0.0,0.0,0.0,0.0,0.0,0.0,0.0,0.0,0.0,0.0,0.0,0.0,0.0,0.0,0.0,0.0,0.0,0.0,0.0,0.0,0.0,-4.4323,-4.5183,-4.5721,-4.5866,-4.606,-4.6314,-4.6829,-4.7004,-4.7148,-4.7377,-4.7076,0.0,0.0,0.0,0.0,0.0,0.0,0.0,0.0,0.0,0.0,0.0,0.0,0.0,0.0,0.0,0.0,0.0,0.0,0.0,0.0,0.0,0.0,0.0,0.0,0.0,0.0,0.0,0.0,0.0,0.0,0.0,0.0,0.0,0.0,0.0,0.0,0.0,0.0,0.0,0.0,0.0,0.0,0.0,0.0,0.0,0.0,0.0,0.0,0.0,0.0,0.0,0.0,0.0,0.0,0.0,0.0,0.0,0.0,0.0,0.0,-3.4809,0.0,0.0,0.0,0.0,0.0,0.0,0.0,0.0,0.0,0.0,0.0,0.0,0.0,0.0,0.0,0.0,0.0,0.0,0.0,0.0,0.0,0.0,0.0,0.0,0.0,0.0,0.0,0.0,0.0,0.0,0.0,0.0,0.0,0.0,0.0,0.0,0.0,0.0,0.0,0.0,-4.4854,-4.558,-4.588,-4.588,-4.588,-4.606,-4.6403,-4.6403,-4.6565,-4.7061,-4.6653,0.0,0.0,0.0,0.0,0.0,0.0,0.0,0.0,0.0,0.0,0.0,0.0,0.0,0.0,0.0,0.0,0.0,0.0,0.0,0.0,0.0,0.0,0.0,0.0,0.0,0.0,0.0,0.0,0.0,0.0,0.0,0.0,0.0,0.0,0.0,0.0,0.0,0.0,0.0,0.0,0.0,0.0,0.0,0.0,0.0,0.0,0.0,0.0,0.0,0.0,0.0,0.0,0.0,-3.724,-3.6544,-3.6796,-3.7004,-3.7296,-3.7612,-3.6279,-3.6042,-3.6393,0.0,0.0,0.0,0.0,0.0,0.0,0.0,0.0,0.0,0.0,0.0,0.0,0.0,0.0,0.0,0.0,0.0,0.0,0.0,0.0,0.0,0.0,0.0,0.0,0.0,-4.3856,-4.4124,0.0,0.0,0.0,0.0,0.0,0.0,0.0,0.0,0.0,0.0,0.0,0.0,-4.5398,-4.579,-4.588,-4.588,-4.588,-4.588,-4.588,-4.588,-4.615,-4.6668,-4.6239,-4.615,0.0,0.0,0.0,0.0,0.0,0.0,0.0,0.0,0.0,0.0,0.0,0.0,0.0,0.0,0.0,0.0,0.0,0.0,0.0,0.0,0.0,0.0,0.0,0.0,0.0,0.0,0.0,0.0,0.0,0.0,0.0,0.0,-2.8154,-2.956,0.0,0.0,0.0,0.0,0.0,0.0,0.0,0.0,0.0,0.0,0.0,0.0,0.0,-3.2788,-3.2746,-3.3727,-3.4593,-3.5224,-3.6858,-3.7642,-3.77,-3.8785,-3.934,-3.9365,-3.9175,0.0,-3.7175,-3.6864,0.0,0.0,0.0,0.0,0.0,0.0,0.0,0.0,0.0,0.0,0.0,0.0,0.0,0.0,0.0,0.0,0.0,0.0,0.0,0.0,0.0,0.0,-4.545,-4.5454,-4.557,-4.5642,0.0,-4.4564,-4.3593,-4.274,-4.331,0.0,0.0,0.0,0.0,0.0,0.0,0.0,-4.4606,-4.5293,-4.588,-4.588,-4.588,-4.588,-4.588,-4.588,-4.597,-4.606,-4.597,-4.597,-4.606,-4.597,0.0,0.0,0.0,0.0,0.0,0.0,0.0,0.0,0.0,0.0,0.0,0.0,0.0,0.0,0.0,0.0,0.0,0.0,0.0,0.0,0.0,0.0,0.0,0.0,0.0,0.0,0.0,0.0,0.0,-2.6262,-2.8029,-2.945,-3.0898,-3.1838,0.0,0.0,0.0,0.0,0.0,0.0,0.0,0.0,0.0,-3.3717,-3.3717,-3.4032,-3.4681,-3.5223,-3.5772,-3.6426,-3.7406,-3.8267,-3.8933,-3.9478,-3.9697,-3.9697,-3.9697,-3.934,-3.8588,-3.7939,-3.7247,-3.6379,0.0,0.0,0.0,0.0,-3.5531,-3.6637,-3.7412,-3.8332,0.0,-4.0841,0.0,0.0,0.0,0.0,0.0,0.0,0.0,0.0,0.0,0.0,-4.5187,-4.579,-4.588,-4.588,-4.588,-4.5489,-4.5095,0.0,-4.4911,-4.4527,-4.2488,0.0,0.0,0.0,0.0,0.0,-4.5187,-4.5595,-4.588,-4.588,-4.588,-4.588,-4.588,-4.588,-4.588,-4.588,-4.588,-4.588,-4.588,-4.588,-4.5201,0.0,0.0,0.0,0.0,0.0,0.0,0.0,0.0,0.0,0.0,0.0,0.0,0.0,0.0,0.0,0.0,0.0,0.0,0.0,0.0,0.0,0.0,0.0,0.0,0.0,0.0,0.0,0.0,-2.6399,-2.7966,-2.9605,-3.0889,-3.1797,0.0,0.0,0.0,0.0,0.0,0.0,-3.2373,-3.2612,-3.3058,-3.4043,-3.4043,-3.4469,-3.5322,-3.5322,-3.587,-3.7073,-3.7073,-3.7844,-3.9258,-3.9258,-3.9362,-3.9697,-3.9697,-3.9697,-3.9581,-3.8712,-3.8384,-3.8279,-3.7061,-3.6846,-3.7061,-3.6738,-3.7394,-3.8384,-3.8384,-3.9117,-4.0173,-4.0932,0.0,-4.1815,-4.2875,0.0,0.0,0.0,0.0,-4.345,-4.442,-4.4712,-4.4897,-4.5685,-4.588,-4.588,-4.588,-4.588,-4.588,0.0,-4.588,-4.5307,-4.3464,0.0,0.0,0.0,0.0,-4.5003,-4.579,-4.588,-4.588,-4.588,-4.588,-4.588,-4.588,-4.588,-4.588,-4.588,-4.588,-4.588,-4.588,-4.588,-4.5293,-4.3923,0.0,0.0,0.0,0.0,0.0,0.0,0.0,0.0,0.0,0.0,0.0,0.0,0.0,0.0,0.0,0.0,0.0,0.0,0.0,0.0,0.0,0.0,0.0,0.0,0.0,0.0,0.0,0.0,0.0,-3.0619,-3.1279,0.0,0.0,0.0,0.0,-3.2248,-3.2248,-3.2373,-3.2612,-3.2727,-3.2727,-3.2841,-3.2841,-3.2841,-3.2841,-3.2841,-3.3491,-3.4692,-3.4692,-3.5893,-3.795,-3.795,-3.8607,-3.9697,-3.9697,-3.9697,-3.9697,-3.9581,-3.9594,-3.9478,-3.8267,-3.8489,-3.9374,-3.8279,-3.8594,-3.9594,-3.9594,-4.0262,-4.1119,-4.1219,-4.19,-4.2889,-4.3923,-4.3545,0.0,0.0,-4.4219,-4.4499,-4.5489,-4.579,-4.579,-4.588,-4.588,-4.588,-4.588,-4.588,-4.588,0.0,-4.588,-4.5489,-4.4406,0.0,-4.5489,-4.4406,-4.5095,-4.588,-4.588,-4.588,-4.588,-4.588,-4.588,-4.588,-4.588,-4.588,-4.588,-4.588,-4.588,-4.588,-4.588,-4.588,-4.4911,-4.2889,-4.2792,0.0,0.0,0.0,0.0,0.0,0.0,0.0,0.0,0.0,0.0,0.0,0.0,0.0,0.0,0.0,0.0,0.0,0.0,0.0,0.0,0.0,0.0,0.0,0.0,0.0,0.0,0.0,0.0,-2.9889,-3.0791,0.0,-3.1556,-3.1556,-3.1556,-3.1672,-3.1903,-3.2018,-3.2143,-3.2765,-3.3141,-3.3141,-3.343,-3.3926,-3.4718,-3.4718,-3.5283,-3.6511,-3.6511,-3.6961,-3.774,-3.8499,-3.9056,-3.9501,-4.0408,-4.0752,-4.0752,-4.0752,-4.0337,-3.9697,-3.9258,-3.9362,-3.9735,-3.9643,-3.9885,-4.0275,-4.0626,-4.0938,-4.1346,-4.2048,-4.2942,-4.3932,-4.4228,-4.4607,-4.5011,-4.5314,-4.6012,-4.6605,-4.7007,-4.71,-4.71,-4.71,-4.71,-4.71,-4.71,-4.71,-4.71,-4.71,-4.6446,-4.558,-4.4499,-4.5201,-4.5489,-4.4499,-4.5187,-4.588,-4.588,-4.588,-4.588,-4.588,-4.588,-4.588,-4.588,-4.588,-4.588,-4.588,-4.588,-4.588,-4.588,-4.588,-4.5201,-4.3829,-4.3177,-4.211,0.0,0.0,0.0,0.0,0.0,0.0,0.0,0.0,0.0,0.0,0.0,0.0,0.0,0.0,0.0,0.0,0.0,0.0,0.0,0.0,0.0,0.0,0.0,0.0,0.0,0.0,-2.925,-3.0096,-3.1151,-3.18,-3.1898,-3.1771,-3.1653,-3.1771,-3.2006,-3.223,-3.2347,-3.3217,-3.3606,-3.3606,-3.3906,-3.4407,-3.5211,-3.5211,-3.5667,-3.6467,-3.6467,-3.6582,-3.7041,-3.8265,-3.9046,-3.9489,-4.0765,-4.1342,-4.1342,-4.1342,-4.0915,-4.0249,-4.0249,-4.0249,-4.0287,-4.0664,-4.0802,-4.0852,-4.1216,-4.1342,-4.1544,-4.2958,-4.3668,-4.4063,-4.517,-4.586,-4.6139,-4.607,-4.6665,-4.7172,-4.6761,-4.6967,-4.7267,-4.7267,-4.747,-4.7782,-4.7782,-4.7782,-4.7782,-4.7782,-4.71,-4.6321,-4.5616,-4.6031,-4.6321,-4.5631,-4.6123,-4.6519,-4.6519,-4.6519,-4.6519,-4.6519,-4.6519,-4.6519,-4.6519,-4.6519,-4.6519,-4.6519,-4.6316,-4.62,-4.62,-4.5696,-4.4911,-4.3829,-4.2501,-4.1432,-4.0642,0.0,0.0,0.0,0.0,0.0,0.0,0.0,0.0,0.0,0.0,0.0,0.0,0.0,0.0,0.0,0.0,0.0,0.0,0.0,0.0,0.0,0.0,0.0,-2.8469,-2.8868,-2.9823,-3.1552,-3.226,-3.2489,-3.2178,-3.2168,-3.228,-3.2623,-3.2864,-3.3225,-3.3585,-3.3963,-3.4082,-3.4082,-3.4103,-3.4113,-3.4113,-3.4113,-3.4113,-3.4113,-3.4113,-3.4686,-3.5943,-3.7189,-3.8424,-3.9537,-4.0814,-4.1392,-4.1392,-4.1392,-4.1392,-4.1392,-4.1354,-4.1342,-4.1342,-4.1354,-4.1379,-4.1392,-4.1392,-4.1392,-4.1689,-4.3797,-4.3824,-4.3528,-4.6736,-4.6928,-4.6098,-4.6098,-4.6098,-4.5902,-4.4811,-4.531,-4.6098,-4.6195,-4.7009,-4.784,-4.7746,-4.784,-4.784,-4.7746,-4.7746,-4.7825,-4.7782,-4.7782,-4.7782,-4.7767,-4.7782,0.0,-4.7782,-4.7688,-4.7673,-4.7673,-4.7673,-4.7688,-4.7767,-4.7782,-4.7782,-4.7782,-4.7201,-4.6867,-4.6761,-4.5188,-4.3885,-4.2819,-4.0782,-3.971,-3.9685,0.0,0.0,0.0,0.0,0.0,0.0,0.0,0.0,0.0,0.0,0.0,0.0,0.0,0.0,0.0,0.0,0.0,0.0,0.0,0.0,0.0,0.0,-2.8941,-2.9523,-3.0663,-3.1498,-3.1978,-3.2158,-3.2309,-3.2168,-3.2168,-3.2289,-3.228,-3.2754,-3.3105,-3.3225,-3.4142,-3.4569,-3.4569,-3.4879,-3.5055,-3.5055,-3.5055,-3.5055,-3.5055,-3.5055,-3.5634,-3.6915,-3.8218,-3.9499,-4.0655,-4.1942,-4.2522,-4.2522,-4.2522,-4.2522,-4.2446,-4.1643,-4.1342,-4.1379,-4.1781,-4.2183,-4.2522,-4.2522,-4.2522,-4.2632,-4.3252,-4.3034,-4.2937,-4.4546,-4.5455,-4.6051,-4.668,-4.72,-4.7616,-4.8112,-4.7287,-4.6462,-4.7301,-4.7715,-4.7715,-4.6883,-4.8013,-4.8744,-4.7072,-4.7401,-4.7631,-4.671,-4.7267,-4.747,-4.665,-4.6554,0.0,-4.6554,-4.586,-4.5354,-4.5354,-4.5354,-4.5664,-4.6458,-4.6554,-4.6952,-4.7782,-4.7622,-4.7117,-4.6299,-4.5828,-4.4552,-4.2378,-4.099,-3.9655,0.0,0.0,0.0,0.0,0.0,0.0,0.0,0.0,0.0,0.0,0.0,0.0,0.0,0.0,0.0,0.0,0.0,0.0,0.0,0.0,0.0,0.0,-2.8076,-2.9734,-3.0356,-3.1637,-3.2432,-3.2432,-3.2588,-3.2695,-3.2695,-3.2695,-3.2695,-3.2695,-3.3301,-3.3658,-3.3658,-3.4524,-3.5035,-3.5035,-3.5293,-3.5418,-3.5418,-3.5418,-3.5418,-3.5418,-3.5418,-3.5767,-3.6603,-3.8387,-3.9569,0.0,-4.2275,-4.2974,-4.2974,-4.2974,-4.2974,0.0,0.0,0.0,0.0,0.0,-4.2698,-4.2974,-4.2862,-4.275,-4.2862,-4.327,-4.2837,-4.2638,-4.4274,-4.4993,-4.5275,-4.5939,-4.636,-4.6764,-4.7383,-4.6957,-4.6542,-4.7717,-4.8021,-4.792,-4.7791,-4.7993,-4.8007,-4.7177,-4.7177,0.0,-4.5731,-4.6428,-4.694,-4.6301,-4.62,-4.62,-4.62,-4.5608,-4.5199,-4.5199,-4.5199,-4.5493,-4.61,-4.62,0.0,0.0,0.0,-4.6139,-4.477,-4.4757,0.0,0.0,0.0,-4.0371,-3.9267,0.0,0.0,0.0,-3.6638,-3.5344,0.0,0.0,0.0,0.0,0.0,0.0,0.0,0.0,0.0,0.0,0.0,0.0,0.0,0.0,0.0,0.0,-2.896,-3.0789,-3.0651,-3.179,-3.2737,-3.2861,-3.3193,-3.3418,-3.3418,-3.3418,-3.3418,-3.3418,-3.4047,-3.4423,-3.4423,0.0,0.0,0.0,0.0,-3.5418,-3.5418,-3.5418,-3.5418,-3.5418,-3.5418,-3.5541,-3.59,-3.8149,-3.9345,-3.9697,-4.1923,-4.2974,-4.2974,-4.2974,-4.2974,-4.2974,-4.2974,-4.2974,-4.2974,-4.2862,-4.2862,-4.2862,-4.2525,0.0,0.0,-4.3343,-4.2936,-4.2538,-4.498,-4.4967,-4.4331,-4.467,-4.4778,-4.4683,-4.4886,-4.5395,-4.6228,-4.7396,-4.7601,-4.792,-4.8738,-4.7587,-4.6542,-4.7294,-4.675,-4.5807,-4.467,-4.5502,-4.6228,-4.6123,-4.6123,-4.6123,-4.6123,-4.6018,-4.5913,-4.5913,0.0,0.0,-4.6123,-4.6123,-4.6123,-4.6333,-4.5727,-4.4594,-4.3193,-4.2957,-4.2417,-4.143,-4.143,-4.1404,-4.1342,-4.0733,-3.982,-3.8791,-3.6995,-3.5421,0.0,0.0,0.0,0.0,0.0,0.0,0.0,0.0,0.0,0.0,0.0,0.0,0.0,0.0,0.0,-2.545,-2.6753,-2.832,-2.937,-3.0735,-3.1988,-3.3165,-3.3369,-3.3418,-3.3418,-3.3418,-3.3418,-3.3418,-3.4047,-3.4423,-3.4423,-3.5046,-3.5418,-3.5418,-3.5418,-3.5418,-3.5418,-3.5418,-3.5418,-3.5418,0.0,0.0,-3.8506,-3.8992,-4.0164,-4.1923,-4.24,-4.2638,-4.2638,-4.2638,-4.2638,-4.2638,-4.2638,-4.275,-4.2974,-4.2437,-4.2425,-4.2525,-4.2312,-4.2211,-4.2211,-4.2625,-4.2413,-4.2324,-4.3861,-4.4261,0.0,-4.5074,-4.498,-4.4886,-4.5807,-4.4872,-4.3932,-4.5101,-4.5302,-4.5195,-4.4453,-4.5382,-4.5807,-4.4235,-4.4561,-4.467,-4.3504,-4.4967,-4.6018,-4.5088,-4.4993,-4.4993,-4.4993,-4.4248,-4.3602,-4.3602,-4.3602,-4.4029,-4.4872,-4.4993,-4.5395,-4.6228,-4.5395,-4.4676,-4.4356,-4.3502,-4.2667,-4.2007,-4.1995,-4.1781,-4.1342,-4.0195,-3.9454,-3.9199,-3.7158,-3.5421,0.0,0.0,0.0,0.0,0.0,0.0,0.0,0.0,0.0,0.0,0.0,-2.4781,0.0,0.0,-2.4916,-2.4645,-2.662,-2.8328,-2.8854,-3.0936,-3.2629,-3.3292,-3.3418,-3.3418,-3.3418,-3.3418,-3.3418,-3.3418,-3.3922,-3.4173,-3.4423,-3.4922,-3.517,-3.5418,-3.5418,-3.5294,-3.517,-3.5294,-3.5294,-3.517,-3.5294,-3.6013,-3.7319,-3.8518,-3.958,-4.0755,-4.1834,-4.2312,-4.2312,-4.2312,-4.2425,-4.2513,-4.2174,-4.23,-4.2538,-4.2211,-4.2211,-4.2312,-4.1972,-4.1859,-4.1846,-4.2061,-4.196,-4.196,-4.2862,-4.3295,-4.3479,-4.4139,-4.4029,-4.4139,-4.5195,-4.467,-4.4139,-4.5182,-4.5088,-4.467,-4.4657,-4.4657,-4.4453,-4.3932,-4.3823,-4.3615,-4.3085,-4.392,-4.4453,-4.3932,-4.3823,-4.3823,-4.3823,-4.3295,-4.2974,-4.2974,-4.2974,-4.3184,-4.3835,-4.3823,-4.4029,-4.4657,-4.4139,-4.3823,-4.3823,-4.3295,-4.2848,-4.2572,-4.1979,-4.1496,-4.1238,-3.9694,-3.8649,-3.7942,-3.6624,-3.5376,0.0,0.0,0.0,0.0,0.0,0.0,0.0,0.0,-2.4503,-2.4367,-2.4367,-2.4367,-2.4367,-2.4781,-2.4781,-2.4231,-2.6478,-2.8468,-2.8715,-3.0936,-3.2775,-3.3292,-3.3418,-3.3418,-3.3418,-3.3418,-3.3418,-3.3418,-3.367,-3.4047,-3.4298,-3.4673,-3.4922,-3.517,-3.517,-3.5046,-3.4797,-3.5046,-3.5046,-3.4922,-3.517,-3.5407,-3.5767,-3.7801,-3.8873,-3.911,-4.1136,-4.1984,-4.1984,-4.2098,-4.2211,-4.2287,-4.1834,-4.1732,-4.1883,-4.1883,-4.1984,-4.1984,-4.1606,-4.1492,-4.1492,-4.1606,-4.1606,-4.172,-4.23,-4.2413,-4.2525,-4.2762,-4.2874,-4.3085,-4.3932,-4.4139,-4.4453,-4.5275,-4.4872,-4.4453,-4.5275,-4.4126,-4.3184,-4.4139,-4.3615,-4.2974,-4.2974,-4.2974,-4.2974,-4.2974,-4.2974,-4.2974,-4.2974,-4.2974,-4.2974,-4.2974,-4.2974,-4.2974,-4.2974,-4.2974,-4.2974,-4.2974,-4.2974,-4.2974,-4.2974,-4.2737,-4.2625,-4.2625,-4.1329,-4.0743,-4.0743,-3.9036,-3.7686,-3.6741,-3.6016,-3.5295,-1.5763,-1.7893,-2.0281,-2.0869,-2.2826,-2.4503,0.0,0.0,-2.4367,-2.4095,-2.4095,-2.4095,-2.4095,-2.4367,-2.4503,-2.4503,-2.5044,-2.6375,-2.8863,-2.9509,-3.0558,-3.3155,-3.3418,-3.3418,-3.3418,-3.3418,-3.3418,-3.3418,-3.367,-3.3922,-3.3922,-3.4298,-3.4423,-3.4548,-3.4548,-3.4548,-3.4423,-3.4548,-3.4673,-3.4922,-3.4922,-3.551,-3.6692,-3.8149,-3.9098,-3.9686,-4.1009,-4.1606,-4.172,-4.1984,-4.1972,-4.172,-4.1606,-4.1504,-4.1299,-4.1299,-4.1402,-4.1606,-4.1287,-4.1299,-4.1287,-4.1492,-4.1606,-4.172,-4.1984,-4.2098,-4.2098,-4.2211,-4.2211,-4.2211,-4.2312,-4.2425,-4.2425,-4.2525,-4.2538,-4.2425,-4.2525,-4.2525,-4.2625,-4.2737,-4.2849,-4.2974,-4.2974,-4.2974,-4.2974,-4.2974,-4.2974,-4.2974,-4.2974,-4.2974,-4.2974,-4.2974,-4.2974,-4.2974,-4.2974,-4.2974,-4.2974,-4.2974,-4.2974,-4.2974,-4.2974,-4.1911,-4.1329,-4.1329,-4.0048,-3.9451,-3.9463,-3.8082,-3.7341,-3.7221,-3.5998,-3.4807,-1.7981,-1.9324,-2.0497,0.0,-2.3529,-2.4095,-2.3952,-2.3816,-2.3816,-2.3679,-2.3679,-2.3679,-2.3679,-2.4088,-2.4367,0.0,-2.53,-2.6635,-2.7535,-2.9239,-3.0798,-3.21,-3.2237,-3.2502,-3.3292,-3.3418,-3.3418,-3.3418,-3.3544,-3.367,-3.3922,-3.4047,-3.4173,-3.4423,-3.4423,-3.4298,-3.4173,-3.4298,-3.4423,-3.4298,-3.4548,-3.4901,-3.55,-3.7309,-3.911,-4.0559,-4.116,-4.1504,-4.1606,-4.1631,-4.1631,-4.1606,-4.139,-4.1287,-4.1184,-4.1184,-4.1287,-4.1402,-4.1299,-4.1184,-4.1299,-4.1492,-4.1606,-4.1606,-4.1984,-4.211,-4.211,-4.211,-4.211,-4.211,-4.211,-4.211,-4.211,-4.211,-4.211,-4.211,-4.211,-4.2211,-4.2312,-4.2312,-4.2425,-4.2538,-4.2638,-4.275,-4.275,-4.2974,-4.2974,-4.2974,-4.2974,-4.2974,-4.2974,-4.2974,-4.2974,-4.2974,-4.2974,-4.2974,-4.2974,-4.2974,-4.2275,-4.1911,-4.1911,-4.0628,-4.0036,-4.0036,-3.8732,-3.8138,-3.8138,-3.6835,-3.6247,-3.6125,-3.5654,-3.5088,-1.8918,-1.9795,0.0,-2.3119,-2.3809,-2.3816,-2.3406,-2.3406,-2.3406,-2.327,-2.327,-2.327,-2.327,-2.3816,-2.4088,-2.3543,-2.5158,-2.6494,-2.6612,-2.8706,-3.0401,-3.1185,-3.1313,-3.1707,-3.2756,-3.2765,-3.3029,-3.3418,-3.3418,-3.3554,-3.3796,-3.3796,-3.3922,-3.4173,-3.4173,-3.4047,-3.3796,-3.4047,-3.4047,-3.3922,-3.4173,-3.4298,-3.4298,-3.6226,-3.8399,-4.0687,-4.0687,-4.0918,-4.1504,-4.1287,-4.1287,-4.1504,-4.1287,-4.1184,-4.1184,-4.1184,-4.1184,-4.1184,-4.1184,-4.1184,-4.1184,-4.139,-4.1492,-4.1504,-4.1757,-4.1871,-4.1871,-4.1871,-4.1871,-4.1871,-4.1871,-4.1871,-4.1871,-4.1871,-4.1871,-4.1871,-4.1871,-4.1871,-4.1972,-4.1972,-4.1984,-4.2211,-4.2312,-4.2413,-4.2525,-4.2862,-4.2862,-4.2862,-4.2974,-4.2974,-4.2974,-4.2974,-4.2974,-4.2862,-4.25,-4.2513,-4.2275,-4.1923,-4.11,-4.0628,-4.0628,-3.9334,-3.8625,-3.8625,-3.7429,-3.6835,-3.6714,-3.589,-3.5418,-3.5418,-3.5418,-3.5418,-1.7564,-1.8692,-1.9947,-2.1452,-2.2565,-2.3406,-2.3406,-2.3406,-2.327,-2.2996,-2.2859,-2.2859,-2.2859,-2.3133,-2.3406,-2.3406,-2.4088,-2.503,-2.6344,-2.7012,-2.8188,-3.0927,-3.1313,-3.1313,0.0,-3.1313,-3.1973,-3.3292,-3.3418,-3.3418,-3.3418,-3.3418,-3.3418,-3.3418,-3.3418,-3.3418,-3.3418,-3.3418,-3.3544,-3.3922,-3.3922,-3.3922,-3.3922,-3.5015,-3.6814,-3.9228,-3.9228,-3.9954,-4.1184,-4.1184,-4.1184,-4.1184,-4.1184,-4.1184,-4.1184,-4.1184,-4.1184,-4.1184,-4.1184,-4.1184,-4.1184,-4.1184,-4.1184,-4.1184,-4.1184,-4.1184,-4.1184,-4.1184,-4.1184,-4.1184,-4.1184,-4.1184,-4.1184,-4.1184,-4.1184,-4.1184,-4.1184,-4.139,-4.1606,-4.1606,-4.1859,-4.211,-4.211,-4.211,-4.2211,-4.2525,-4.2525,-4.2638,-4.2974,-4.2974,-4.2974,-4.2974,-4.2974,-4.25,-4.1215,-4.1215,-4.0628,-3.9334,-3.9334,-3.9228,-3.9228,-3.8018,-3.7298,-3.7298,-3.6125,-3.5418,-3.5418,-3.5418,-3.5418,-3.5418,-3.5418,-3.5418,-1.7137,-1.7554,-1.797,-1.9489,-1.9906,-2.0057,-2.0057,-2.0057,-2.0334,-2.1183,-2.0623,-2.0201,-2.1183,-2.1741,-2.1872,-2.1596,-2.3256,-2.4631,-2.4895,-2.6226,-2.7551,-2.8452,-2.8452,0.0,0.0,0.0,0.0,-3.21,-3.2892,-3.3418,-3.3418,-3.3418,-3.3418,-3.3418,-3.3418,-3.3418,-3.3418,-3.3418,-3.3428,-3.3544,-3.3544,-3.4037,-3.4891,-3.5253,-3.6824,-3.9216,-3.9216,-3.9954,-4.1184,-4.1184,-4.1184,-4.1184,-4.1184,-4.1184,-4.1184,-4.1184,-4.1184,-4.1184,-4.1184,-4.1184,-4.1184,-4.1184,-4.1184,-4.1184,-4.1184,-4.1184,-4.1184,-4.1184,-4.1184,-4.1184,-4.1184,-4.1184,-4.1184,-4.1184,-4.1184,-4.1184,-4.1184,-4.1287,-4.1287,-4.1287,-4.1414,-4.1528,-4.1732,-4.1732,-4.196,-4.2413,-4.2638,-4.2862,-4.2974,-4.2974,-4.2625,-4.1797,-4.1684,-4.1215,-3.9931,-3.9803,-3.9686,-3.9228,-3.8376,-3.7899,-3.7899,-3.6724,-3.6013,-3.6013,-3.5654,-3.5418,-3.5418,-3.5418,-3.5418,-3.5418,-3.5418,-3.5418,-1.6569,-1.6705,-1.6846,-1.8229,-1.8369,-1.8234,-1.8385,-1.8379,-1.8664,-1.9646,-1.9083,-1.8664,-1.9646,-2.0485,-2.0906,-2.0629,-2.2702,-2.4231,-2.4095,-2.5435,-2.6635,-2.702,-2.7153,-2.7419,0.0,0.0,0.0,-3.1313,-3.2629,-3.3418,-3.3418,-3.3418,-3.3418,-3.3418,-3.3418,-3.3418,-3.3418,-3.3418,-3.3418,-3.3418,-3.3418,-3.3786,-3.4642,-3.4642,-3.6093,-3.8495,-3.8495,-3.9592,-4.1184,-4.1184,-4.1184,-4.1184,-4.1184,-4.1184,-4.1184,-4.1184,-4.1184,-4.1184,-4.1184,-4.1184,-4.1184,-4.1184,-4.1184,-4.1184,-4.1184,-4.1184,-4.1184,-4.1184,-4.1184,-4.1184,-4.1184,-4.1184,-4.1184,-4.1184,-4.1184,-4.1184,-4.1184,-4.1184,-4.1184,-4.1184,-4.1184,-4.1299,-4.139,-4.1492,-4.172,-4.2061,-4.2174,-4.2388,-4.2974,-4.2625,-4.2037,-4.1215,-4.0743,-3.9919,-3.8625,-3.8495,-3.8387,-3.791,-3.7078,-3.6592,-3.6592,-3.5767,-3.5418,-3.5418,-3.5418,-3.5418,-3.5418,-3.5418,-3.5418,-3.5418,-3.5418,-3.5418,-1.573,-1.6013,-1.6287,-1.7248,-1.7523,-1.7669,-1.81,-1.81,-1.81,-1.8239,-1.8239,-1.81,0.0,0.0,-2.0491,-2.0491,-2.2428,-2.3959,-2.3959,-2.4645,-2.5577,0.0,0.0,0.0,0.0,0.0,0.0,-3.1056,0.0,-3.3292,-3.3418,-3.3418,-3.3418,-3.3418,-3.3418,-3.3418,-3.3418,-3.3418,-3.3418,-3.3418,-3.3418,-3.3418,-3.3418,-3.3418,-3.4881,-3.7298,-3.7298,-3.8755,-4.1184,-4.1184,-4.1184,-4.1184,-4.1184,-4.1184,-4.1184,-4.1184,-4.1184,-4.1184,-4.1184,-4.1184,-4.1184,-4.1184,-4.1184,-4.1184,-4.1184,-4.1184,-4.1184,-4.1184,-4.1184,-4.1184,-4.1184,-4.1184,-4.1184,-4.1184,-4.1184,-4.1184,-4.1184,-4.1184,-4.1184,-4.1184,-4.1184,-4.1184,-4.1184,-4.139,-4.148,-4.148,-4.0882,-4.0985,-4.2625,-4.1797,-4.0985,-4.0858,-3.9803,-3.8625,-3.7309,-3.7177,-3.6714,-3.5541,-3.5418,-3.5418,-3.5418,-3.5418,-3.5418,-3.5418,-3.5418,-3.5418,-3.5418,-3.5418,-3.5418,-3.5418,-3.5418,-3.5418,-1.3892,-1.403,-1.403,-1.4307,-1.4449,-1.4445,-1.4591,-1.4591,-1.5013,-1.6428,-1.558,-1.5017,0.0,0.0,0.0,-1.8944,-2.159,0.0,-2.3543,-2.4231,0.0,-2.5165,0.0,-2.5584,-2.5584,-2.6894,0.0,0.0,-3.1065,-3.2237,-3.3292,-3.3418,-3.3418,-3.3418,-3.3418,-3.3418,-3.3418,-3.3418,-3.3418,-3.3418,-3.3418,-3.3418,-3.3418,-3.3418,-3.4881,-3.7298,-3.7298,-3.8755,-4.1184,-4.1184,-4.1184,-4.1184,-4.1184,-4.1184,-4.1184,-4.1184,-4.1184,-4.1184,-4.1184,-4.1184,-4.1184,-4.1184,-4.1184,-4.1184,-4.1184,-4.1184,-4.1184,-4.1184,-4.1184,-4.1184,-4.1184,-4.1184,-4.1184,-4.1184,-4.1184,-4.1184,-4.1184,-4.1184,-4.1184,-4.1184,-4.1184,-4.1184,-4.1184,-4.0432,-3.9931,-4.0164,-3.9193,-3.9193,-4.0985,-4.028,-3.9334,-3.8365,-3.8018,-3.7309,-3.6002,-3.589,-3.5777,-3.5418,-3.5418,-3.5418,-3.5418,-3.5418,-3.5418,-3.5418,-3.5418,-3.5418,-3.5418,-3.5418,-3.5418,-3.5418,-3.5418,-3.5418,-1.2904,-1.276,-1.276,-1.276,-1.276,-1.2904,-1.3182,-1.3325,-1.3611,-1.4884,-1.4319,0.0,-1.4884,0.0,0.0,0.0,0.0,0.0,-2.3406,-2.4088,-2.4503,0.0,-2.4916,0.0,-2.5059,-2.5846,-2.702,0.0,-3.054,-3.1973,-3.3292,-3.3418,-3.3418,-3.3418,-3.3418,-3.3418,-3.3418,-3.3418,-3.3418,-3.3418,-3.3418,-3.3418,-3.3418,-3.3418,-3.4518,-3.646,0.0,-3.8506,-4.0327,-4.0942,-4.1184,-4.1184,-4.1184,-4.1184,-4.1184,-4.1184,-4.1184,-4.1184,-4.1184,-4.1184,-4.1184,-4.1184,-4.1184,-4.1184,-4.1184,-4.1184,-4.1184,-4.1184,-4.1184,-4.1184,-4.1184,-4.1184,-4.1184,-4.1184,-4.1184,-4.1184,-4.1184,-4.1184,-4.1057,-4.0443,-3.9838,-3.9721,-4.0211,-3.9228,-3.8614,-3.9334,-3.8018,-3.7418,-3.8625,-3.8376,-3.7887,-3.7177,-3.6703,-3.6125,-3.5418,-3.5418,-3.5418,-3.5418,-3.5418,-3.5418,-3.5418,-3.5418,-3.5418,-3.5418,-3.4787,-3.4528,-3.4528,-3.3882,-3.3621,-3.3621,-3.4268,-3.4528,-1.2338,-1.2194,-1.2194,-1.2194,-1.2194,-1.2338,-1.3043,-1.3182,-1.3325,-1.3757,0.0,-1.39,-1.39,-1.6145,-1.8105,-1.8385,0.0,-2.3126,-2.327,-2.3952,-2.4367,-2.4367,-2.4781,-2.5059,-2.5059,-2.5322,-2.6368,-2.8986,-3.054,-3.1973,-3.3292,-3.3418,-3.3418,-3.3418,-3.3418,-3.3418,-3.3418,-3.3418,-3.3418,-3.3418,-3.3418,-3.3418,-3.3418,-3.3418,-3.4153,-3.55,0.0,0.0,-3.9345,-4.0687,-4.1184,-4.1184,-4.1184,-4.1184,-4.1184,-4.1184,-4.1184,-4.1184,-4.1184,-4.1184,-4.1184,-4.1184,-4.1184,-4.1184,-4.1184,-4.1184,-4.1184,-4.1184,-4.1184,-4.1184,-4.1184,-4.1184,-4.1184,-4.1184,-4.1184,-4.1184,-4.0942,-4.0815,-4.0327,-3.9228,-3.8018,-3.7659,-3.8744,-3.7899,-3.7418,-3.8506,-3.6946,-3.5633,-3.6002,-3.6215,-3.6571,-3.6571,-3.5879,-3.5294,-3.5294,-3.5418,-3.5418,-3.5294,-3.5418,-3.5418,-3.5418,-3.5294,-3.517,-3.517,-3.3757,-3.3117,-3.3117,-3.1963,-3.1313,-3.1313,-3.26,-3.3243,-1.2194,-1.2194,-1.2194,-1.2194,-1.2194,-1.2334,-1.2757,-1.2896,0.0,0.0,-1.3615,-1.3472,-1.39,-1.5305,-1.6992,-1.8239,0.0,0.0,0.0,0.0,-2.4095,0.0,0.0,0.0,0.0,0.0,0.0,0.0,0.0,-3.1973,-3.3292,-3.3418,-3.3418,-3.3418,-3.3418,-3.3418,-3.3418,-3.3418,-3.3418,-3.3418,-3.3418,-3.3418,-3.3418,-3.3418,-3.4153,-3.55,-3.6703,0.0,-3.9345,-4.0687,-4.1184,-4.1184,-4.1184,-4.1184,-4.1184,-4.1184,-4.1184,-4.1184,-4.1184,-4.1184,-4.1184,-4.1184,-4.1184,-4.1184,-4.1184,-4.1184,-4.1184,-4.1184,-4.1184,-4.1184,-4.1184,-4.1184,-4.1184,-4.1184,-4.1184,-4.0942,-3.9838,-3.8744,-3.7899,-3.7659,-3.7418,-3.7418,-3.7539,-3.6581,-3.5858,-3.5981,-3.4767,-3.3786,-3.3912,-3.4403,-3.5025,-3.552,-3.5284,-3.5046,-3.5046,-3.5294,-3.5294,-3.5046,-3.5294,-3.5418,-3.5418,-3.4403,-3.3766,-3.3766,-3.2346,-3.1698,-3.1698,-3.1442,-3.1313,-3.1313,-3.157,-3.2346,-1.1616,-1.1907,-1.1907,-1.1907,-1.1907,-1.2051,-1.2334,0.0,0.0,0.0,-1.3615,-1.3615,-1.39,-1.5168,0.0,-1.7127,0.0,0.0,0.0,0.0,0.0,0.0,0.0,0.0,0.0,0.0,0.0,0.0,0.0,-3.1973,-3.3292,-3.3418,-3.3418,-3.3418,-3.3418,-3.3418,-3.3418,-3.3418,-3.3418,-3.3418,-3.3418,-3.3418,-3.3418,-3.3418,-3.3786,-3.4518,-3.646,0.0,-3.7429,-4.0083,-4.0815,-4.0199,-4.0942,-4.1184,-4.1184,-4.1184,-4.1184,-4.1184,-4.1184,-4.1184,-4.1184,-4.1184,-4.1184,-4.1184,-4.1184,-4.1184,-4.1184,-4.1184,-4.1184,-4.1184,-4.1184,-4.1184,-4.1057,-4.0327,-3.9603,-3.8992,-3.8387,-3.7177,-3.6338,-3.6338,-3.5725,-3.5489,-3.6215,-3.5253,-3.4642,-3.5253,-3.4278,-3.3418,-3.367,-3.3796,-3.4047,-3.4548,-3.4673,-3.4673,-3.4673,-3.4797,-3.4922,-3.4922,-3.5046,-3.4911,-3.4403,-3.3757,-3.3117,-3.2346,-3.0936,-3.029,-3.029,-2.9518,-2.9134,-2.9134,-2.9909,-3.0936,-1.0743,-1.1329,-1.1619,-1.1619,-1.1619,-1.1763,-1.2054,-1.2474,0.0,0.0,-1.3615,-1.39,-1.39,-1.4888,-1.573,0.0,-1.839,-2.0346,0.0,0.0,0.0,0.0,0.0,0.0,0.0,0.0,0.0,0.0,0.0,0.0,-3.3292,-3.3418,-3.3418,-3.3418,-3.3418,-3.3418,-3.3418,-3.3418,-3.3418,-3.3418,-3.3418,-3.3418,-3.3418,-3.3418,-3.3544,-3.3902,-3.6338,0.0,0.0,-3.9357,-4.0199,-3.9345,-4.0327,-4.0942,-4.1184,-4.1184,-4.1184,-4.1184,-4.1184,-4.1184,-4.1184,-4.1184,-4.1184,-4.1184,-4.1184,-4.1184,-4.1184,-4.1184,-4.1184,-4.1172,-4.0815,-4.0815,-4.0443,-3.911,-3.7779,-3.6935,-3.6935,-3.5848,-3.5015,-3.5015,-3.4153,-3.3786,-3.4767,-3.4163,-3.3786,-3.4767,-3.4027,-3.3544,-3.3796,-3.3544,-3.3544,-3.3796,-3.4047,-3.4298,-3.4298,-3.4423,-3.4548,-3.4797,-3.4538,-3.4153,-3.3243,-3.2727,-3.1826,-3.0789,-2.9387,-2.8748,-2.8888,-2.7724,-2.72,-2.72,-2.837,-2.9526,-0.9435,-1.0596,-1.1619,-1.1619,-1.1619,-1.1763,-1.2054,0.0,0.0,-1.3182,-1.3615,-1.39,-1.39,-1.4043,-1.4608,-1.5872,-1.7819,-1.9356,0.0,0.0,0.0,0.0,0.0,0.0,0.0,0.0,0.0,0.0,0.0,0.0,-3.3418,-3.3418,-3.3418,-3.3418,-3.3418,-3.3418,-3.3418,-3.3418,-3.3418,-3.3418,-3.3418,-3.3418,-3.3418,-3.3418,-3.4027,-3.5253,-3.6692,0.0,0.0,-3.8744,-3.9345,-3.9216,-3.9345,-4.0083,-4.1184,-4.1184,-4.1184,-4.1184,-4.1184,-4.1184,-4.1184,-4.1184,-4.1184,-4.1184,-4.1184,-4.1184,-4.1184,-4.1184,-4.1184,-4.093,-3.9709,-3.9345,-3.9098,-3.7779,-3.646,-3.5612,-3.5612,-3.4528,-3.3544,-3.3544,-3.3418,-3.3418,-3.3544,-3.3418,-3.3418,-3.3544,-3.3418,-3.3418,-3.3418,-3.3418,-3.3418,-3.3418,-3.3796,-3.3922,-3.3922,-3.4173,-3.4423,-3.4423,-3.365,-3.299,-3.2815,-3.0513,-2.91,-2.8969,-2.7559,-2.7059,-2.7334,-2.72,-2.72,-2.72,-2.7334,-2.8748,-0.8562,-0.9726,-1.0452,-1.1329,-1.1619,-1.1619,-1.1763,0.0,-1.2617,-1.2896,-1.3325,-1.3615,-1.39,-1.39,-1.4185,-1.5035,-1.7263,0.0,0.0,0.0,0.0,0.0,0.0,0.0,0.0,0.0,0.0,0.0,0.0,0.0,-3.3418,-3.3418,-3.3418,-3.3418,-3.3418,-3.3418,-3.3418,-3.3418,-3.3418,-3.3418,-3.3418,-3.3418,-3.3418,-3.4278,-3.4393,-3.4268,-3.646,0.0,0.0,-3.7539,-3.8495,-3.9216,-3.9216,-4.0083,-4.1184,-4.1184,-4.1184,-4.1184,-4.1184,-4.1184,-4.1184,-4.1184,-4.1184,-4.1184,-4.1184,-4.1184,-4.1184,-4.1184,-4.0571,-3.9838,-3.9345,-3.8018,-3.6814,-3.6215,-3.5129,-3.4153,-3.4153,-3.3796,-3.3418,-3.3418,-3.3418,-3.3418,-3.3418,-3.3418,-3.3418,-3.3418,-3.3418,-3.3418,-3.3418,-3.2629,-3.21,-3.21,-3.3019,-3.3544,-3.3544,-3.2883,-3.26,-3.2854,-3.1698,-3.066,-3.0004,-2.8977,-2.7941,-2.7169,-2.6784,-2.6792,-2.6934,-2.6934,-2.7067,-2.72,-2.7833,-2.8994,-0.7257,-0.8709,-0.9726,-1.1181,-1.1619,-1.1619,0.0,0.0,-1.2477,-1.2896,-1.3182,-1.3615,-1.39,-1.4043,-1.4328,-1.5035,-1.7404,-1.9489,-2.0057,0.0,0.0,0.0,0.0,0.0,0.0,0.0,0.0,0.0,0.0,0.0,0.0,-3.3418,-3.3418,-3.3418,-3.3418,-3.3418,-3.3418,-3.3418,-3.3418,-3.3418,-3.3418,-3.3418,-3.3418,-3.4767,-3.4881,-3.4153,0.0,0.0,0.0,-3.7298,-3.8376,-3.9216,-3.9216,-4.0083,-4.1184,-4.1184,-4.1184,-4.1184,-4.1184,-4.1184,-4.1172,-4.0699,-4.0571,-4.0571,-4.0211,-4.0571,-4.1057,-4.0687,-3.9357,-3.8018,-3.8018,-3.6449,-3.4767,-3.4767,-3.4027,-3.3418,-3.3418,-3.3418,-3.3418,-3.3418,-3.3418,-3.3418,-3.3418,-3.3418,-3.3418,-3.3418,-3.3418,-3.3292,-3.2892,-3.1973,-3.1185,-3.0669,-3.1588,-3.2119,-3.2119,-3.1194,-3.0789,-3.1166,-2.9882,-2.8854,-2.8073,-2.7684,-2.691,-2.6003,-2.6264,-2.6398,-2.6532,-2.6666,-2.6792,-2.7067,-2.8345,-2.9639,-0.5229,-0.7402,-0.9726,-1.1181,-1.1619,-1.1763,0.0,0.0,-1.2896,-1.3182,-1.3615,-1.39,-1.39,-1.4189,-1.5039,-1.6428,-1.8514,0.0,-2.1584,0.0,0.0,0.0,0.0,0.0,0.0,0.0,0.0,0.0,0.0,0.0,0.0,-3.3418,-3.3418,-3.3418,-3.3418,-3.3418,-3.3418,-3.3418,-3.3418,-3.3418,-3.3418,-3.3418,-3.3418,-3.4767,-3.5376,0.0,0.0,0.0,0.0,-3.8614,-3.9228,-3.9216,-3.9216,-4.0083,-4.1184,-4.1184,-4.1184,-4.1184,-4.1184,-4.1184,-4.0942,-3.9592,-3.9228,-3.898,-3.7779,-3.9121,-4.093,-3.9592,-3.7418,-3.55,-3.55,-3.4403,-3.3418,-3.3418,-3.3418,-3.3418,-3.3418,-3.3418,-3.3418,-3.3418,-3.3418,-3.3418,-3.3418,-3.3418,-3.3418,-3.3418,-3.3418,-3.2892,-3.1442,-3.1313,-3.0798,-2.9378,-2.9248,-2.9248,-2.9248,-2.9248,-2.937,-2.9752,-2.8477,-2.7692,-2.7668,-2.6375,-2.5599,-2.5599,-2.5599,-2.5734,-2.6145,-2.6532,-2.6658,-2.6792,-2.8493,-3.0437,-0.3053,-0.465,-0.6829,-0.9435,-1.0017,-1.0308,-1.1472,-1.2047,-1.2474,-1.2896,-1.3182,-1.3611,-1.39,-1.4189,-1.5035,-1.6841,-1.8793,0.0,0.0,0.0,0.0,0.0,0.0,0.0,0.0,0.0,0.0,0.0,0.0,0.0,0.0,-3.3418,-3.3418,-3.3418,-3.3418,-3.3418,-3.3418,-3.3418,-3.3418,-3.3418,-3.3418,-3.3418,-3.3418,-3.5725,0.0,0.0,0.0,0.0,0.0,-3.646,-3.7659,-3.9216,-3.9216,-4.0083,-4.1184,-4.1184,-4.1184,-4.1057,-4.0199,-3.9838,-3.9592,-3.8268,-3.7899,-3.7779,-3.7418,-3.7899,-3.8268,-3.6946,-3.5971,-3.5129,-3.4278,-3.366,-3.3418,-3.3418,-3.3418,-3.3418,-3.3418,-3.3418,-3.3418,-3.3418,-3.3418,-3.3418,-3.3418,-3.3418,-3.3029,-3.21,-3.1973,-3.1451,-3.003,-2.8977,-2.832,-2.7808,-2.6886,-2.7161,-2.8994,-2.8328,-2.7808,-2.7932,-2.6635,-2.5981,-2.5973,-2.545,-2.5194,-2.5194,-2.5464,-2.5599,-2.5734,-2.5861,-2.7035,-2.91,-3.0678,-3.2237,-0.2182,-0.3924,-0.6103,-0.8709,-0.9726,0.0,0.0,-1.2191,-1.2474,-1.2896,-1.3325,-1.3615,-1.4043,-1.475,-1.6013,-1.7959,-1.9767,0.0,0.0,0.0,0.0,0.0,0.0,0.0,0.0,0.0,0.0,0.0,0.0,0.0,0.0,-3.3418,-3.3418,-3.3418,-3.3418,-3.3418,-3.3418,-3.3418,-3.3418,-3.3418,-3.3418,-3.3418,-3.3418,-3.5612,0.0,0.0,0.0,0.0,0.0,-3.646,-3.7779,-3.9228,-3.9721,-4.0443,-4.1184,-4.1184,-4.093,-4.0327,-3.9463,-3.8862,-3.8257,-3.6946,-3.6215,-3.5848,-3.5848,-3.6215,-3.646,-3.5623,-3.5015,-3.4403,-3.367,-3.3418,-3.3418,-3.3418,-3.3418,-3.3292,-3.2756,-3.2629,-3.2502,-3.1854,-3.2247,-3.2629,-3.2629,-3.2629,-3.2365,-3.1442,-3.0798,-3.0021,-2.8592,-2.7676,-2.6886,-2.6368,-2.5584,-2.5846,-2.7551,-2.6894,-2.6368,-2.6368,-2.5584,-2.5059,-2.5059,-2.5059,-2.5059,-2.5059,-2.5329,-2.5464,-2.5457,-2.6122,-2.8073,-3.1166,-3.1854,-3.3019,0.0,-0.4647,-0.7259,-0.8709,-1.0308,-1.1616,-1.2051,-1.2474,0.0,-1.3182,-1.3615,-1.4043,-1.4617,-1.573,-1.7544,-1.9767,0.0,0.0,0.0,0.0,0.0,0.0,0.0,0.0,0.0,0.0,0.0,0.0,0.0,0.0,0.0,-3.3418,-3.3418,-3.3418,-3.3418,-3.3418,-3.3418,-3.3418,-3.3418,-3.3418,-3.3418,-3.3418,-3.3418,-3.4767,0.0,0.0,0.0,0.0,0.0,-3.8018,-3.9098,-3.9228,-4.0571,-4.1057,-4.1057,-4.0942,-4.0083,-3.9098,-3.898,-3.8138,-3.6935,-3.5612,-3.4403,-3.3418,-3.3418,-3.4278,-3.5253,-3.5253,-3.4403,-3.3418,-3.3418,-3.3418,-3.3418,-3.3418,-3.3292,-3.2892,-3.1579,-3.1313,-3.0927,-2.9509,-3.0419,-3.1442,-3.1185,-3.1185,-3.1185,-3.1047,-2.9891,-2.8592,-2.7145,-2.702,-2.6494,-2.5187,-2.5059,-2.5059,-2.5059,-2.5059,-2.5059,-2.5059,-2.5059,-2.5059,-2.5059,-2.5059,-2.5059,-2.5059,-2.5059,-2.5194,-2.5187,-2.7043,-2.9518,-3.2746,-3.2256,-3.2892,-0.5098,0.0,-0.567,-0.7115,-0.8709,-1.0305,0.0,-1.2474,-1.2896,-1.3182,-1.3615,-1.4324,-1.5867,-1.6705,-1.8234,0.0,0.0,0.0,0.0,0.0,0.0,0.0,0.0,0.0,0.0,0.0,0.0,0.0,0.0,0.0,0.0,-3.3418,-3.3418,-3.3418,-3.3418,-3.3418,-3.3418,-3.3418,-3.3418,-3.3418,-3.3418,-3.3418,-3.3418,-3.4767,0.0,0.0,0.0,0.0,-3.4027,-3.6692,-3.7779,-3.7899,-3.9228,-3.9709,-3.9592,-3.8625,-3.8029,-3.7659,-3.6581,-3.6093,-3.5612,-3.4278,-3.367,-3.3418,-3.3418,-3.367,-3.3912,-3.3912,-3.366,-3.3418,-3.3418,-3.3418,-3.3418,-3.3418,-3.2629,-3.1707,-3.1313,-3.1313,-3.0927,-2.9509,-3.1203,-3.2247,-3.003,-3.054,-3.0531,-2.8452,-2.7808,-2.7161,-2.5712,-2.5577,-2.545,-2.5187,-2.5059,-2.5059,-2.5059,-2.5059,-2.5059,-2.5059,-2.5059,-2.5059,-2.5059,-2.5059,-2.5059,-2.5059,-2.5059,-2.5584,-2.6627,-2.8575,-3.0522,-3.2081,-3.3262,-3.3912,-0.6268,-0.6406,-0.6103,-0.7695,-0.9147,-1.0599,-1.1616,-1.233,-1.2896,-1.3039,-1.3472,-1.4462,-1.6287,-1.7263,0.0,0.0,0.0,0.0,0.0,0.0,0.0,0.0,0.0,0.0,0.0,0.0,0.0,0.0,0.0,0.0,0.0,-3.3418,-3.3418,-3.3418,-3.3418,-3.3418,-3.3418,-3.3418,-3.3418,-3.3418,-3.3418,-3.3418,-3.3418,-3.4153,-3.4027,0.0,0.0,0.0,-3.3544,-3.5612,-3.646,-3.6581,-3.7779,-3.8387,-3.8257,-3.7539,-3.6935,-3.6338,-3.5623,-3.5015,-3.4393,-3.367,-3.3418,-3.3418,-3.3418,-3.3418,-3.3418,-3.3418,-3.3418,-3.3418,-3.3418,-3.3418,-3.3292,-3.2629,-3.1845,-3.0927,-2.9631,-2.9891,-2.9891,-2.846,-3.003,-3.0945,-2.9509,-2.937,-2.8846,-2.7278,-2.6635,-2.5981,-2.5187,-2.5059,-2.5059,-2.5059,-2.5059,-2.5059,-2.5059,-2.5059,-2.5059,-2.5059,-2.5059,-2.5059,-2.5059,-2.5059,-2.5059,-2.5059,-2.5712,-2.6627,-2.8073,-2.9882,-3.1433,-3.2737,-3.3524,-3.3922,-0.7146,-0.7566,-0.7693,-0.9,-1.0452,-1.1619,-1.1619,-1.233,-1.2753,-1.2896,-1.3611,-1.4742,-1.6705,-1.81,0.0,0.0,0.0,0.0,0.0,0.0,0.0,0.0,0.0,0.0,0.0,0.0,0.0,0.0,0.0,0.0,0.0,-3.3418,-3.3418,-3.3418,-3.3418,-3.3418,-3.3418,-3.3418,-3.3418,-3.3418,-3.3418,-3.3418,-3.3418,-3.3418,-3.3418,0.0,0.0,0.0,-3.3544,-3.4891,-3.5376,-3.55,-3.6581,-3.7056,-3.6935,-3.6814,-3.5971,-3.5129,-3.5129,-3.4403,-3.3418,-3.3418,-3.3418,-3.3418,-3.3418,-3.3418,-3.3418,-3.3418,-3.3418,-3.3418,-3.3418,-3.3292,-3.2765,-3.157,-3.0918,-3.0012,-2.7684,-2.8073,-2.846,-2.702,-2.8073,-2.9125,-2.86,-2.7816,-2.7161,-2.6894,-2.5846,-2.5059,-2.5059,-2.5059,-2.5059,-2.5059,-2.5059,-2.5059,-2.5059,-2.5059,-2.5059,-2.5059,-2.5059,-2.5059,-2.5059,-2.5059,-2.5059,-2.5059,-2.6368,-2.7808,-2.9248,-3.0669,-3.2228,-3.3796,-3.367,-3.367,-0.9934,-0.9905,-0.9,-0.9291,-1.0452,-1.1619,-1.2051,-1.2474,-1.2896,-1.3182,-1.46,-1.6287,-1.8234,-2.0045,-2.1865,0.0,0.0,0.0,0.0,0.0,0.0,0.0,0.0,0.0,0.0,0.0,0.0,0.0,0.0,0.0,0.0,0.0,-3.3418,-3.3418,-3.3418,-3.3418,-3.3418,-3.3418,-3.3418,-3.3418,-3.3418,-3.3418,-3.3418,-3.3418,-3.3418,0.0,0.0,-3.3418,-3.3544,-3.4891,-3.5376,-3.5376,-3.5623,-3.5735,-3.5489,-3.4393,-3.3912,-3.366,-3.366,-3.3544,-3.3418,-3.3418,-3.3418,-3.3418,-3.3418,-3.3418,-3.3418,-3.3418,-3.3418,-3.3418,-3.3418,-3.2502,-3.1579,-3.1313,-2.9492,-2.7676,-2.7145,-2.7286,-2.702,-2.5712,-2.7419,-2.8468,-2.6107,-2.6501,-2.6761,-2.5584,-2.5187,-2.5059,-2.5059,-2.5059,-2.5059,-2.5059,-2.5059,-2.5059,-2.5059,-2.5059,-2.5059,-2.5059,-2.5059,-2.5059,-2.5059,-2.5059,-2.5059,-2.5059,-2.6368,-2.7808,-2.9248,-3.1166,-3.26,-3.3544,-3.4047,-3.3922,-0.9956,-1.0715,-1.0452,-1.1589,-1.2448,-1.317,-1.3313,-1.4441,-1.5561,-1.5985,-1.6831,-1.81,0.0,0.0,-2.2812,0.0,0.0,0.0,0.0,0.0,0.0,0.0,0.0,0.0,0.0,0.0,0.0,0.0,0.0,0.0,0.0,0.0,-3.3418,-3.3418,-3.3418,-3.3418,-3.3418,-3.3418,-3.3418,-3.3418,-3.3418,-3.3418,-3.3418,-3.3418,-3.3418,-3.3418,0.0,-3.3418,-3.3418,-3.4037,-3.4278,-3.4278,-3.4278,-3.4278,-3.4278,-3.367,-3.3418,-3.3418,-3.3418,-3.3418,-3.3418,-3.3418,-3.3418,-3.3418,-3.3418,-3.2892,-3.2237,-3.2237,-3.2237,-3.2237,-3.2237,-3.1194,-3.0021,-2.923,-2.8065,-2.6886,-2.6234,-2.6627,-2.6886,-2.6234,-2.7153,-2.7676,-2.6368,-2.61,-2.5839,-2.5187,-2.5059,-2.5059,-2.5059,-2.5059,-2.5059,-2.5059,-2.5059,-2.5059,-2.5059,-2.5059,-2.5059,-2.5059,-2.5059,-2.545,-2.61,-2.545,-2.5846,-2.7286,-2.7941,-2.8986,-3.0281,-3.2091,-3.3136,-3.367,-3.3796,-3.3796,-0.97,-1.0779,-1.1425,-1.3024,-1.3595,-1.4014,-1.4712,-1.6122,-1.7529,-1.8078,-1.8782,-1.9634,0.0,-2.2134,0.0,0.0,0.0,0.0,0.0,0.0,0.0,0.0,0.0,0.0,0.0,0.0,0.0,0.0,0.0,0.0,0.0,0.0,-3.3418,-3.3418,-3.3418,-3.3418,-3.3418,-3.3418,-3.3418,-3.3418,-3.3418,-3.3418,-3.3418,-3.3418,-3.3418,-3.3418,-3.3418,-3.3418,-3.3418,-3.3418,-3.3418,-3.3418,-3.3418,-3.3418,-3.3418,-3.3418,-3.3418,-3.3418,-3.3418,-3.3418,-3.3418,-3.3418,-3.3418,-3.3292,-3.3029,-3.211,-3.1185,-3.0927,-3.0531,-3.0401,-3.0669,-2.9761,-2.846,-2.7411,-2.6886,-2.6368,-2.5322,-2.5846,-2.6627,-2.6627,-2.6627,-2.6627,-2.6627,-2.5846,-2.5059,-2.5059,-2.5059,-2.5059,-2.5059,-2.5059,-2.5059,-2.5059,-2.5059,-2.5187,-2.5584,-2.5584,-2.5712,-2.5973,-2.5712,-2.6241,-2.7543,-2.6635,-2.7028,-2.9125,-2.9631,-3.0281,-3.1313,-3.3009,-3.3796,-3.3922,-3.367,-3.367,-1.0395,-1.0709,-1.1018,-1.1582,-1.2047,-1.3039,-1.5844,-1.6131,-1.6136,-1.7529,-1.9217,-2.0629,0.0,0.0,0.0,0.0,0.0,0.0,0.0,0.0,0.0,0.0,0.0,0.0,0.0,0.0,0.0,0.0,0.0,0.0,0.0,0.0,0.0,-3.3418,-3.3418,-3.3418,-3.3418,-3.3418,-3.3418,-3.3418,-3.3418,-3.3418,-3.3418,-3.3418,-3.3418,-3.3418,-3.3418,-3.3418,-3.3418,-3.3418,-3.3418,-3.3418,-3.3418,-3.3418,-3.3418,-3.3418,-3.3418,-3.3418,-3.3418,-3.3418,-3.3418,-3.3418,-3.3418,-3.3165,-3.1845,-3.1442,-3.1056,-2.977,-2.846,-2.7676,-2.8986,-2.8328,-2.7278,-2.7145,-2.6107,-2.5187,-2.5059,-2.5187,-2.5187,-2.5187,-2.5187,-2.5187,-2.5187,-2.5187,-2.5059,-2.5059,-2.5059,-2.5059,-2.5059,-2.5059,-2.5059,-2.5059,-2.5059,-2.5584,-2.6886,-2.702,-2.7543,-2.8854,-2.7676,-2.7543,-2.8986,-2.8994,-2.8994,-2.9248,-3.0789,-3.1561,-3.1313,-3.3631,-3.4423,-3.3922,-3.4173,-3.4173,-1.0006,-1.1236,-1.2363,-1.2856,-1.3661,-1.4871,-1.6952,-1.8223,-1.9634,-2.1571,-2.2415,-2.2846,0.0,0.0,0.0,0.0,0.0,0.0,0.0,0.0,0.0,0.0,0.0,0.0,0.0,0.0,0.0,0.0,0.0,0.0,0.0,0.0,0.0,-3.3418,-3.3418,-3.3418,-3.3418,-3.3418,-3.3418,-3.3418,-3.3418,-3.3418,-3.3418,-3.3418,-3.3418,-3.3418,-3.3418,-3.3418,-3.3418,-3.3418,-3.3418,-3.3418,-3.3418,-3.3418,-3.3418,-3.3418,-3.3418,-3.3418,-3.3418,-3.3418,-3.3418,-3.3418,-3.3418,-3.3292,-3.2765,-3.1973,-3.1056,-2.9639,-2.8196,-2.7278,-2.7816,-2.6894,-2.5846,-2.5846,-2.545,-2.5059,-2.5059,-2.5059,-2.5059,-2.5059,-2.5059,-2.5059,-2.5059,-2.5059,-2.5059,-2.5059,-2.5059,-2.5059,-2.5059,-2.5846,-2.6368,-2.6368,-2.7161,-2.7808,-2.8328,-2.8468,-2.8977,-3.041,-2.9239,-2.8986,-3.041,-2.9639,-3.003,-3.1726,-3.1579,-3.1835,-3.2629,-3.3786,-3.4538,-3.5139,-3.4413,-3.4901,-1.0512,-1.1743,-1.3173,-1.4401,-1.4955,-1.591,-1.8326,-1.9756,-2.117,-2.3672,-2.4095,-2.4495,-2.5689,0.0,0.0,0.0,0.0,0.0,0.0,0.0,0.0,0.0,0.0,0.0,0.0,0.0,0.0,0.0,0.0,0.0,0.0,0.0,0.0,0.0,-3.3418,-3.3418,-3.3418,-3.3418,-3.3418,-3.3418,-3.3418,-3.3418,-3.3418,-3.3418,-3.3418,-3.3418,-3.3418,-3.3418,-3.3418,-3.3418,-3.3418,-3.3418,-3.3418,-3.3418,-3.3418,-3.3418,-3.3418,-3.3418,-3.3418,-3.3155,-3.2765,-3.3292,-3.3155,-3.2765,-3.2765,-3.21,-3.1056,-2.9639,-2.846,-2.7808,-2.7816,-2.6509,-2.5059,-2.5059,-2.5059,-2.5059,-2.5059,-2.5059,-2.5059,-2.5059,-2.5059,-2.5059,-2.5059,-2.5059,-2.5059,-2.5059,-2.5059,-2.5059,-2.5059,-2.6234,-2.7278,-2.7676,-2.8592,-2.9378,-2.977,-2.9891,-3.0419,-3.1845,-3.1074,-3.0936,-3.1973,-3.1074,-3.146,-3.3418,-3.2492,-3.2737,-3.4037,-3.4528,-3.5263,-3.6481,-3.55,-3.6104,-1.2346,-1.2519,-1.3145,-1.6099,-1.58,-1.6001,-2.0095,-2.0027,-1.9756,-2.2839,-2.4081,-2.5427,-2.8188,-2.8977,0.0,0.0,0.0,0.0,0.0,0.0,0.0,0.0,0.0,0.0,0.0,0.0,0.0,0.0,0.0,0.0,0.0,0.0,0.0,0.0,-3.3418,-3.3418,-3.3418,-3.3418,-3.3418,-3.3418,-3.3418,-3.3418,-3.3418,-3.3418,-3.3418,-3.3418,-3.3418,-3.3418,-3.3418,-3.3418,-3.3418,-3.3418,-3.3418,-3.3418,-3.3418,-3.3418,-3.3418,-3.3418,-3.3418,-3.2502,-3.1579,-3.2892,-3.2492,-3.1313,-3.1313,-3.1313,-3.1056,-2.9639,-2.9248,-2.9248,-2.9256,-2.7161,-2.5059,-2.5059,-2.5059,-2.5059,-2.5059,-2.5059,-2.5059,-2.5059,-2.5059,-2.5059,-2.5059,-2.5059,-2.5059,-2.5059,-2.5059,-2.5059,-2.5187,-2.6368,-2.7676,-2.9117,-2.9248,-2.9761,-3.1185,-3.1313,-3.1973,-3.3292,-3.3418,-3.3418,-3.3418,-3.3418,-3.3418,-3.3418,-3.3796,-3.4403,-3.5376,-3.6125,-3.6857,-3.7801,-3.7801,-3.7801,-1.0502,-1.2563,-1.481,-1.454,-1.6435,-1.8609,-1.9891,-2.0189,-2.1145,-2.425,-2.6433,-2.7932,-2.8583,0.0,0.0,0.0,0.0,0.0,0.0,0.0,0.0,0.0,0.0,0.0,0.0,0.0,0.0,0.0,0.0,0.0,0.0,0.0,0.0,0.0,-3.3418,-3.3418,-3.3418,-3.3418,-3.3418,-3.3418,-3.3418,-3.3418,-3.3418,-3.3418,-3.3418,-3.3418,-3.3418,-3.3418,-3.3418,-3.3418,-3.2765,-3.1973,-3.1973,-3.1973,-3.1845,-3.0816,-3.1726,-3.3292,-3.2237,-3.2365,-3.2629,-3.21,-3.2365,-3.2629,-3.1579,-3.1973,-3.2247,-2.99,-2.99,-3.0281,-2.8196,-2.7161,-2.6509,-2.6501,-2.5846,-2.5059,-2.5059,-2.5059,-2.5059,-2.5059,-2.5059,-2.5059,-2.5059,-2.5059,-2.5059,-2.5059,-2.5059,-2.5846,-2.7676,-2.9239,-3.054,-3.1982,-3.2119,-3.2374,-3.2765,-3.2765,-3.2902,-3.3418,-3.3418,-3.3418,-3.3418,-3.3418,-3.3418,-3.3418,-3.4403,-3.5139,-3.5376,-3.6714,-3.7921,-3.8744,-3.816,-3.8648,-1.2664,-1.4833,-1.6661,-1.676,-1.8088,-1.9676,-2.046,-2.1813,0.0,0.0,-2.8071,-2.9509,-3.041,0.0,0.0,0.0,0.0,0.0,0.0,0.0,0.0,0.0,0.0,0.0,0.0,0.0,0.0,0.0,0.0,0.0,0.0,0.0,0.0,0.0,-3.1726,-3.1726,-3.1726,-3.1726,-3.1982,-3.2629,-3.2629,-3.2629,-3.2629,-3.3155,-3.3418,-3.3418,-3.2765,-3.2629,-3.2502,-3.1982,-3.1203,-3.041,-3.041,-3.041,-3.041,-2.9509,-3.0678,-3.2502,-3.1579,-3.1845,-3.2502,-3.2237,-3.1982,-3.1726,-3.211,-3.1982,-3.1598,-3.1074,-3.1065,-3.0927,-2.923,-2.8328,-2.7816,-2.7286,-2.6107,-2.5059,-2.5059,-2.5584,-2.5712,-2.5187,-2.5584,-2.5981,-2.5839,-2.545,-2.545,-2.6501,-2.6769,-2.7551,-2.9761,-3.0798,-3.1835,-3.3292,-3.3418,-3.3418,-3.3418,-3.3418,-3.3418,-3.3418,-3.3418,-3.366,-3.4153,-3.4153,-3.4153,-3.4153,-3.5489,-3.646,-3.6946,-3.791,-3.8873,-3.9954,-3.9368,-3.9849,-1.6818,-1.7736,-1.8577,-2.0786,-2.0314,0.0,-2.1876,-2.4386,-2.6647,-2.8332,0.0,-3.0321,0.0,0.0,0.0,0.0,0.0,0.0,0.0,0.0,0.0,0.0,0.0,0.0,0.0,0.0,0.0,0.0,0.0,0.0,0.0,0.0,0.0,0.0,-2.9248,-2.9248,-2.9248,-2.9248,-2.9891,0.0,-3.1056,-3.1056,-3.1185,-3.2629,-3.3165,-3.2902,-3.1717,-3.1056,-3.1056,-2.977,-2.9125,-2.8986,-2.8986,-2.9117,-2.9117,-2.9125,-3.0021,-3.1451,-3.1313,-3.1313,-3.1451,-3.2638,-3.1341,-2.9639,-3.211,-3.1074,-2.9778,-3.2119,-3.1982,-3.1056,-3.0927,-3.0021,-2.8723,-2.7411,-2.6107,-2.5187,-2.5322,-2.6234,-2.6761,-2.5584,-2.6375,-2.7294,-2.7153,-2.6234,-2.6368,-2.8854,-2.9248,-2.99,-3.1185,-3.1442,-3.1973,-3.3292,-3.3418,-3.3418,-3.3418,-3.3418,-3.3418,-3.3418,-3.3544,-3.4153,-3.5376,-3.5376,-3.55,-3.5612,-3.6824,-3.8018,-3.9216,-3.9345,-3.9954,-4.1184,-4.1184,-4.1184,-1.3574,-1.6172,-1.8524,-1.9096,-2.0272,-2.1936,-2.3686,-2.5742,-2.7302,-2.7427,0.0,0.0,0.0,0.0,0.0,0.0,0.0,0.0,0.0,0.0,0.0,0.0,0.0,0.0,0.0,0.0,0.0,0.0,0.0,0.0,0.0,0.0,0.0,-2.9256,-2.9248,-2.9248,-2.9248,-2.9248,-2.9378,0.0,-2.9639,-2.9639,-2.9639,-3.1056,-3.1194,-3.0039,-2.977,-2.9639,-2.9639,-2.9378,-2.8592,-2.7543,-2.7543,-2.8196,-2.9117,-2.7941,-2.9891,-3.2765,-3.1707,-3.1313,-3.1185,-3.0419,-2.9639,-2.9117,-2.8592,-2.8854,-2.9125,-2.8592,-2.8977,-2.9378,-2.8337,-2.7808,-2.7543,-2.7153,-2.6107,-2.5457,-2.6494,-2.6886,-2.702,-2.6761,-2.7808,-2.8468,-2.7278,-2.7808,-2.8468,-2.9117,-3.0151,-3.0927,-3.1313,-3.2237,-3.3029,-3.3418,-3.3418,-3.3418,-3.3418,-3.3418,-3.3418,-3.3418,-3.4403,-3.5139,-3.5376,-3.5376,-3.5858,-3.6814,-3.8138,-3.898,-3.9216,-4.0199,-4.093,-4.1184,-4.1184,-4.1184,-1.3796,-1.641,-1.8762,-1.9795,0.0,-2.2355,-2.3464,-2.5568,-2.7059,0.0,0.0,0.0,0.0,0.0,0.0,0.0,0.0,0.0,0.0,0.0,0.0,0.0,0.0,0.0,0.0,0.0,0.0,0.0,0.0,0.0,0.0,-2.7543,-2.7411,-2.7286,-2.7294,-2.7294,-2.7427,-2.7294,-2.7684,-2.8477,-2.8345,-2.8205,-2.8196,-2.9631,-2.99,-2.9125,-2.846,-2.8196,-2.8196,-2.7551,-2.6761,-2.61,-2.61,-2.702,-2.8073,-2.7411,-2.8977,-3.1332,-3.0549,-3.0281,-3.0151,-2.9378,-2.8723,-2.8196,-2.8065,-2.7684,-2.7419,-2.7941,-2.8196,-2.8073,-2.7286,-2.7153,-2.6886,-2.6234,-2.5584,-2.545,-2.6753,-2.7676,-2.8073,-2.8073,-2.9239,-3.0021,-2.923,-3.0281,-3.0936,-3.029,-3.1451,-3.2365,-3.2365,-3.2902,-3.3418,-3.3418,-3.3418,-3.367,-3.4278,-3.4403,-3.4642,-3.5242,-3.5971,-3.6581,-3.7177,-3.7177,-3.7539,-3.8149,-3.9474,-4.0199,-4.0199,-4.0815,-4.1184,-4.1184,-4.1184,-4.1184,-1.4665,-1.7167,-1.9024,-2.1089,-2.1859,0.0,-2.2731,-2.4818,-2.6407,0.0,0.0,0.0,0.0,0.0,0.0,0.0,0.0,0.0,0.0,0.0,0.0,0.0,0.0,0.0,0.0,0.0,0.0,0.0,0.0,0.0,-2.5464,-2.5329,-2.5194,-2.5059,-2.5194,-2.5329,-2.5599,-2.5329,-2.5854,-2.731,-2.7043,-2.6769,-2.6753,-2.7941,-2.8468,-2.8468,-2.7286,-2.6753,-2.6627,-2.5584,-2.5059,-2.5059,-2.5059,-2.5973,-2.7153,-2.7153,-2.7941,-2.9248,-2.9248,-2.8994,-2.8854,-2.8854,-2.8073,-2.7278,-2.8468,-2.7419,-2.6241,-2.8337,-2.8196,-2.7411,-2.7145,-2.7153,-2.6753,-2.5712,-2.545,-2.5846,-2.7153,-2.8592,-2.9509,-2.9509,-3.054,-3.1442,-3.1579,-3.2629,-3.3029,-3.1835,-3.2629,-3.3418,-3.3418,-3.3418,-3.3544,-3.366,-3.3796,-3.4278,-3.5612,-3.5746,-3.6226,-3.7177,-3.7539,-3.8138,-3.911,-3.9463,-3.9592,-3.9592,-4.0571,-4.1184,-4.1184,-4.1184,-4.1184,-4.1184,-4.1184,-4.1184,-1.3299,0.0,-1.9024,0.0,-2.1859,-2.248,0.0,0.0,0.0,0.0,0.0,0.0,0.0,0.0,0.0,0.0,0.0,0.0,0.0,0.0,0.0,0.0,0.0,0.0,0.0,0.0,0.0,0.0,0.0,0.0,-2.5187,-2.5464,-2.5464,-2.5059,-2.5329,-2.5599,-2.5599,-2.5329,-2.5322,-2.5861,-2.5592,-2.5322,-2.5315,-2.5584,-2.5719,-2.5584,-2.545,-2.5322,-2.5315,-2.5187,-2.5059,-2.5059,-2.5059,-2.5973,-2.7153,-2.7153,-2.7941,-2.9248,-2.9248,-2.846,-2.7411,-2.7411,-2.7278,-2.7153,-2.7419,-2.8081,-2.846,-2.7676,-2.8065,-2.86,-2.7411,-2.7153,-2.7012,-2.6886,-2.6886,-2.7286,-2.86,-3.0021,-3.1056,-3.1056,-3.1185,-3.1707,-3.2892,-3.3292,-3.3292,-3.3155,-3.3292,-3.3418,-3.3418,-3.3418,-3.3786,-3.5005,-3.5129,-3.5612,-3.6946,-3.7056,-3.7177,-3.7298,-3.8376,-3.898,-3.9216,-4.0327,-4.093,-4.093,-4.1069,-4.1184,-4.1184,-4.1184,-4.1184,-4.1184,-4.1184,-4.1184,-1.3827,-1.656,-1.9024,0.0,-2.1734,-2.2104,-2.3098,0.0,0.0,0.0,0.0,0.0,0.0,0.0,0.0,0.0,0.0,0.0,0.0,0.0,0.0,0.0,0.0,0.0,0.0,0.0,0.0,0.0,0.0,-2.5194,-2.5329,-2.5329,-2.5329,-2.5329,-2.5329,-2.5464,-2.5869,-2.5329,-2.5194,-2.5329,-2.5194,-2.5059,-2.5059,-2.5059,-2.5059,-2.5059,-2.5059,-2.5059,-2.5059,-2.5059,-2.5059,-2.5059,-2.5059,-2.5973,-2.7153,-2.7153,-2.7543,-2.8065,-2.8065,-2.7153,-2.5973,-2.5973,-2.6501,-2.7153,-2.7153,-2.8073,-2.9117,-2.8468,-2.8723,-2.9125,-2.846,-2.8337,-2.8337,-2.8337,-2.8846,-2.9622,-3.0281,-3.0798,-3.1579,-3.2365,-3.2502,-3.2629,-3.3292,-3.3418,-3.3418,-3.3418,-3.3418,-3.3418,-3.3418,-3.4027,-3.4767,-3.5376,-3.6104,-3.6935,-3.8268,-3.8376,-3.8744,-3.9474,-3.9966,-4.0327,-4.0327,-4.093,-4.1184,-4.1184,-4.1184,-4.1184,-4.1184,-4.1184,-4.1184,-4.1184,-4.1184,-4.1402,0.0,0.0,-1.7725,-2.0182,-2.0829,-2.1209,0.0,0.0,0.0,0.0,0.0,0.0,0.0,0.0,0.0,0.0,0.0,0.0,0.0,0.0,0.0,0.0,0.0,0.0,0.0,0.0,0.0,0.0,0.0,-2.5194,-2.5464,-2.5329,-2.5329,-2.5464,-2.5322,-2.5464,-2.6003,-2.5464,-2.5194,-2.5059,-2.5059,-2.5059,-2.5059,-2.5059,-2.5059,-2.5059,-2.5059,-2.5059,-2.5059,-2.5059,-2.5059,-2.5059,-2.5059,-2.5712,-2.6627,-2.6627,-2.6627,-2.6627,-2.6627,-2.5973,-2.5187,-2.545,-2.6494,-2.7676,-2.8056,-2.9108,-3.016,-2.977,-3.003,-3.016,-2.977,-2.977,-2.977,-2.977,-3.054,-3.1442,-3.1707,-3.1845,-3.21,-3.3165,-3.3418,-3.3418,-3.3418,-3.3418,-3.3418,-3.3418,-3.3418,-3.3544,-3.3912,-3.4767,-3.5612,-3.6338,-3.7177,-3.8268,-3.9592,-3.9709,-4.0083,-4.1184,-4.1184,-4.1184,-4.1184,-4.1184,-4.1184,-4.1184,-4.1184,-4.1184,-4.1184,-4.1184,-4.1184,-4.1184,-4.1414,-4.1859,0.0,-1.2509,0.0,-1.7859,-1.889,0.0,0.0,0.0,0.0,0.0,0.0,0.0,0.0,0.0,0.0,0.0,0.0,0.0,0.0,0.0,0.0,0.0,0.0,0.0,0.0,0.0,0.0,0.0,0.0,-2.5059,-2.5194,-2.5464,-2.5464,-2.5194,-2.5464,-2.5599,-2.5599,-2.5599,-2.5457,-2.5059,-2.5059,-2.5059,-2.5059,-2.5059,-2.5059,-2.5059,-2.5059,-2.5059,-2.5059,-2.5059,-2.5059,-2.5059,-2.5059,-2.5187,-2.5187,-2.5187,-2.5187,-2.5187,-2.5187,-2.5187,-2.5322,-2.6627,-2.7941,-2.9378,-3.0669,-3.21,-3.2892,-3.1579,-3.211,-3.2892,-3.1579,-3.1185,-3.1185,-3.1185,-3.1185,-3.1707,-3.3029,-3.3292,-3.3292,-3.3428,-3.3418,-3.3418,-3.3418,-3.3418,-3.3418,-3.3418,-3.3418,-3.3912,-3.5129,-3.5376,-3.6338,-3.8744,-3.9098,-3.9592,-4.0942,-4.1069,-4.1184,-4.1184,-4.1184,-4.1184,-4.1184,-4.1184,-4.1184,-4.1184,-4.1184,-4.1184,-4.1184,-4.1184,-4.1184,-4.1184,-4.2073,-4.2413,0.0,0.0,0.0,-1.4952,-1.7049,0.0,0.0,0.0,0.0,0.0,0.0,0.0,0.0,0.0,0.0,0.0,0.0,0.0,0.0,0.0,0.0,0.0,0.0,0.0,0.0,0.0,0.0,0.0,0.0,0.0,-2.5059,-2.5187,-2.5329,-2.5464,-2.5599,-2.5599,-2.5599,-2.5329,-2.5194,-2.5059,-2.5059,-2.5059,-2.5059,-2.5059,-2.5059,-2.5059,-2.5059,-2.5059,-2.5059,-2.5059,-2.5059,-2.5059,-2.5059,-2.5059,-2.5059,-2.5059,-2.5059,-2.5187,-2.6115,-2.6368,-2.6627,-2.7941,-2.937,-3.0669,-3.1185,-3.2237,-3.3292,-3.2765,-3.3029,-3.3292,-3.2765,-3.2629,-3.2629,-3.2629,-3.2629,-3.2765,-3.3292,-3.3418,-3.3418,-3.3418,-3.3418,-3.3418,-3.3418,-3.3418,-3.3418,-3.3418,-3.4153,-3.4891,-3.5376,-3.6814,-3.8138,-3.9098,-3.9954,-4.0687,-4.1184,-4.1184,-4.1184,-4.1184,-4.1184,-4.1184,-4.1184,-4.1184,-4.1184,-4.1184,-4.1184,-4.1184,-4.1184,-4.1184,-4.1184,-4.1184,-4.2073,-4.2837,-0.7208,0.0,0.0,0.0,0.0,0.0,0.0,0.0,0.0,0.0,0.0,0.0,0.0,0.0,0.0,0.0,0.0,0.0,0.0,0.0,0.0,0.0,0.0,0.0,0.0,0.0,0.0,0.0,0.0,0.0,-2.5059,-2.5059,-2.5194,-2.5464,-2.5464,-2.5464,-2.5464,-2.5194,-2.5059,-2.5059,-2.5059,-2.5059,-2.5059,-2.5059,-2.5059,-2.5059,-2.5059,-2.5059,-2.5059,-2.5059,-2.5059,-2.5059,-2.5059,-2.5059,-2.5059,-2.5059,-2.5059,-2.5322,-2.6635,-2.7153,-2.7411,-2.9239,-3.054,-3.1442,-3.1835,-3.2629,-3.3418,-3.3418,-3.3418,-3.3418,-3.3418,-3.3418,-3.3418,-3.3418,-3.3418,-3.3418,-3.3418,-3.3418,-3.3418,-3.3418,-3.3418,-3.3418,-3.3418,-3.3786,-3.4027,-3.4027,-3.5253,-3.6215,-3.6581,-3.8138,-3.9345,-3.9826,-4.0699,-4.1184,-4.1184,-4.1184,-4.1184,-4.1184,-4.1184,-4.1184,-4.1184,-4.1184,-4.1184,-4.1184,-4.1516,-4.1516,-4.1184,-4.1184,-4.1402,-4.1631,-4.2513,-4.3602,0.0,0.0,0.0,0.0,0.0,0.0,0.0,0.0,0.0,0.0,0.0,0.0,0.0,0.0,0.0,0.0,0.0,0.0,0.0,0.0,0.0,0.0,0.0,0.0,0.0,0.0,0.0,0.0,0.0,-2.5052,-2.5059,-2.5059,-2.5059,-2.5052,-2.5059,-2.5059,-2.5052,-2.5059,-2.5059,-2.5059,-2.5059,-2.5059,-2.5059,-2.5059,-2.5059,-2.5059,-2.5059,-2.5059,-2.5059,-2.5059,-2.5059,-2.5059,-2.5059,-2.5059,-2.5059,-2.5059,-2.5059,-2.5322,-2.6627,-2.7145,-2.7535,-3.0401,-3.1313,-3.157,-3.3019,-3.3418,-3.3418,-3.3418,-3.3418,-3.3418,-3.3418,-3.3418,-3.3418,-3.3418,-3.3418,-3.3418,-3.3418,-3.3418,-3.3418,-3.3418,-3.3418,-3.3418,-3.3418,-3.4518,-3.5376,-3.55,-3.6581,-3.7779,-3.898,-3.9228,-3.9721,-4.1057,-4.1184,-4.1184,-4.1184,-4.1184,-4.1184,-4.1184,-4.1184,-4.1184,-4.1184,-4.1184,-4.1184,-4.1299,-4.2073,-4.2073,-4.1299,-4.1299,-4.1745,-4.2525,-4.3381,-4.4804,-0.3365,0.0,0.0,0.0,0.0,0.0,0.0,0.0,0.0,0.0,0.0,0.0,0.0,0.0,0.0,0.0,0.0,0.0,0.0,0.0,0.0,0.0,0.0,0.0,0.0,0.0,0.0,0.0,-2.3947,-2.3938,-2.5052,-2.5059,-2.5194,-2.5464,-2.5194,-2.5194,-2.5464,-2.5194,-2.5059,-2.5059,-2.5059,-2.5059,-2.5059,-2.5059,-2.5059,-2.5059,-2.5059,-2.5059,-2.5059,-2.5059,-2.5059,-2.5059,-2.5059,-2.5059,-2.5059,-2.5059,-2.5059,-2.545,-2.7808,-2.7932,-2.7668,-3.1588,-3.21,-3.157,-3.3019,-3.3418,-3.3418,-3.3418,-3.3418,-3.3418,-3.3418,-3.3418,-3.3418,-3.3418,-3.3418,-3.3418,-3.3418,-3.3418,-3.3418,-3.3418,-3.3418,-3.366,-3.4642,-3.5129,-3.5735,-3.6703,-3.7899,-3.8862,-3.9098,-4.0083,-4.0815,-4.1184,-4.1184,-4.1184,-4.1184,-4.1184,-4.1184,-4.1184,-4.1184,-4.1516,-4.2073,-4.1516,-4.1846,-4.3048,-4.2737,-4.2725,-4.3048,-4.3048,-4.2837,-4.2525,-4.4042,-4.5355,-0.2828,-0.3229,-0.3629,0.0,0.0,0.0,0.0,-1.2211,0.0,0.0,0.0,0.0,0.0,0.0,0.0,0.0,0.0,0.0,0.0,0.0,0.0,0.0,0.0,0.0,0.0,0.0,0.0,-2.2767,-2.2133,-2.2147,-2.3236,-2.3802,-2.4217,-2.4488,-2.4909,-2.5194,-2.5329,-2.5194,-2.5059,-2.5059,-2.5059,-2.5059,-2.5059,-2.5059,-2.5059,-2.5059,-2.5059,-2.5059,-2.5059,-2.5059,-2.5059,-2.5059,-2.5059,-2.5059,-2.5059,-2.5059,-2.545,-2.6234,-2.8468,-2.9108,-2.9361,-3.2374,-3.2892,-3.2365,-3.3155,-3.3418,-3.3418,-3.3418,-3.3418,-3.3418,-3.3418,-3.3418,-3.3418,-3.3418,-3.3418,-3.3418,-3.3418,-3.3418,-3.3418,-3.3418,-3.3786,-3.4528,-3.5253,-3.6215,-3.7298,-3.8018,-3.9228,-4.0071,-4.0071,-4.0687,-4.1184,-4.1184,-4.1184,-4.1184,-4.1184,-4.1516,-4.1631,-4.1184,-4.1516,-4.196,-4.2525,-4.196,-4.2388,-4.381,-4.3602,-4.4042,-4.4912,-4.4139,-4.3713,-4.3615,-4.5033,-4.6034,-0.2963,-0.2424,-0.2154,0.0,0.0,0.0,-0.8254,-1.0109,-1.21,0.0,0.0,0.0,0.0,0.0,0.0,0.0,0.0,0.0,0.0,0.0,0.0,0.0,0.0,0.0,0.0,-1.9286,-1.9496,-2.0098,-2.0324,-2.0327,-2.0587,-2.1984,-2.2819,-2.2819,-2.4353,-2.5059,-2.5059,-2.5059,-2.5059,-2.5059,-2.5059,-2.5059,-2.5059,-2.5059,-2.5059,-2.5059,-2.5059,-2.5059,-2.5059,-2.5059,-2.5059,-2.5059,-2.5059,-2.5059,-2.5059,-2.5322,-2.6107,-2.7278,-2.8854,-3.0151,-3.1322,-3.2892,-3.3292,-3.3165,-3.3292,-3.3418,-3.3418,-3.3418,-3.3418,-3.3418,-3.3418,-3.3418,-3.3418,-3.3418,-3.3418,-3.3418,-3.3418,-3.3544,-3.367,-3.367,-3.4518,-3.55,-3.5623,-3.7659,-3.9228,-3.9345,-4.0443,-4.1184,-4.1184,-4.1184,-4.1184,-4.1184,-4.1184,-4.1184,-4.1299,-4.196,-4.2073,-4.1414,-4.2073,-4.2513,-4.2625,-4.2625,-4.306,-4.4029,-4.4804,-4.5688,-4.6469,-4.4804,-4.4357,-4.5261,-4.6139,-4.6469,0.0,0.0,0.0,0.0,0.0,0.0,-0.4686,-0.508,-0.5471,0.0,0.0,0.0,0.0,0.0,0.0,0.0,0.0,0.0,0.0,0.0,0.0,0.0,0.0,0.0,0.0,-1.8273,-1.8301,-1.9579,-2.0118,-2.0327,-2.0587,-2.1984,-2.2819,-2.2819,-2.4353,-2.5059,-2.5059,-2.5059,-2.5059,-2.5059,-2.5059,-2.5059,-2.5059,-2.5059,-2.5059,-2.5059,-2.5059,-2.5059,-2.5059,-2.5059,-2.5059,-2.5059,-2.5059,-2.5059,-2.5187,-2.6368,-2.6886,-2.7411,-3.0012,-3.0281,-3.003,-3.2511,-3.2629,-3.1973,-3.3029,-3.3418,-3.3418,-3.3418,-3.3418,-3.3418,-3.3418,-3.3418,-3.3418,-3.3418,-3.3418,-3.3418,-3.3418,-3.4278,-3.5005,-3.5005,-3.5253,-3.5746,-3.6692,-3.8138,-3.9592,-4.0687,-4.1057,-4.1184,-4.1184,-4.1184,-4.1184,-4.1184,-4.1184,-4.1516,-4.2187,-4.1745,-4.1631,-4.2187,-4.2413,-4.2837,-4.3479,-4.3589,-4.4261,-4.5914,-4.6139,-4.6364,-4.6469,-4.5368,-4.5355,-4.6245,-4.6364,-4.6469,0.0,0.0,0.0,-0.1077,0.0,0.0,0.0,-0.2542,-0.2538,0.0,0.0,0.0,0.0,0.0,0.0,0.0,0.0,0.0,0.0,0.0,0.0,0.0,0.0,0.0,0.0,-1.6452,-1.6434,-1.733,-1.7669,-1.8058,-1.8035,-1.9539,-2.0355,-2.0355,-2.2392,-2.3616,-2.3616,-2.4455,-2.481,-2.4818,-2.4979,-2.5059,-2.5059,-2.5059,-2.5059,-2.5059,-2.5059,-2.5059,-2.5059,-2.5059,-2.5059,-2.5059,-2.5059,-2.545,-2.6234,-2.6886,-2.7932,-2.9361,-3.0789,-3.1322,-3.1469,-3.2902,-3.2892,-3.2502,-3.3155,-3.3418,-3.3418,-3.3418,-3.3418,-3.3418,-3.3418,-3.3418,-3.3418,-3.3418,-3.3262,-3.323,-3.3833,-3.4381,-3.4814,-3.5406,-3.6124,-3.687,-3.806,-3.9345,-4.0443,-4.1069,-4.1184,-4.1184,-4.1184,-4.1184,-4.1184,-4.1184,-4.1631,-4.2073,-4.2413,-4.25,-4.2725,-4.3159,-4.3159,-4.3492,-4.4357,-4.4479,-4.514,-4.6469,-4.6469,-4.6469,-4.6469,-4.6034,-4.6034,-4.6469,-4.6469,-4.6469,0.0,0.0,0.0,0.0,0.0,0.1074,0.0,0.0,0.0,-0.1865,0.0,0.0,0.0,0.0,0.0,0.0,0.0,0.0,0.0,0.0,0.0,0.0,0.0,0.0,0.0,-1.48,-1.5016,-1.5215,-1.5394,-1.5517,-1.556,-1.7032,-1.7836,-1.7836,-2.0491,-2.1951,-2.1951,-2.3669,-2.4474,-2.4481,-2.4744,-2.4869,-2.4869,-2.4869,-2.4869,-2.4869,-2.4869,-2.4869,-2.4869,-2.4869,-2.5003,-2.5271,-2.5398,-2.6107,-2.7153,-2.7668,-2.9361,-3.1313,-3.1579,-3.2492,-3.3418,-3.3418,-3.3418,-3.3418,-3.3418,-3.3369,-3.3301,-3.3301,-3.3242,-3.3184,-3.3184,-3.3184,-3.3184,-3.3184,-3.3034,-3.3261,-3.4206,-3.4508,-3.4944,-3.5878,-3.7166,-3.8239,-3.8803,-4.0115,-4.104,-4.104,-4.1124,-4.1184,-4.1184,-4.1184,-4.1299,-4.1402,-4.2073,-4.2525,-4.2737,-4.3381,-4.381,-4.381,-4.392,-4.437,-4.5033,-4.5248,-4.5702,-4.6469,-4.6469,-4.6469,-4.6469,-4.6469,-4.6469,-4.6469,-4.6469,-4.6469,0.0,0.0,0.0,0.0,0.2956,0.0,0.0,0.0,0.3221,0.1743,0.0,0.0,0.0,0.0,0.0,0.0,0.0,0.0,0.0,0.0,0.0,0.0,0.0,0.0,0.0,0.0,-1.5016,-1.5215,-1.5257,-1.5352,-1.555,-1.7032,-1.7836,-1.7836,-2.0491,-2.1951,-2.1951,-2.3456,-2.4137,-2.4137,-2.4174,-2.4188,-2.4188,-2.4188,-2.4188,-2.4188,-2.4188,-2.4188,-2.4188,-2.4188,-2.4833,-2.5908,-2.665,-2.702,-2.7411,-2.9882,-3.1056,-3.1451,-3.2765,-3.3292,-3.3418,-3.3418,-3.3418,-3.3418,-3.3418,-3.3164,-3.2861,-3.2861,-3.2598,-3.2314,-3.2314,-3.2314,-3.2314,-3.2314,-3.3085,-3.3854,-3.3974,-3.5689,-3.7292,-3.7406,-3.8559,-3.9066,-3.8021,-3.9349,-4.0487,-4.0487,-4.0884,-4.1184,-4.1184,-4.1184,-4.1516,-4.23,-4.2413,-4.2837,-4.3589,-4.37,-4.381,-4.381,-4.4479,-4.5033,-4.514,-4.5914,-4.6364,-4.6469,-4.6469,-4.6469,-4.6469,-4.6469,-4.6469,-4.6469,-4.6469,-4.6469,0.0,0.0,0.0,0.0,0.0,0.0,0.2692,0.0,0.4166,0.0,0.0,0.0,0.0,0.0,0.0,0.0,0.0,0.0,0.0,0.0,0.0,0.0,0.0,0.0,0.0,0.0,0.0,0.0,0.0,-1.4431,-1.5191,-1.5717,-1.6115,-1.6115,-1.8063,-1.9492,-2.0276,-2.1876,-2.3013,-2.3801,-2.3991,-2.4086,-2.4086,-2.4086,-2.4086,-2.4086,-2.4086,-2.4086,-2.4086,-2.4086,-2.4842,-2.6144,-2.7196,-2.8212,-2.8971,-3.0122,-3.1146,-3.1923,-3.2438,-3.2695,-3.2695,-3.2695,-3.2695,-3.2695,-3.2695,-3.2578,-3.2432,-3.2432,-3.2305,-3.2168,-3.2168,-3.2744,-3.3205,-3.3205,-3.3931,-3.4782,-3.5474,-3.6275,-3.7095,-3.7766,-3.8323,-3.8551,-3.7984,-3.9026,-3.9934,-3.9934,-4.0126,-4.0379,-4.0691,-4.1156,-4.1705,-4.2375,-4.3394,-4.4152,-4.4479,-4.4587,-4.4804,-4.5355,-4.5688,-4.5914,-4.5914,-4.6258,-4.6469,-4.6469,-4.6469,-4.6469,-4.6469,-4.6469,-4.6469,-4.6469,-4.6469,-4.6469,-0.0429,0.0,0.0,0.0,0.0,0.0,0.0,0.0,0.0,0.0,0.0,0.0,0.0,0.0,0.0,0.0,0.0,0.0,0.0,0.0,0.0,0.0,0.0,0.0,0.0,0.0,0.0,0.0,0.0,0.0,-1.48,-1.4931,-1.4931,-1.4931,-1.6152,-1.7396,-1.8418,-2.0329,-2.1669,-2.2692,-2.3323,-2.3559,-2.3567,-2.3647,-2.3684,-2.3691,-2.3779,-2.3815,-2.3815,-2.3815,-2.4825,-2.6331,-2.7452,-2.8818,-3.0335,-3.0568,-3.1285,-3.2168,-3.2168,-3.2168,-3.2168,-3.2168,-3.2168,-3.2289,-3.2512,-3.2312,-3.2103,-3.2455,-3.2135,-3.1936,-3.2286,-3.296,-3.3648,-3.3989,-3.4765,-3.5658,-3.6561,-3.6714,-3.7,-3.7868,-3.7986,-3.7986,-3.7986,-3.8767,-3.9393,-3.9393,-3.9513,-3.9852,-4.0449,-4.1262,-4.2038,-4.2894,-4.4279,-4.514,-4.514,-4.5368,-4.5808,-4.6469,-4.6469,-4.6469,-4.6469,-4.6469,-4.6469,-4.6469,-4.6469,-4.6469,-4.6469,-4.6469,-4.6469,-4.6469,-4.6469,-4.6469,0.0,0.0,0.0,0.6455,0.0,0.0,0.0,0.0,0.5906,0.0,0.0,0.0,0.0,0.0,0.0,0.0,0.0,0.0,0.0,0.0,0.0,0.0,0.0,0.0,0.0,0.0,0.0,0.0,0.0,0.0,-1.48,-1.4931,-1.4931,-1.4931,-1.6136,-1.6772,-1.6772,-1.9154,-2.0375,-2.0375,-2.1619,-2.2242,-2.225,-2.2542,-2.2674,-2.2689,-2.3003,-2.3142,-2.3142,-2.3142,-2.461,-2.6926,-2.7056,-2.8627,-3.1035,-3.1865,-3.2168,-3.2168,-3.2168,-3.2168,-3.2168,-3.2168,-3.2168,-3.2401,-3.3544,-3.2783,-3.1771,-3.2911,-3.215,-3.1151,-3.2393,-3.2727,-3.3058,-3.4155,-3.5268,-3.6157,-3.6254,-3.712,-3.7974,-3.7986,-3.7986,-3.7986,-3.7986,-3.8467,-3.8839,-3.8839,-3.9272,-3.9928,-4.0669,-4.1333,-4.2313,-4.3939,-4.4677,-4.514,-4.514,-4.5914,-4.6469,-4.6469,-4.6469,-4.6469,-4.6469,-4.6469,-4.6469,-4.6469,-4.6469,-4.6469,-4.6469,-4.6469,-4.6469,-4.6469,-4.6469,-4.6469,0.0,0.0,0.7667,0.586,0.0,0.0,0.0,0.0,0.0,0.0,0.0,0.0,0.0,0.0,0.0,0.0,0.0,0.0,0.0,0.0,0.0,0.0,0.0,0.0,0.0,0.0,0.0,0.0,0.0,0.0,0.0,-1.4539,-1.4609,-1.4737,-1.5046,-1.5686,-1.6518,-1.8153,-1.9338,-2.0335,-2.1562,-2.2184,-2.2184,-2.2286,-2.233,-2.2337,-2.2447,-2.2498,-2.262,-2.3308,-2.4867,-2.6764,-2.7594,-2.9071,-3.0928,-3.1221,-3.1318,-3.1318,-3.1318,-3.1898,-3.258,-3.258,-3.3025,-3.3696,-3.4133,-3.3798,-3.3454,-3.3898,-3.3678,-3.3335,-3.3674,-3.4458,-3.5124,-3.5454,-3.6557,-3.7429,-3.7429,-3.7761,-3.7986,-3.7986,-3.7986,-3.7986,-3.7986,-3.8142,-3.8262,-3.8262,-3.8834,-3.9599,-4.0157,-4.1432,-4.2775,-4.4046,-4.4981,-4.5603,-4.5993,-4.6364,-4.6469,-4.6469,-4.6469,-4.6469,-4.6469,-4.6469,-4.6469,-4.6469,-4.6469,-4.6469,-4.6469,-4.6469,-4.6469,-4.6469,-4.6469,-4.6469,0.3052,0.6188,0.0,0.6881,0.6206,0.0,0.7134,0.0,0.0,0.0,0.0,0.0,0.0,0.0,0.0,0.0,0.0,0.0,0.0,0.5915,0.0,0.0,0.0,0.0,0.0,0.0,0.0,0.0,0.0,0.0,0.0,0.0,-1.4341,-1.427,-1.4323,-1.4712,-1.5546,-1.715,-1.8317,-1.9289,-2.0991,-2.184,-2.184,-2.1957,-2.2008,-2.2015,-2.2132,-2.2184,-2.2296,-2.3448,-2.485,-2.636,-2.7651,-2.9075,-3.0664,-3.083,-3.0889,-3.0889,-3.0889,-3.1672,-3.2685,-3.2685,-3.3459,-3.4447,-3.4891,-3.4781,-3.448,-3.5102,-3.4913,-3.4491,-3.5102,-3.581,-3.634,-3.6785,-3.7429,-3.7986,-3.7986,-3.7986,-3.7986,-3.7986,-3.7986,-3.7986,-3.7986,-3.8185,-3.8396,-3.8396,-3.8921,-3.9553,-4.0436,-4.18,-4.2933,-4.397,-4.4994,-4.5831,-4.6428,-4.6469,-4.6469,-4.6469,-4.6469,-4.6469,-4.6469,-4.6469,-4.6374,-4.6157,-4.636,-4.636,-4.6157,-4.6374,-4.6469,-4.6469,-4.6469,-4.6469]},{"header":{"parameterUnit":"m.s-1","parameterCategory":1,"la1":30.6,"la2":29.2853,"lo1":-89.7004,"lo2":-87.6739,"dy":0.0162,"dx":0.0183,"nx":112,"ny":82,"refTime":"2023-04-16T06:00:00:Z","depth":0,"parameterNumber":3,"parameterNumberName":"V-component_of_WINDS"},"data":[0.0,0.0,0.0,0.0,0.0,0.0,0.0,0.0,0.0,0.0,0.0,0.0,0.0,0.0,0.0,0.0,0.0,0.0,0.0,0.0,0.0,0.0,0.0,0.0,0.0,0.0,0.0,0.0,0.0,0.0,0.0,0.0,0.0,0.0,0.0,0.0,0.0,0.0,0.0,0.0,0.0,0.0,0.0,0.0,0.0,0.0,0.0,0.0,0.0,0.0,0.0,0.0,0.0,0.0,0.0,0.0,0.0,0.0,0.0,0.0,0.0,0.0,0.0,0.0,0.0,0.0,0.0,0.0,0.0,0.0,0.0,0.0,0.0,0.0,0.0,0.0,0.0,0.0,0.0,0.0,0.0,0.0,0.0,0.0,0.0,0.0,0.0,0.0,0.0,0.0,0.0,-3.5581,-3.3342,-3.1381,-3.0099,-2.9343,-2.9237,-2.9994,0.0,0.0,0.0,0.0,0.0,0.0,0.0,0.0,0.0,0.0,0.0,0.0,0.0,0.0,0.0,0.0,0.0,0.0,0.0,0.0,0.0,0.0,0.0,0.0,0.0,0.0,0.0,0.0,0.0,0.0,0.0,0.0,0.0,0.0,0.0,0.0,0.0,0.0,0.0,0.0,0.0,0.0,0.0,0.0,0.0,0.0,0.0,0.0,0.0,0.0,0.0,0.0,0.0,0.0,0.0,0.0,0.0,0.0,0.0,0.0,0.0,0.0,0.0,0.0,0.0,0.0,0.0,0.0,0.0,0.0,0.0,0.0,0.0,0.0,0.0,0.0,0.0,0.0,0.0,0.0,0.0,0.0,0.0,0.0,0.0,0.0,0.0,0.0,0.0,0.0,0.0,0.0,0.0,0.0,0.0,0.0,0.0,0.0,0.0,0.0,0.0,0.0,0.0,0.0,-3.62,-3.413,-3.2566,-3.1176,-3.0099,-2.9889,-2.9889,-2.9994,0.0,0.0,0.0,0.0,0.0,0.0,0.0,0.0,0.0,0.0,0.0,0.0,0.0,0.0,0.0,0.0,0.0,0.0,0.0,0.0,0.0,0.0,0.0,0.0,0.0,0.0,0.0,0.0,0.0,0.0,0.0,0.0,0.0,0.0,0.0,0.0,0.0,0.0,0.0,0.0,0.0,0.0,0.0,0.0,0.0,0.0,0.0,0.0,0.0,0.0,0.0,0.0,0.0,0.0,0.0,0.0,0.0,0.0,0.0,0.0,0.0,0.0,0.0,0.0,0.0,0.0,0.0,0.0,0.0,0.0,0.0,0.0,0.0,0.0,0.0,0.0,0.0,0.0,0.0,0.0,0.0,0.0,0.0,0.0,0.0,0.0,0.0,0.0,0.0,0.0,0.0,0.0,0.0,0.0,0.0,0.0,0.0,0.0,0.0,0.0,0.0,0.0,0.0,-3.816,-3.6615,-3.4654,-3.3365,-3.2174,-3.0981,-3.0287,-3.0088,-3.0391,-3.1757,0.0,0.0,0.0,0.0,0.0,0.0,0.0,0.0,0.0,0.0,0.0,0.0,0.0,0.0,0.0,0.0,0.0,0.0,0.0,0.0,0.0,0.0,0.0,0.0,0.0,0.0,0.0,0.0,0.0,0.0,0.0,0.0,0.0,0.0,0.0,0.0,0.0,0.0,0.0,0.0,0.0,0.0,0.0,0.0,0.0,0.0,0.0,0.0,0.0,0.0,0.0,0.0,0.0,0.0,0.0,0.0,0.0,0.0,0.0,0.0,0.0,0.0,0.0,0.0,0.0,0.0,0.0,0.0,0.0,0.0,0.0,0.0,0.0,0.0,0.0,0.0,0.0,0.0,0.0,0.0,0.0,0.0,0.0,0.0,0.0,0.0,0.0,0.0,0.0,0.0,0.0,0.0,0.0,0.0,0.0,0.0,0.0,0.0,0.0,0.0,0.0,0.0,-3.7926,-3.6922,-3.5547,-3.435,-3.3055,-3.1779,-3.0692,-3.0297,-3.1084,-3.2666,0.0,0.0,0.0,0.0,0.0,0.0,0.0,0.0,0.0,0.0,0.0,0.0,0.0,0.0,0.0,0.0,0.0,0.0,0.0,0.0,0.0,0.0,0.0,0.0,0.0,0.0,0.0,0.0,0.0,0.0,0.0,0.0,0.0,0.0,0.0,0.0,0.0,0.0,0.0,0.0,0.0,0.0,0.0,0.0,0.0,0.0,0.0,0.0,0.0,0.0,0.0,0.0,0.0,0.0,0.0,0.0,0.0,0.0,0.0,0.0,0.0,0.0,0.0,0.0,0.0,0.0,0.0,0.0,0.0,0.0,0.0,0.0,0.0,0.0,0.0,0.0,0.0,0.0,0.0,0.0,0.0,0.0,0.0,0.0,0.0,0.0,0.0,0.0,0.0,0.0,0.0,0.0,0.0,0.0,0.0,0.0,0.0,0.0,0.0,0.0,0.0,0.0,-3.8031,-3.7108,-3.5986,-3.4521,-3.3155,-3.2072,-3.0785,-3.0588,-3.1869,-3.2955,0.0,0.0,0.0,0.0,0.0,0.0,0.0,0.0,0.0,0.0,0.0,0.0,0.0,0.0,0.0,0.0,0.0,0.0,0.0,0.0,0.0,0.0,0.0,0.0,0.0,0.0,0.0,0.0,0.0,0.0,0.0,0.0,0.0,0.0,0.0,0.0,0.0,0.0,0.0,0.0,0.0,0.0,0.0,0.0,0.0,0.0,0.0,0.0,0.0,0.0,0.0,0.0,0.0,0.0,0.0,0.0,0.0,0.0,0.0,0.0,0.0,0.0,0.0,0.0,0.0,0.0,0.0,0.0,0.0,0.0,0.0,0.0,0.0,0.0,0.0,0.0,0.0,0.0,0.0,0.0,0.0,0.0,0.0,0.0,0.0,0.0,0.0,0.0,0.0,0.0,0.0,0.0,0.0,0.0,0.0,0.0,0.0,0.0,0.0,0.0,0.0,0.0,-3.8535,-3.7529,0.0,-3.5722,-3.4569,-3.4504,-3.2911,-3.2503,-3.3925,0.0,0.0,0.0,0.0,0.0,0.0,0.0,0.0,0.0,0.0,0.0,0.0,0.0,0.0,0.0,0.0,0.0,0.0,0.0,0.0,0.0,0.0,0.0,0.0,0.0,0.0,0.0,0.0,0.0,0.0,0.0,0.0,0.0,0.0,0.0,0.0,0.0,0.0,0.0,0.0,0.0,0.0,0.0,0.0,0.0,0.0,0.0,0.0,0.0,0.0,0.0,0.0,0.0,0.0,0.0,0.0,0.0,0.0,0.0,0.0,0.0,0.0,0.0,0.0,0.0,0.0,0.0,0.0,0.0,0.0,0.0,0.0,0.0,0.0,0.0,0.0,0.0,0.0,0.0,0.0,0.0,0.0,0.0,0.0,0.0,0.0,0.0,0.0,0.0,0.0,0.0,0.0,0.0,0.0,0.0,0.0,0.0,0.0,0.0,0.0,0.0,0.0,-4.0437,-3.8906,-3.8078,0.0,-3.6801,-3.564,-3.6123,-3.4309,-3.3782,-3.5533,0.0,0.0,0.0,0.0,0.0,0.0,0.0,0.0,0.0,0.0,0.0,0.0,0.0,0.0,0.0,0.0,0.0,0.0,0.0,0.0,0.0,0.0,0.0,0.0,0.0,0.0,0.0,0.0,0.0,0.0,0.0,0.0,0.0,0.0,0.0,0.0,0.0,0.0,0.0,0.0,0.0,0.0,0.0,0.0,0.0,0.0,0.0,0.0,0.0,0.0,0.0,0.0,0.0,0.0,0.0,0.0,0.0,0.0,0.0,0.0,0.0,0.0,0.0,0.0,0.0,0.0,0.0,0.0,0.0,0.0,0.0,0.0,0.0,0.0,0.0,0.0,0.0,0.0,0.0,0.0,0.0,0.0,0.0,0.0,0.0,0.0,0.0,0.0,0.0,0.0,0.0,0.0,0.0,0.0,0.0,0.0,0.0,0.0,0.0,0.0,0.0,0.0,-4.0155,-3.9256,-3.8945,-3.9547,-3.768,-3.6464,-3.6476,-3.4425,-3.411,0.0,0.0,0.0,0.0,0.0,0.0,0.0,0.0,0.0,0.0,0.0,0.0,0.0,0.0,0.0,0.0,0.0,0.0,0.0,0.0,0.0,0.0,0.0,0.0,0.0,0.0,0.0,0.0,0.0,0.0,0.0,0.0,0.0,0.0,0.0,0.0,0.0,0.0,0.0,0.0,0.0,0.0,0.0,0.0,0.0,0.0,0.0,0.0,0.0,0.0,0.0,0.0,0.0,0.0,0.0,0.0,0.0,0.0,0.0,0.0,0.0,0.0,0.0,0.0,0.0,0.0,0.0,0.0,0.0,0.0,0.0,0.0,0.0,0.0,0.0,0.0,0.0,0.0,0.0,0.0,0.0,0.0,0.0,0.0,0.0,0.0,0.0,0.0,0.0,0.0,0.0,0.0,0.0,0.0,0.0,0.0,0.0,0.0,0.0,0.0,0.0,0.0,0.0,-4.0767,-3.9879,-3.956,-4.0122,-3.9054,-3.8301,-3.8069,-3.6943,-3.6638,-3.7714,0.0,0.0,0.0,0.0,0.0,0.0,0.0,0.0,0.0,0.0,0.0,0.0,0.0,0.0,0.0,0.0,0.0,0.0,0.0,0.0,0.0,0.0,0.0,0.0,0.0,0.0,0.0,0.0,0.0,0.0,0.0,0.0,0.0,0.0,0.0,0.0,0.0,0.0,0.0,0.0,0.0,0.0,0.0,0.0,0.0,0.0,0.0,0.0,0.0,0.0,0.0,0.0,0.0,0.0,0.0,0.0,0.0,0.0,0.0,0.0,0.0,0.0,0.0,0.0,0.0,0.0,0.0,0.0,0.0,0.0,0.0,0.0,0.0,0.0,0.0,0.0,0.0,0.0,0.0,0.0,0.0,0.0,0.0,0.0,0.0,0.0,0.0,0.0,0.0,0.0,0.0,0.0,0.0,0.0,0.0,0.0,0.0,0.0,0.0,0.0,0.0,0.0,-4.0831,-4.0298,-4.0148,-4.071,-4.0066,-3.9487,-3.9299,-3.8477,-3.8161,-3.8502,0.0,0.0,0.0,0.0,0.0,0.0,0.0,0.0,0.0,0.0,0.0,0.0,0.0,0.0,0.0,0.0,0.0,0.0,0.0,0.0,0.0,0.0,0.0,0.0,0.0,0.0,0.0,0.0,0.0,0.0,0.0,0.0,0.0,0.0,0.0,0.0,0.0,0.0,0.0,0.0,0.0,0.0,0.0,0.0,0.0,0.0,0.0,0.0,0.0,0.0,0.0,0.0,0.0,0.0,0.0,0.0,0.0,0.0,0.0,0.0,0.0,0.0,0.0,0.0,0.0,0.0,0.0,0.0,0.0,0.0,0.0,0.0,0.0,0.0,0.0,0.0,0.0,0.0,0.0,0.0,0.0,0.0,0.0,0.0,0.0,0.0,0.0,0.0,0.0,0.0,0.0,0.0,0.0,0.0,0.0,0.0,0.0,0.0,0.0,0.0,0.0,0.0,-4.0799,-4.0488,-4.071,-4.1259,-4.0694,-4.0173,-4.007,-3.9337,-3.8896,-3.8896,0.0,0.0,0.0,0.0,0.0,0.0,0.0,0.0,0.0,0.0,0.0,0.0,0.0,0.0,0.0,0.0,0.0,0.0,0.0,0.0,0.0,0.0,0.0,0.0,0.0,0.0,0.0,0.0,0.0,0.0,0.0,0.0,0.0,0.0,0.0,0.0,0.0,0.0,0.0,0.0,0.0,0.0,0.0,0.0,0.0,0.0,0.0,0.0,0.0,0.0,0.0,0.0,0.0,0.0,0.0,0.0,0.0,0.0,0.0,0.0,-4.7164,0.0,0.0,0.0,0.0,0.0,0.0,0.0,0.0,0.0,0.0,0.0,0.0,0.0,0.0,0.0,0.0,0.0,0.0,0.0,0.0,0.0,0.0,0.0,0.0,0.0,0.0,0.0,0.0,0.0,0.0,0.0,0.0,0.0,0.0,0.0,0.0,0.0,0.0,0.0,0.0,0.0,-4.2245,-4.1584,-4.1167,-4.1298,-4.111,-4.0795,-4.0173,-3.9968,-3.9737,-3.9403,-3.9853,0.0,0.0,0.0,0.0,0.0,0.0,0.0,0.0,0.0,0.0,0.0,0.0,0.0,0.0,0.0,0.0,0.0,0.0,0.0,0.0,0.0,0.0,0.0,0.0,0.0,0.0,0.0,0.0,0.0,0.0,0.0,0.0,0.0,0.0,0.0,0.0,0.0,0.0,0.0,0.0,0.0,0.0,0.0,0.0,0.0,0.0,0.0,0.0,0.0,0.0,0.0,0.0,0.0,0.0,0.0,0.0,0.0,0.0,0.0,0.0,-4.7473,0.0,0.0,0.0,0.0,0.0,0.0,0.0,0.0,0.0,0.0,0.0,0.0,0.0,0.0,0.0,0.0,0.0,0.0,0.0,0.0,0.0,0.0,0.0,0.0,0.0,0.0,0.0,0.0,0.0,0.0,0.0,0.0,0.0,0.0,0.0,0.0,0.0,0.0,0.0,0.0,-4.2195,-4.1584,-4.1311,-4.1311,-4.1311,-4.111,-4.0694,-4.0694,-4.0478,-3.984,-4.0377,0.0,0.0,0.0,0.0,0.0,0.0,0.0,0.0,0.0,0.0,0.0,0.0,0.0,0.0,0.0,0.0,0.0,0.0,0.0,0.0,0.0,0.0,0.0,0.0,0.0,0.0,0.0,0.0,0.0,0.0,0.0,0.0,0.0,0.0,0.0,0.0,0.0,0.0,0.0,0.0,0.0,0.0,0.0,0.0,0.0,0.0,0.0,0.0,0.0,0.0,0.0,0.0,0.0,-4.8973,-4.8495,-4.7738,-4.7577,-4.7522,-4.7497,-4.7494,-4.7184,-4.6791,0.0,0.0,0.0,0.0,0.0,0.0,0.0,0.0,0.0,0.0,0.0,0.0,0.0,0.0,0.0,0.0,0.0,0.0,0.0,0.0,0.0,0.0,0.0,0.0,0.0,-4.18,-4.2424,0.0,0.0,0.0,0.0,0.0,0.0,0.0,0.0,0.0,0.0,0.0,0.0,-4.1782,-4.1411,-4.1311,-4.1311,-4.1311,-4.1311,-4.1311,-4.1311,-4.101,-4.0389,-4.0909,-4.101,0.0,0.0,0.0,0.0,0.0,0.0,0.0,0.0,0.0,0.0,0.0,0.0,0.0,0.0,0.0,0.0,0.0,0.0,0.0,0.0,0.0,0.0,0.0,0.0,0.0,0.0,0.0,0.0,0.0,0.0,0.0,0.0,-5.1854,-5.12,0.0,0.0,0.0,0.0,0.0,0.0,0.0,0.0,0.0,0.0,0.0,0.0,0.0,-5.1966,-5.19,-5.1198,-5.0806,-5.0775,-4.9358,-4.8615,-4.8471,-4.7683,-4.7302,-4.7332,-4.7312,0.0,-4.7369,-4.7611,0.0,0.0,0.0,0.0,0.0,0.0,0.0,0.0,0.0,0.0,0.0,0.0,0.0,0.0,0.0,0.0,0.0,0.0,0.0,0.0,0.0,0.0,-4.1465,-4.1287,-4.1392,-4.1458,0.0,-4.2105,-4.3026,-4.3873,-4.331,0.0,0.0,0.0,0.0,0.0,0.0,0.0,-4.2514,-4.1868,-4.1311,-4.1311,-4.1311,-4.1311,-4.1311,-4.1311,-4.1211,-4.111,-4.1211,-4.1211,-4.111,-4.1211,0.0,0.0,0.0,0.0,0.0,0.0,0.0,0.0,0.0,0.0,0.0,0.0,0.0,0.0,0.0,0.0,0.0,0.0,0.0,0.0,0.0,0.0,0.0,0.0,0.0,0.0,0.0,0.0,0.0,-5.4446,-5.3558,-5.2857,-5.2455,-5.221,0.0,0.0,0.0,0.0,0.0,0.0,0.0,0.0,0.0,-5.1672,-5.1672,-5.1417,-5.0935,-5.0538,-5.0151,-4.9678,-4.8969,-4.8324,-4.7864,-4.7467,-4.7309,-4.7309,-4.7309,-4.7302,-4.744,-4.7911,-4.8105,-4.8277,0.0,0.0,0.0,0.0,-4.8904,-4.818,-4.8101,-4.7547,0.0,-4.596,0.0,0.0,0.0,0.0,0.0,0.0,0.0,0.0,0.0,0.0,-4.1954,-4.1411,-4.1311,-4.1311,-4.1311,-4.1683,-4.2052,0.0,-4.2248,-4.2625,-4.4577,0.0,0.0,0.0,0.0,0.0,-4.1954,-4.1597,-4.1311,-4.1311,-4.1311,-4.1311,-4.1311,-4.1311,-4.1311,-4.1311,-4.1311,-4.1311,-4.1311,-4.1311,-4.1967,0.0,0.0,0.0,0.0,0.0,0.0,0.0,0.0,0.0,0.0,0.0,0.0,0.0,0.0,0.0,0.0,0.0,0.0,0.0,0.0,0.0,0.0,0.0,0.0,0.0,0.0,0.0,0.0,-5.5658,-5.4887,-5.4244,-5.3501,-5.292,0.0,0.0,0.0,0.0,0.0,0.0,-5.257,-5.2445,-5.2142,-5.1434,-5.1434,-5.1102,-5.0445,-5.0445,-5.0057,-4.9197,-4.9197,-4.8656,-4.7624,-4.7624,-4.7538,-4.7309,-4.7309,-4.7309,-4.7381,-4.8019,-4.8256,-4.8339,-4.9181,-4.9343,-4.9181,-4.9423,-4.8953,-4.8256,-4.8256,-4.7664,-4.6829,-4.6062,0.0,-4.5235,-4.4205,0.0,0.0,0.0,0.0,-4.364,-4.2709,-4.2431,-4.2235,-4.1498,-4.1311,-4.1311,-4.1311,-4.1311,-4.1311,0.0,-4.1311,-4.1881,-4.3654,0.0,0.0,0.0,0.0,-4.215,-4.1411,-4.1311,-4.1311,-4.1311,-4.1311,-4.1311,-4.1311,-4.1311,-4.1311,-4.1311,-4.1311,-4.1311,-4.1311,-4.1311,-4.1868,-4.3163,0.0,0.0,0.0,0.0,0.0,0.0,0.0,0.0,0.0,0.0,0.0,0.0,0.0,0.0,0.0,0.0,0.0,0.0,0.0,0.0,0.0,0.0,0.0,0.0,0.0,0.0,0.0,0.0,0.0,-5.4396,-5.3635,0.0,0.0,0.0,0.0,-5.2624,-5.2624,-5.257,-5.2445,-5.2373,-5.2373,-5.2302,-5.2302,-5.2302,-5.2302,-5.2302,-5.1818,-5.0951,-5.0951,-5.0088,-4.8573,-4.8573,-4.8103,-4.7309,-4.7309,-4.7309,-4.7309,-4.7381,-4.7396,-4.7467,-4.8324,-4.8172,-4.7553,-4.8339,-4.8088,-4.7396,-4.7396,-4.6726,-4.5869,-4.5779,-4.513,-4.4219,-4.3163,-4.3545,0.0,0.0,-4.2889,-4.2598,-4.1683,-4.1411,-4.1411,-4.1311,-4.1311,-4.1311,-4.1311,-4.1311,-4.1311,0.0,-4.1311,-4.1683,-4.2695,0.0,-4.1683,-4.2695,-4.2052,-4.1311,-4.1311,-4.1311,-4.1311,-4.1311,-4.1311,-4.1311,-4.1311,-4.1311,-4.1311,-4.1311,-4.1311,-4.1311,-4.1311,-4.1311,-4.2248,-4.4219,-4.4312,0.0,0.0,0.0,0.0,0.0,0.0,0.0,0.0,0.0,0.0,0.0,0.0,0.0,0.0,0.0,0.0,0.0,0.0,0.0,0.0,0.0,0.0,0.0,0.0,0.0,0.0,0.0,0.0,-5.4199,-5.3602,0.0,-5.3041,-5.3041,-5.3041,-5.2972,-5.2834,-5.2764,-5.2711,-5.2948,-5.3036,-5.3036,-5.35,-5.3511,-5.2954,-5.2954,-5.2556,-5.1662,-5.1662,-5.1341,-5.0771,-5.0173,-4.9766,-4.9438,-4.8802,-4.8566,-4.8566,-4.8566,-4.8072,-4.7309,-4.7624,-4.7538,-4.7354,-4.8091,-4.817,-4.7997,-4.8416,-4.8358,-4.7984,-4.7318,-4.6454,-4.5493,-4.5204,-4.4802,-4.4425,-4.4143,-4.3473,-4.2893,-4.2511,-4.2409,-4.2409,-4.2409,-4.2409,-4.2409,-4.2409,-4.2409,-4.2409,-4.2409,-4.1821,-4.1584,-4.2598,-4.1967,-4.1683,-4.2598,-4.1954,-4.1311,-4.1311,-4.1311,-4.1311,-4.1311,-4.1311,-4.1311,-4.1311,-4.1311,-4.1311,-4.1311,-4.1311,-4.1311,-4.1311,-4.1311,-4.1967,-4.3259,-4.3937,-4.4961,0.0,0.0,0.0,0.0,0.0,0.0,0.0,0.0,0.0,0.0,0.0,0.0,0.0,0.0,0.0,0.0,0.0,0.0,0.0,0.0,0.0,0.0,0.0,0.0,0.0,0.0,-5.4724,-5.4576,-5.4228,-5.3986,-5.3883,-5.3936,-5.4005,-5.3936,-5.3797,-5.364,-5.3569,-5.3678,-5.3781,-5.3781,-5.4262,-5.427,-5.3705,-5.3705,-5.338,-5.2813,-5.2813,-5.2733,-5.2412,-5.1476,-5.0886,-5.0543,-4.9672,-4.9269,-4.9269,-4.9269,-4.876,-4.7967,-4.7967,-4.7967,-4.8012,-4.8461,-4.8626,-4.8686,-4.9119,-4.9269,-4.9073,-4.7709,-4.7033,-4.6636,-4.5565,-4.487,-4.4556,-4.4683,-4.409,-4.3605,-4.3988,-4.3797,-4.3502,-4.3502,-4.3308,-4.3023,-4.3023,-4.3023,-4.3023,-4.3023,-4.2409,-4.2075,-4.2724,-4.2364,-4.2075,-4.2738,-4.2264,-4.1886,-4.1886,-4.1886,-4.1886,-4.1886,-4.1886,-4.1886,-4.1886,-4.1886,-4.1886,-4.1886,-4.1703,-4.1598,-4.1598,-4.1689,-4.2248,-4.3259,-4.4591,-4.5613,-4.6344,0.0,0.0,0.0,0.0,0.0,0.0,0.0,0.0,0.0,0.0,0.0,0.0,0.0,0.0,0.0,0.0,0.0,0.0,0.0,0.0,0.0,0.0,0.0,-5.5574,-5.5455,-5.5503,-5.5484,-5.5595,-5.5711,-5.5733,-5.5716,-5.5629,-5.5383,-5.524,-5.5024,-5.4805,-5.4618,-5.4543,-5.4543,-5.4576,-5.4593,-5.4593,-5.4593,-5.4593,-5.4593,-5.4593,-5.4185,-5.3288,-5.2379,-5.1455,-5.0605,-4.9732,-4.9329,-4.9329,-4.9329,-4.9329,-4.9329,-4.9284,-4.9269,-4.9269,-4.9284,-4.9314,-4.9329,-4.9329,-4.9329,-4.9027,-4.6967,-4.6995,-4.7295,-4.4157,-4.3953,-4.4711,-4.4711,-4.4711,-4.4911,-4.6,-4.5508,-4.4711,-4.461,-4.3837,-4.3075,-4.3179,-4.3075,-4.3075,-4.3179,-4.3179,-4.3062,-4.3023,-4.3023,-4.3023,-4.301,-4.3023,0.0,-4.3023,-4.3127,-4.3114,-4.3114,-4.3114,-4.3127,-4.301,-4.3023,-4.3023,-4.3023,-4.25,-4.22,-4.2289,-4.2695,-4.3314,-4.434,-4.6299,-4.7324,-4.7294,0.0,0.0,0.0,0.0,0.0,0.0,0.0,0.0,0.0,0.0,0.0,0.0,0.0,0.0,0.0,0.0,0.0,0.0,0.0,0.0,0.0,0.0,-5.7108,-5.6413,-5.5891,-5.5672,-5.5668,-5.57,-5.568,-5.5716,-5.5716,-5.5646,-5.5629,-5.5329,-5.5096,-5.5024,-5.5173,-5.5322,-5.5322,-5.5819,-5.61,-5.61,-5.61,-5.61,-5.61,-5.61,-5.5665,-5.4729,-5.3828,-5.2895,-5.2036,-5.1106,-5.0676,-5.0676,-5.0676,-5.0676,-5.0586,-4.9628,-4.9269,-4.9314,-4.9793,-5.0272,-5.0676,-5.0676,-5.0676,-5.0583,-4.9976,-5.0164,-5.0273,-4.8827,-4.79,-4.7273,-4.668,-4.6182,-4.5782,-4.5259,-4.6065,-4.6869,-4.6079,-4.5678,-4.5678,-4.6476,-4.5364,-4.4665,-4.6257,-4.5975,-4.52,-4.4326,-4.3502,-4.3308,-4.4077,-4.4178,0.0,-4.4178,-4.487,-4.5354,-4.5354,-4.5354,-4.507,-4.428,-4.4178,-4.3784,-4.3023,-4.2879,-4.3174,-4.3936,-4.4062,-4.4747,-4.6045,-4.7362,-4.8106,0.0,0.0,0.0,0.0,0.0,0.0,0.0,0.0,0.0,0.0,0.0,0.0,0.0,0.0,0.0,0.0,0.0,0.0,0.0,0.0,0.0,0.0,-5.8862,-5.8042,-5.7697,-5.6781,-5.6173,-5.6173,-5.6444,-5.663,-5.663,-5.663,-5.663,-5.663,-5.6253,-5.6017,-5.6017,-5.6062,-5.6067,-5.6067,-5.6481,-5.668,-5.668,-5.668,-5.668,-5.668,-5.668,-5.6414,-5.5829,-5.4569,-5.3719,0.0,-5.1742,-5.1214,-5.1214,-5.1214,-5.1214,0.0,0.0,0.0,0.0,0.0,-5.0885,-5.1214,-5.1308,-5.1401,-5.1308,-5.0887,-5.1278,-5.1494,-5.0042,-4.9317,-4.8979,-4.841,-4.8007,-4.7587,-4.6971,-4.7369,-4.7777,-4.6687,-4.6374,-4.6478,-4.6556,-4.6347,-4.636,-4.7177,-4.7177,0.0,-4.674,-4.5825,-4.5329,-4.5898,-4.5999,-4.5999,-4.5999,-4.6614,-4.701,-4.701,-4.701,-4.6699,-4.61,-4.5999,0.0,0.0,0.0,-4.5144,-4.5958,-4.5944,0.0,0.0,0.0,-4.8756,-4.8925,0.0,0.0,0.0,-4.974,-5.0477,0.0,0.0,0.0,0.0,0.0,0.0,0.0,0.0,0.0,0.0,0.0,0.0,0.0,0.0,0.0,0.0,-6.0041,-5.9145,-5.9195,-5.7946,-5.6989,-5.6917,-5.7492,-5.7881,-5.7881,-5.7881,-5.7881,-5.7881,-5.7514,-5.7289,-5.7289,0.0,0.0,0.0,0.0,-5.668,-5.668,-5.668,-5.668,-5.668,-5.668,-5.6603,-5.6352,-5.4736,-5.3907,-5.3648,-5.2002,-5.1214,-5.1214,-5.1214,-5.1214,-5.1214,-5.1214,-5.1214,-5.1214,-5.1308,-5.1308,-5.1308,-5.1587,0.0,0.0,-5.0748,-5.1169,-5.1602,-4.9303,-4.9288,-4.9887,-4.9611,-4.9513,-4.9625,-4.9415,-4.8894,-4.808,-4.6985,-4.6777,-4.6478,-4.5648,-4.6764,-4.7777,-4.7088,-4.7573,-4.8482,-4.9611,-4.8795,-4.808,-4.8181,-4.8181,-4.8181,-4.8181,-4.8282,-4.8382,-4.8382,0.0,0.0,-4.8181,-4.8181,-4.8181,-4.7979,-4.7559,-4.7612,-4.797,-4.8129,-4.858,-4.9374,-4.9374,-4.9344,-4.9269,-4.876,-4.8955,-4.9651,-4.9768,-5.0352,0.0,0.0,0.0,0.0,0.0,0.0,0.0,0.0,0.0,0.0,0.0,0.0,0.0,0.0,0.0,-6.1822,-6.1163,-6.0388,-5.9885,-5.9042,-5.8306,-5.7734,-5.7797,-5.7881,-5.7881,-5.7881,-5.7881,-5.7881,-5.7514,-5.7289,-5.7289,-5.6911,-5.668,-5.668,-5.668,-5.668,-5.668,-5.668,-5.668,-5.668,0.0,0.0,-5.4485,-5.4163,-5.3299,-5.2002,-5.1665,-5.1494,-5.1494,-5.1494,-5.1494,-5.1494,-5.1494,-5.1401,-5.1214,-5.171,-5.1695,-5.1587,-5.1787,-5.1895,-5.1895,-5.1479,-5.168,-5.1803,-5.0456,-5.0028,0.0,-4.919,-4.9303,-4.9415,-4.8482,-4.9401,-5.0316,-4.9219,-4.9007,-4.9106,-4.9805,-4.888,-4.8482,-4.9999,-4.9708,-4.9611,-5.0713,-4.9288,-4.8282,-4.9205,-4.9317,-4.9317,-4.9317,-5.0013,-5.0603,-5.0603,-5.0603,-5.0206,-4.9401,-4.9317,-4.8894,-4.808,-4.8681,-4.9184,-4.9262,-5.0044,-5.04,-5.0062,-5.0047,-4.9793,-4.9269,-4.9858,-5.0273,-5.0398,-4.9987,-5.0352,0.0,0.0,0.0,0.0,0.0,0.0,0.0,0.0,0.0,0.0,0.0,-6.2114,0.0,0.0,-6.206,-6.2168,-6.1221,-6.0406,-6.0156,-5.9113,-5.8263,-5.7954,-5.7881,-5.7881,-5.7881,-5.7881,-5.7881,-5.7881,-5.7588,-5.7439,-5.7289,-5.6987,-5.6834,-5.668,-5.668,-5.6757,-5.6834,-5.6757,-5.6757,-5.6834,-5.6757,-5.6257,-5.5328,-5.4501,-5.3734,-5.2874,-5.2124,-5.1787,-5.1787,-5.1787,-5.1695,-5.1572,-5.1849,-5.1772,-5.1602,-5.1895,-5.1895,-5.1787,-5.2063,-5.2155,-5.2139,-5.1941,-5.2048,-5.2048,-5.1308,-5.0917,-5.0683,-5.011,-5.0206,-5.011,-4.9106,-4.9611,-5.011,-4.9092,-4.9205,-4.9611,-4.9596,-4.9596,-4.9805,-5.0316,-5.0412,-5.0618,-5.112,-5.0302,-4.9805,-5.0316,-5.0412,-5.0412,-5.0412,-5.0917,-5.1214,-5.1214,-5.1214,-5.1011,-5.0427,-5.0412,-5.0206,-4.9596,-5.011,-5.0412,-5.0412,-5.0917,-5.1065,-5.0735,-5.1151,-5.1243,-5.0924,-5.1497,-5.1994,-5.2463,-5.1822,-5.1714,0.0,0.0,0.0,0.0,0.0,0.0,0.0,0.0,-6.2203,-6.2257,-6.2257,-6.2257,-6.2257,-6.2114,-6.2114,-6.231,-6.1261,-6.0362,-6.0202,-5.9113,-5.8226,-5.7954,-5.7881,-5.7881,-5.7881,-5.7881,-5.7881,-5.7881,-5.7735,-5.7514,-5.7364,-5.7139,-5.6987,-5.6834,-5.6834,-5.6911,-5.7063,-5.6911,-5.6911,-5.6987,-5.6834,-5.6663,-5.6414,-5.5001,-5.4248,-5.4078,-5.2652,-5.2078,-5.2078,-5.1987,-5.1895,-5.1757,-5.2124,-5.2231,-5.2185,-5.2185,-5.2078,-5.2078,-5.2306,-5.2397,-5.2397,-5.2306,-5.2306,-5.2215,-5.1772,-5.168,-5.1587,-5.1416,-5.1323,-5.112,-5.0316,-5.011,-4.9805,-4.8979,-4.9401,-4.9805,-4.8979,-5.0095,-5.1011,-5.011,-5.0618,-5.1214,-5.1214,-5.1214,-5.1214,-5.1214,-5.1214,-5.1214,-5.1214,-5.1214,-5.1214,-5.1214,-5.1214,-5.1214,-5.1214,-5.1214,-5.1214,-5.1214,-5.1214,-5.1214,-5.1214,-5.1386,-5.1479,-5.1479,-5.2426,-5.2858,-5.2858,-5.3238,-5.3821,-5.447,-5.4157,-5.3579,-6.3221,-6.3443,-6.3356,-6.3288,-6.2713,-6.2203,0.0,0.0,-6.2257,-6.2362,-6.2362,-6.2362,-6.2362,-6.2257,-6.2203,-6.2203,-6.1987,-6.139,-6.0174,-5.9838,-5.9331,-5.801,-5.7881,-5.7881,-5.7881,-5.7881,-5.7881,-5.7881,-5.7735,-5.7588,-5.7588,-5.7364,-5.7289,-5.7214,-5.7214,-5.7214,-5.7289,-5.7214,-5.7139,-5.6987,-5.6987,-5.6553,-5.57,-5.4736,-5.4062,-5.3632,-5.2726,-5.2306,-5.2215,-5.2078,-5.2063,-5.2215,-5.2306,-5.2412,-5.2624,-5.2624,-5.2518,-5.2306,-5.2608,-5.2624,-5.2608,-5.2397,-5.2306,-5.2215,-5.2078,-5.1987,-5.1987,-5.1895,-5.1895,-5.1895,-5.1787,-5.1695,-5.1695,-5.1587,-5.1602,-5.1695,-5.1587,-5.1587,-5.1479,-5.1386,-5.1293,-5.1214,-5.1214,-5.1214,-5.1214,-5.1214,-5.1214,-5.1214,-5.1214,-5.1214,-5.1214,-5.1214,-5.1214,-5.1214,-5.1214,-5.1214,-5.1214,-5.1214,-5.1214,-5.1214,-5.1214,-5.1987,-5.2426,-5.2426,-5.3387,-5.3805,-5.3821,-5.464,-5.5101,-5.5183,-5.5965,-5.5703,-6.2707,-6.3206,-6.3554,0.0,-6.2515,-6.2362,-6.2397,-6.2449,-6.2449,-6.25,-6.25,-6.25,-6.25,-6.2344,-6.2257,0.0,-6.1841,-6.1257,-6.0772,-5.9949,-5.9163,-5.8511,-5.8458,-5.8334,-5.7954,-5.7881,-5.7881,-5.7881,-5.7808,-5.7735,-5.7588,-5.7514,-5.7439,-5.7289,-5.7289,-5.7364,-5.7439,-5.7364,-5.7289,-5.7364,-5.7214,-5.6954,-5.6536,-5.5312,-5.4078,-5.3098,-5.2683,-5.2412,-5.2306,-5.2337,-5.2337,-5.2306,-5.2503,-5.2608,-5.2713,-5.2713,-5.2608,-5.2518,-5.2624,-5.2713,-5.2624,-5.2397,-5.2306,-5.2306,-5.2078,-5.2002,-5.2002,-5.2002,-5.2002,-5.2002,-5.2002,-5.2002,-5.2002,-5.2002,-5.2002,-5.2002,-5.2002,-5.1895,-5.1787,-5.1787,-5.1695,-5.1602,-5.1494,-5.1401,-5.1401,-5.1214,-5.1214,-5.1214,-5.1214,-5.1214,-5.1214,-5.1214,-5.1214,-5.1214,-5.1214,-5.1214,-5.1214,-5.1214,-5.1742,-5.1987,-5.1987,-5.2947,-5.3371,-5.3371,-5.4301,-5.472,-5.472,-5.5652,-5.6083,-5.6162,-5.6508,-5.6425,-6.2859,-6.3264,0.0,-6.2668,-6.243,-6.2449,-6.2603,-6.2603,-6.2603,-6.2654,-6.2654,-6.2654,-6.2654,-6.2449,-6.2344,-6.2552,-6.1878,-6.1297,-6.1203,-6.0184,-5.9346,-5.896,-5.8892,-5.8703,-5.8192,-5.8209,-5.8082,-5.7881,-5.7881,-5.7825,-5.7662,-5.7662,-5.7588,-5.7439,-5.7439,-5.7514,-5.7662,-5.7514,-5.7514,-5.7588,-5.7439,-5.7364,-5.7364,-5.605,-5.4585,-5.3024,-5.3024,-5.2846,-5.2412,-5.2608,-5.2608,-5.2412,-5.2608,-5.2713,-5.2713,-5.2713,-5.2713,-5.2713,-5.2713,-5.2713,-5.2713,-5.2503,-5.2397,-5.2412,-5.2261,-5.217,-5.217,-5.217,-5.217,-5.217,-5.217,-5.217,-5.217,-5.217,-5.217,-5.217,-5.217,-5.217,-5.2063,-5.2063,-5.2078,-5.1895,-5.1787,-5.168,-5.1587,-5.1308,-5.1308,-5.1308,-5.1214,-5.1214,-5.1214,-5.1214,-5.1214,-5.1308,-5.1557,-5.1572,-5.1742,-5.2002,-5.2606,-5.2947,-5.2947,-5.3891,-5.4401,-5.4401,-5.5231,-5.5652,-5.5732,-5.6336,-5.668,-5.668,-5.668,-5.668,-6.4426,-6.4128,-6.3749,-6.3196,-6.2849,-6.2603,-6.2603,-6.2603,-6.2654,-6.2755,-6.2805,-6.2805,-6.2805,-6.2705,-6.2603,-6.2603,-6.2344,-6.1951,-6.1318,-6.1027,-6.045,-5.9095,-5.8892,-5.8892,0.0,-5.8892,-5.8581,-5.7954,-5.7881,-5.7881,-5.7881,-5.7881,-5.7881,-5.7881,-5.7881,-5.7881,-5.7881,-5.7881,-5.7808,-5.7588,-5.7588,-5.7588,-5.7588,-5.6861,-5.5619,-5.3992,-5.3992,-5.3505,-5.2713,-5.2713,-5.2713,-5.2713,-5.2713,-5.2713,-5.2713,-5.2713,-5.2713,-5.2713,-5.2713,-5.2713,-5.2713,-5.2713,-5.2713,-5.2713,-5.2713,-5.2713,-5.2713,-5.2713,-5.2713,-5.2713,-5.2713,-5.2713,-5.2713,-5.2713,-5.2713,-5.2713,-5.2713,-5.2503,-5.2306,-5.2306,-5.2155,-5.2002,-5.2002,-5.2002,-5.1895,-5.1587,-5.1587,-5.1494,-5.1214,-5.1214,-5.1214,-5.1214,-5.1214,-5.1557,-5.2516,-5.2516,-5.2947,-5.3891,-5.3891,-5.3992,-5.3992,-5.4803,-5.5296,-5.5296,-5.6162,-5.668,-5.668,-5.668,-5.668,-5.668,-5.668,-5.668,-6.452,-6.4388,-6.4253,-6.3747,-6.3618,-6.3612,-6.3612,-6.3612,-6.3524,-6.3308,-6.3472,-6.3587,-6.3308,-6.3139,-6.3073,-6.3168,-6.2618,-6.2132,-6.2005,-6.1412,-6.0807,-6.0326,-6.0326,0.0,0.0,0.0,0.0,-5.8511,-5.8137,-5.7881,-5.7881,-5.7881,-5.7881,-5.7881,-5.7881,-5.7881,-5.7881,-5.7881,-5.7898,-5.7808,-5.7808,-5.7497,-5.6937,-5.6691,-5.5636,-5.3976,-5.3976,-5.3505,-5.2713,-5.2713,-5.2713,-5.2713,-5.2713,-5.2713,-5.2713,-5.2713,-5.2713,-5.2713,-5.2713,-5.2713,-5.2713,-5.2713,-5.2713,-5.2713,-5.2713,-5.2713,-5.2713,-5.2713,-5.2713,-5.2713,-5.2713,-5.2713,-5.2713,-5.2713,-5.2713,-5.2713,-5.2713,-5.2608,-5.2608,-5.2608,-5.2533,-5.2443,-5.2231,-5.2231,-5.2048,-5.168,-5.1494,-5.1308,-5.1214,-5.1214,-5.1479,-5.2078,-5.217,-5.2516,-5.3474,-5.3545,-5.3632,-5.3992,-5.4553,-5.4886,-5.4886,-5.5749,-5.6257,-5.6257,-5.6508,-5.668,-5.668,-5.668,-5.668,-5.668,-5.668,-5.668,-6.4649,-6.4593,-6.4557,-6.4099,-6.4059,-6.4118,-6.4115,-6.4096,-6.4034,-6.3761,-6.3911,-6.4034,-6.3761,-6.3517,-6.34,-6.349,-6.28,-6.231,-6.2362,-6.1786,-6.1257,-6.1045,-6.0986,-6.0867,0.0,0.0,0.0,-5.8892,-5.8263,-5.7881,-5.7881,-5.7881,-5.7881,-5.7881,-5.7881,-5.7881,-5.7881,-5.7881,-5.7881,-5.7881,-5.7881,-5.7645,-5.7089,-5.7089,-5.6113,-5.4469,-5.4469,-5.375,-5.2713,-5.2713,-5.2713,-5.2713,-5.2713,-5.2713,-5.2713,-5.2713,-5.2713,-5.2713,-5.2713,-5.2713,-5.2713,-5.2713,-5.2713,-5.2713,-5.2713,-5.2713,-5.2713,-5.2713,-5.2713,-5.2713,-5.2713,-5.2713,-5.2713,-5.2713,-5.2713,-5.2713,-5.2713,-5.2713,-5.2713,-5.2713,-5.2713,-5.2624,-5.2503,-5.2397,-5.2215,-5.1941,-5.1849,-5.165,-5.1214,-5.1479,-5.1911,-5.2516,-5.2858,-5.3459,-5.4401,-5.4469,-5.4569,-5.4902,-5.5491,-5.5812,-5.5812,-5.6414,-5.668,-5.668,-5.668,-5.668,-5.668,-5.668,-5.668,-5.668,-5.668,-5.668,-6.4898,-6.4829,-6.472,-6.437,-6.4275,-6.4255,-6.4176,-6.4176,-6.4176,-6.4136,-6.4136,-6.4176,0.0,0.0,-6.3535,-6.3535,-6.2898,-6.2415,-6.2415,-6.2168,-6.1748,0.0,0.0,0.0,0.0,0.0,0.0,-5.9028,0.0,-5.7954,-5.7881,-5.7881,-5.7881,-5.7881,-5.7881,-5.7881,-5.7881,-5.7881,-5.7881,-5.7881,-5.7881,-5.7881,-5.7881,-5.7881,-5.692,-5.5296,-5.5296,-5.4333,-5.2713,-5.2713,-5.2713,-5.2713,-5.2713,-5.2713,-5.2713,-5.2713,-5.2713,-5.2713,-5.2713,-5.2713,-5.2713,-5.2713,-5.2713,-5.2713,-5.2713,-5.2713,-5.2713,-5.2713,-5.2713,-5.2713,-5.2713,-5.2713,-5.2713,-5.2713,-5.2713,-5.2713,-5.2713,-5.2713,-5.2713,-5.2713,-5.2713,-5.2713,-5.2713,-5.2503,-5.2382,-5.2382,-5.28,-5.2695,-5.1479,-5.2078,-5.2695,-5.2769,-5.3545,-5.4401,-5.5312,-5.5377,-5.5732,-5.6603,-5.668,-5.668,-5.668,-5.668,-5.668,-5.668,-5.668,-5.668,-5.668,-5.668,-5.668,-5.668,-5.668,-5.668,-6.5356,-6.5307,-6.5307,-6.5207,-6.5175,-6.5156,-6.5144,-6.5144,-6.5028,-6.4685,-6.4894,-6.5047,0.0,0.0,0.0,-6.3952,-6.3149,0.0,-6.2552,-6.231,0.0,-6.1896,0.0,-6.1766,-6.1766,-6.1122,0.0,0.0,-5.9045,-5.8458,-5.7954,-5.7881,-5.7881,-5.7881,-5.7881,-5.7881,-5.7881,-5.7881,-5.7881,-5.7881,-5.7881,-5.7881,-5.7881,-5.7881,-5.692,-5.5296,-5.5296,-5.4333,-5.2713,-5.2713,-5.2713,-5.2713,-5.2713,-5.2713,-5.2713,-5.2713,-5.2713,-5.2713,-5.2713,-5.2713,-5.2713,-5.2713,-5.2713,-5.2713,-5.2713,-5.2713,-5.2713,-5.2713,-5.2713,-5.2713,-5.2713,-5.2713,-5.2713,-5.2713,-5.2713,-5.2713,-5.2713,-5.2713,-5.2713,-5.2713,-5.2713,-5.2713,-5.2713,-5.317,-5.3474,-5.3299,-5.3945,-5.3945,-5.2695,-5.3212,-5.3891,-5.4537,-5.4803,-5.5312,-5.6241,-5.6336,-5.643,-5.668,-5.668,-5.668,-5.668,-5.668,-5.668,-5.668,-5.668,-5.668,-5.668,-5.668,-5.668,-5.668,-5.668,-5.668,-6.5618,-6.5646,-6.5646,-6.5646,-6.5646,-6.5618,-6.5523,-6.5494,-6.5435,-6.5117,-6.5264,0.0,-6.5117,0.0,0.0,0.0,0.0,0.0,-6.2603,-6.2344,-6.2203,0.0,-6.206,0.0,-6.2023,-6.1636,-6.1045,0.0,-5.9297,-5.8581,-5.7954,-5.7881,-5.7881,-5.7881,-5.7881,-5.7881,-5.7881,-5.7881,-5.7881,-5.7881,-5.7881,-5.7881,-5.7881,-5.7881,-5.7164,-5.5876,0.0,-5.4485,-5.3274,-5.2877,-5.2713,-5.2713,-5.2713,-5.2713,-5.2713,-5.2713,-5.2713,-5.2713,-5.2713,-5.2713,-5.2713,-5.2713,-5.2713,-5.2713,-5.2713,-5.2713,-5.2713,-5.2713,-5.2713,-5.2713,-5.2713,-5.2713,-5.2713,-5.2713,-5.2713,-5.2713,-5.2713,-5.2713,-5.2788,-5.3186,-5.3593,-5.3679,-5.3362,-5.3992,-5.4385,-5.3891,-5.4803,-5.5215,-5.4401,-5.4553,-5.487,-5.5377,-5.5716,-5.6162,-5.668,-5.668,-5.668,-5.668,-5.668,-5.668,-5.668,-5.668,-5.668,-5.668,-5.7046,-5.7181,-5.7181,-5.752,-5.7651,-5.7651,-5.7314,-5.7181,-6.5767,-6.5793,-6.5793,-6.5793,-6.5793,-6.5767,-6.5571,-6.5523,-6.5494,-6.5425,0.0,-6.5394,-6.5394,-6.4756,-6.4195,-6.4115,0.0,-6.2686,-6.2654,-6.2397,-6.2257,-6.2257,-6.2114,-6.2023,-6.2023,-6.1895,-6.1372,-6.0093,-5.9297,-5.8581,-5.7954,-5.7881,-5.7881,-5.7881,-5.7881,-5.7881,-5.7881,-5.7881,-5.7881,-5.7881,-5.7881,-5.7881,-5.7881,-5.7881,-5.7406,-5.6536,0.0,0.0,-5.3907,-5.3024,-5.2713,-5.2713,-5.2713,-5.2713,-5.2713,-5.2713,-5.2713,-5.2713,-5.2713,-5.2713,-5.2713,-5.2713,-5.2713,-5.2713,-5.2713,-5.2713,-5.2713,-5.2713,-5.2713,-5.2713,-5.2713,-5.2713,-5.2713,-5.2713,-5.2713,-5.2713,-5.2877,-5.2951,-5.3274,-5.3992,-5.4803,-5.5051,-5.4317,-5.4886,-5.5215,-5.4485,-5.5555,-5.6475,-5.6241,-5.6034,-5.578,-5.578,-5.6319,-5.6757,-5.6757,-5.668,-5.668,-5.6757,-5.668,-5.668,-5.668,-5.6757,-5.6834,-5.6834,-5.7594,-5.7942,-5.7942,-5.8564,-5.8892,-5.8892,-5.8212,-5.787,-6.5793,-6.5793,-6.5793,-6.5793,-6.5793,-6.5747,-6.5627,-6.558,0.0,0.0,-6.5454,-6.5484,-6.5394,-6.5,-6.4539,-6.4136,0.0,0.0,0.0,0.0,-6.2362,0.0,0.0,0.0,0.0,0.0,0.0,0.0,0.0,-5.8581,-5.7954,-5.7881,-5.7881,-5.7881,-5.7881,-5.7881,-5.7881,-5.7881,-5.7881,-5.7881,-5.7881,-5.7881,-5.7881,-5.7881,-5.7406,-5.6536,-5.5716,0.0,-5.3907,-5.3024,-5.2713,-5.2713,-5.2713,-5.2713,-5.2713,-5.2713,-5.2713,-5.2713,-5.2713,-5.2713,-5.2713,-5.2713,-5.2713,-5.2713,-5.2713,-5.2713,-5.2713,-5.2713,-5.2713,-5.2713,-5.2713,-5.2713,-5.2713,-5.2713,-5.2713,-5.2877,-5.3593,-5.4317,-5.4886,-5.5051,-5.5215,-5.5215,-5.5133,-5.5796,-5.6286,-5.6208,-5.7013,-5.7645,-5.7571,-5.7256,-5.6877,-5.6569,-5.6741,-5.6911,-5.6911,-5.6757,-5.6757,-5.6911,-5.6757,-5.668,-5.668,-5.7256,-5.7611,-5.7611,-5.8353,-5.8686,-5.8686,-5.8823,-5.8892,-5.8892,-5.8755,-5.8353,-6.5878,-6.5846,-6.5846,-6.5846,-6.5846,-6.582,-6.5747,0.0,0.0,0.0,-6.5454,-6.5454,-6.5394,-6.5052,0.0,-6.4483,0.0,0.0,0.0,0.0,0.0,0.0,0.0,0.0,0.0,0.0,0.0,0.0,0.0,-5.8581,-5.7954,-5.7881,-5.7881,-5.7881,-5.7881,-5.7881,-5.7881,-5.7881,-5.7881,-5.7881,-5.7881,-5.7881,-5.7881,-5.7881,-5.7645,-5.7164,-5.5876,0.0,-5.5231,-5.3434,-5.2951,-5.3346,-5.2877,-5.2713,-5.2713,-5.2713,-5.2713,-5.2713,-5.2713,-5.2713,-5.2713,-5.2713,-5.2713,-5.2713,-5.2713,-5.2713,-5.2713,-5.2713,-5.2713,-5.2713,-5.2713,-5.2713,-5.2788,-5.3274,-5.3766,-5.4163,-5.4569,-5.5377,-5.5955,-5.5955,-5.6348,-5.652,-5.6034,-5.6691,-5.7089,-5.6691,-5.7331,-5.7881,-5.7735,-5.7662,-5.7514,-5.7214,-5.7139,-5.7139,-5.7139,-5.7063,-5.6987,-5.6987,-5.6911,-5.697,-5.7256,-5.7594,-5.7942,-5.8353,-5.9113,-5.9447,-5.9447,-5.9856,-6.0065,-6.0065,-5.9661,-5.9113,-6.5967,-6.5928,-6.5897,-6.5897,-6.5897,-6.5872,-6.5839,-6.5701,0.0,0.0,-6.5454,-6.5394,-6.5394,-6.5136,-6.4898,0.0,-6.4134,-6.3561,0.0,0.0,0.0,0.0,0.0,0.0,0.0,0.0,0.0,0.0,0.0,0.0,-5.7954,-5.7881,-5.7881,-5.7881,-5.7881,-5.7881,-5.7881,-5.7881,-5.7881,-5.7881,-5.7881,-5.7881,-5.7881,-5.7881,-5.7808,-5.7554,-5.5955,0.0,0.0,-5.3922,-5.3346,-5.3907,-5.3274,-5.2877,-5.2713,-5.2713,-5.2713,-5.2713,-5.2713,-5.2713,-5.2713,-5.2713,-5.2713,-5.2713,-5.2713,-5.2713,-5.2713,-5.2713,-5.2713,-5.2698,-5.2951,-5.2951,-5.3186,-5.4078,-5.4968,-5.5539,-5.5539,-5.627,-5.6861,-5.6861,-5.7406,-5.7645,-5.7013,-5.7422,-5.7645,-5.7013,-5.748,-5.7808,-5.7662,-5.7808,-5.7808,-5.7662,-5.7514,-5.7364,-5.7364,-5.7289,-5.7214,-5.7063,-5.7197,-5.7406,-5.787,-5.814,-5.8616,-5.9145,-5.992,-6.0272,-6.0227,-6.0836,-6.1093,-6.1093,-6.0494,-5.9873,-6.6088,-6.5971,-6.5897,-6.5897,-6.5897,-6.5872,-6.5839,0.0,0.0,-6.5523,-6.5454,-6.5394,-6.5394,-6.5364,-6.522,-6.4863,-6.4254,-6.3808,0.0,0.0,0.0,0.0,0.0,0.0,0.0,0.0,0.0,0.0,0.0,0.0,-5.7881,-5.7881,-5.7881,-5.7881,-5.7881,-5.7881,-5.7881,-5.7881,-5.7881,-5.7881,-5.7881,-5.7881,-5.7881,-5.7881,-5.748,-5.6691,-5.57,0.0,0.0,-5.4317,-5.3907,-5.3976,-5.3907,-5.3434,-5.2713,-5.2713,-5.2713,-5.2713,-5.2713,-5.2713,-5.2713,-5.2713,-5.2713,-5.2713,-5.2713,-5.2713,-5.2713,-5.2713,-5.2713,-5.2862,-5.3664,-5.3907,-5.4062,-5.4968,-5.5876,-5.6442,-5.6442,-5.7181,-5.7808,-5.7808,-5.7881,-5.7881,-5.7808,-5.7881,-5.7881,-5.7808,-5.7881,-5.7881,-5.7881,-5.7881,-5.7881,-5.7881,-5.7662,-5.7588,-5.7588,-5.7439,-5.7289,-5.7289,-5.7701,-5.8014,-5.8001,-5.9245,-5.9995,-6.0058,-6.0825,-6.1135,-6.1034,-6.1093,-6.1093,-6.1093,-6.1034,-6.0272,-6.6147,-6.6065,-6.5994,-6.5928,-6.5897,-6.5897,-6.5872,0.0,-6.5674,-6.558,-6.5494,-6.5454,-6.5394,-6.5394,-6.5333,-6.5123,-6.4426,0.0,0.0,0.0,0.0,0.0,0.0,0.0,0.0,0.0,0.0,0.0,0.0,0.0,-5.7881,-5.7881,-5.7881,-5.7881,-5.7881,-5.7881,-5.7881,-5.7881,-5.7881,-5.7881,-5.7881,-5.7881,-5.7881,-5.7331,-5.7239,-5.7314,-5.5876,0.0,0.0,-5.5133,-5.4469,-5.3976,-5.3976,-5.3434,-5.2713,-5.2713,-5.2713,-5.2713,-5.2713,-5.2713,-5.2713,-5.2713,-5.2713,-5.2713,-5.2713,-5.2713,-5.2713,-5.2713,-5.3113,-5.3593,-5.3907,-5.4803,-5.5619,-5.6034,-5.6768,-5.7406,-5.7406,-5.7662,-5.7881,-5.7881,-5.7881,-5.7881,-5.7881,-5.7881,-5.7881,-5.7881,-5.7881,-5.7881,-5.7881,-5.8263,-5.8511,-5.8511,-5.8065,-5.7808,-5.7808,-5.812,-5.8212,-5.8069,-5.8686,-5.9212,-5.9526,-6.0076,-6.0608,-6.1022,-6.1234,-6.1252,-6.1211,-6.1211,-6.1152,-6.1093,-6.0722,-6.0111,-6.6264,-6.6148,-6.6065,-6.5933,-6.5897,-6.5897,0.0,0.0,-6.572,-6.558,-6.5523,-6.5454,-6.5394,-6.5364,-6.5302,-6.5123,-6.4389,-6.3747,-6.3612,0.0,0.0,0.0,0.0,0.0,0.0,0.0,0.0,0.0,0.0,0.0,0.0,-5.7881,-5.7881,-5.7881,-5.7881,-5.7881,-5.7881,-5.7881,-5.7881,-5.7881,-5.7881,-5.7881,-5.7881,-5.7013,-5.692,-5.7406,0.0,0.0,0.0,-5.5296,-5.4553,-5.3976,-5.3976,-5.3434,-5.2713,-5.2713,-5.2713,-5.2713,-5.2713,-5.2713,-5.2698,-5.304,-5.3113,-5.3113,-5.3362,-5.3113,-5.2788,-5.3024,-5.3922,-5.4803,-5.4803,-5.5859,-5.7013,-5.7013,-5.748,-5.7881,-5.7881,-5.7881,-5.7881,-5.7881,-5.7881,-5.7881,-5.7881,-5.7881,-5.7881,-5.7881,-5.7881,-5.7954,-5.8137,-5.8581,-5.896,-5.923,-5.8789,-5.8545,-5.8545,-5.8977,-5.9145,-5.8925,-5.9609,-6.0156,-6.0547,-6.0747,-6.1158,-6.1633,-6.1501,-6.1444,-6.1386,-6.1328,-6.1252,-6.1152,-6.0441,-5.9774,-6.6435,-6.6248,-6.6065,-6.5933,-6.5897,-6.5872,0.0,0.0,-6.558,-6.5523,-6.5454,-6.5394,-6.5394,-6.5352,-6.5142,-6.4685,-6.4037,0.0,-6.3131,0.0,0.0,0.0,0.0,0.0,0.0,0.0,0.0,0.0,0.0,0.0,0.0,-5.7881,-5.7881,-5.7881,-5.7881,-5.7881,-5.7881,-5.7881,-5.7881,-5.7881,-5.7881,-5.7881,-5.7881,-5.7013,-5.6614,0.0,0.0,0.0,0.0,-5.4385,-5.3992,-5.3976,-5.3976,-5.3434,-5.2713,-5.2713,-5.2713,-5.2713,-5.2713,-5.2713,-5.2877,-5.375,-5.3992,-5.4147,-5.4968,-5.4094,-5.2862,-5.375,-5.5215,-5.6536,-5.6536,-5.7256,-5.7881,-5.7881,-5.7881,-5.7881,-5.7881,-5.7881,-5.7881,-5.7881,-5.7881,-5.7881,-5.7881,-5.7881,-5.7881,-5.7881,-5.7881,-5.8137,-5.8823,-5.8892,-5.9163,-5.9902,-5.9966,-5.9966,-5.9966,-5.9966,-5.9885,-5.9674,-6.0379,-6.0765,-6.0711,-6.139,-6.1802,-6.1802,-6.1802,-6.1746,-6.1595,-6.1386,-6.131,-6.1252,-6.0415,-5.9415,-6.659,-6.6498,-6.6368,-6.6088,-6.6041,-6.6016,-6.5903,-6.5801,-6.5701,-6.558,-6.5523,-6.5435,-6.5394,-6.5352,-6.5123,-6.4538,-6.3956,0.0,0.0,0.0,0.0,0.0,0.0,0.0,0.0,0.0,0.0,0.0,0.0,0.0,0.0,-5.7881,-5.7881,-5.7881,-5.7881,-5.7881,-5.7881,-5.7881,-5.7881,-5.7881,-5.7881,-5.7881,-5.7881,-5.6348,0.0,0.0,0.0,0.0,0.0,-5.5876,-5.5051,-5.3976,-5.3976,-5.3434,-5.2713,-5.2713,-5.2713,-5.2788,-5.3346,-5.3593,-5.375,-5.4653,-5.4886,-5.4968,-5.5215,-5.4886,-5.4653,-5.5555,-5.6192,-5.6768,-5.7331,-5.7718,-5.7881,-5.7881,-5.7881,-5.7881,-5.7881,-5.7881,-5.7881,-5.7881,-5.7881,-5.7881,-5.7881,-5.7881,-5.8082,-5.8511,-5.8581,-5.8841,-5.9578,-6.0076,-6.0388,-6.0669,-6.1104,-6.1004,-6.0111,-6.0406,-6.0669,-6.059,-6.1257,-6.1579,-6.1561,-6.1822,-6.1969,-6.1969,-6.1858,-6.1802,-6.1746,-6.1672,-6.1081,-5.9995,-5.9247,-5.8458,-6.6644,-6.6544,-6.6419,-6.6148,-6.6065,0.0,0.0,-6.5774,-6.5701,-6.558,-6.5494,-6.5454,-6.5364,-6.5188,-6.4829,-6.4215,-6.3662,0.0,0.0,0.0,0.0,0.0,0.0,0.0,0.0,0.0,0.0,0.0,0.0,0.0,0.0,-5.7881,-5.7881,-5.7881,-5.7881,-5.7881,-5.7881,-5.7881,-5.7881,-5.7881,-5.7881,-5.7881,-5.7881,-5.6442,0.0,0.0,0.0,0.0,0.0,-5.5876,-5.4968,-5.3992,-5.3679,-5.3186,-5.2713,-5.2713,-5.2862,-5.3274,-5.3821,-5.4232,-5.4637,-5.5555,-5.6034,-5.627,-5.627,-5.6034,-5.5876,-5.6459,-5.6861,-5.7256,-5.7735,-5.7881,-5.7881,-5.7881,-5.7881,-5.7954,-5.8192,-5.8263,-5.8334,-5.8668,-5.8475,-5.8263,-5.8263,-5.8263,-5.8388,-5.8823,-5.9163,-5.9561,-6.0282,-6.0729,-6.1104,-6.1372,-6.1766,-6.1636,-6.0807,-6.1122,-6.1372,-6.1372,-6.1766,-6.2023,-6.2023,-6.2023,-6.2023,-6.2023,-6.1913,-6.1858,-6.184,-6.1541,-6.0547,-5.8925,-5.8668,-5.8065,0.0,-6.6459,-6.6283,-6.6148,-6.6016,-6.5878,-6.582,-6.5701,0.0,-6.5523,-6.5454,-6.5364,-6.5258,-6.4898,-6.435,-6.3662,0.0,0.0,0.0,0.0,0.0,0.0,0.0,0.0,0.0,0.0,0.0,0.0,0.0,0.0,0.0,-5.7881,-5.7881,-5.7881,-5.7881,-5.7881,-5.7881,-5.7881,-5.7881,-5.7881,-5.7881,-5.7881,-5.7881,-5.7013,0.0,0.0,0.0,0.0,0.0,-5.4803,-5.4062,-5.3992,-5.3113,-5.2788,-5.2788,-5.2877,-5.3434,-5.4062,-5.4147,-5.472,-5.5539,-5.6442,-5.7256,-5.7881,-5.7881,-5.7331,-5.6691,-5.6691,-5.7256,-5.7881,-5.7881,-5.7881,-5.7881,-5.7881,-5.7954,-5.8137,-5.8772,-5.8892,-5.9095,-5.9838,-5.938,-5.8823,-5.896,-5.896,-5.896,-5.9011,-5.9626,-6.0282,-6.0968,-6.1045,-6.1297,-6.195,-6.2023,-6.2023,-6.2023,-6.2023,-6.2023,-6.2023,-6.2023,-6.2023,-6.2023,-6.2023,-6.2023,-6.2023,-6.2023,-6.1969,-6.195,-6.1099,-5.9856,-5.8174,-5.8492,-5.8137,-6.6641,0.0,-6.6477,-6.6299,-6.6148,-6.5997,0.0,-6.5701,-6.558,-6.5523,-6.5454,-6.5283,-6.4845,-6.4593,-6.4118,0.0,0.0,0.0,0.0,0.0,0.0,0.0,0.0,0.0,0.0,0.0,0.0,0.0,0.0,0.0,0.0,-5.7881,-5.7881,-5.7881,-5.7881,-5.7881,-5.7881,-5.7881,-5.7881,-5.7881,-5.7881,-5.7881,-5.7881,-5.7013,0.0,0.0,0.0,0.0,-5.748,-5.57,-5.4968,-5.4886,-5.3992,-5.3664,-5.375,-5.4401,-5.4819,-5.5051,-5.5796,-5.6113,-5.6442,-5.7331,-5.7735,-5.7881,-5.7881,-5.7735,-5.7571,-5.7571,-5.7718,-5.7881,-5.7881,-5.7881,-5.7881,-5.7881,-5.8263,-5.8703,-5.8892,-5.8892,-5.9095,-5.9838,-5.8994,-5.8475,-5.9578,-5.9297,-5.9279,-6.0326,-6.0669,-6.1004,-6.1692,-6.1748,-6.1822,-6.195,-6.2023,-6.2023,-6.2023,-6.2023,-6.2023,-6.2023,-6.2023,-6.2023,-6.2023,-6.2023,-6.2023,-6.2023,-6.2023,-6.1766,-6.1239,-6.0246,-5.9262,-5.8477,-5.7903,-5.7571,-6.662,-6.6528,-6.6419,-6.6254,-6.6128,-6.599,-6.5878,-6.5728,-6.558,-6.5552,-6.5484,-6.5232,-6.472,-6.4426,0.0,0.0,0.0,0.0,0.0,0.0,0.0,0.0,0.0,0.0,0.0,0.0,0.0,0.0,0.0,0.0,0.0,-5.7881,-5.7881,-5.7881,-5.7881,-5.7881,-5.7881,-5.7881,-5.7881,-5.7881,-5.7881,-5.7881,-5.7881,-5.7406,-5.748,0.0,0.0,0.0,-5.7808,-5.6442,-5.5876,-5.5796,-5.4968,-5.4569,-5.4637,-5.5133,-5.5539,-5.5955,-5.6459,-5.6861,-5.7239,-5.7735,-5.7881,-5.7881,-5.7881,-5.7881,-5.7881,-5.7881,-5.7881,-5.7881,-5.7881,-5.7881,-5.7954,-5.8263,-5.8651,-5.9095,-5.9756,-5.9626,-5.9626,-6.0344,-5.9578,-5.913,-5.9838,-5.9885,-6.0139,-6.0909,-6.1257,-6.1579,-6.195,-6.2023,-6.2023,-6.2023,-6.2023,-6.2023,-6.2023,-6.2023,-6.2023,-6.2023,-6.2023,-6.2023,-6.2023,-6.2023,-6.2023,-6.2023,-6.1692,-6.1239,-6.0547,-5.9609,-5.8806,-5.8157,-5.7775,-5.7588,-6.659,-6.6406,-6.6234,-6.6129,-6.5994,-6.5897,-6.5897,-6.5728,-6.5608,-6.558,-6.5435,-6.515,-6.4593,-6.4176,0.0,0.0,0.0,0.0,0.0,0.0,0.0,0.0,0.0,0.0,0.0,0.0,0.0,0.0,0.0,0.0,0.0,-5.7881,-5.7881,-5.7881,-5.7881,-5.7881,-5.7881,-5.7881,-5.7881,-5.7881,-5.7881,-5.7881,-5.7881,-5.7881,-5.7881,0.0,0.0,0.0,-5.7808,-5.6937,-5.6614,-5.6536,-5.5796,-5.5458,-5.5539,-5.5619,-5.6192,-5.6768,-5.6768,-5.7256,-5.7881,-5.7881,-5.7881,-5.7881,-5.7881,-5.7881,-5.7881,-5.7881,-5.7881,-5.7881,-5.7881,-5.7954,-5.8209,-5.8755,-5.9078,-5.9543,-6.0747,-6.0547,-6.0344,-6.1045,-6.0547,-6.0048,-6.0299,-6.0686,-6.1004,-6.1122,-6.1636,-6.2023,-6.2023,-6.2023,-6.2023,-6.2023,-6.2023,-6.2023,-6.2023,-6.2023,-6.2023,-6.2023,-6.2023,-6.2023,-6.2023,-6.2023,-6.2023,-6.2023,-6.1372,-6.0669,-5.9966,-5.923,-5.8441,-5.7662,-5.7735,-5.7735,-6.6469,-6.6276,-6.6129,-6.6108,-6.5994,-6.5897,-6.582,-6.5701,-6.558,-6.5523,-6.5182,-6.472,-6.4118,-6.3575,-6.3055,0.0,0.0,0.0,0.0,0.0,0.0,0.0,0.0,0.0,0.0,0.0,0.0,0.0,0.0,0.0,0.0,0.0,-5.7881,-5.7881,-5.7881,-5.7881,-5.7881,-5.7881,-5.7881,-5.7881,-5.7881,-5.7881,-5.7881,-5.7881,-5.7881,0.0,0.0,-5.7881,-5.7808,-5.6937,-5.6614,-5.6614,-5.6459,-5.6364,-5.652,-5.7239,-5.7571,-5.7718,-5.7718,-5.7808,-5.7881,-5.7881,-5.7881,-5.7881,-5.7881,-5.7881,-5.7881,-5.7881,-5.7881,-5.7881,-5.7881,-5.8334,-5.8772,-5.8892,-5.9803,-6.0729,-6.0968,-6.0927,-6.1045,-6.1692,-6.0867,-6.0362,-6.1505,-6.1315,-6.118,-6.1766,-6.195,-6.2023,-6.2023,-6.2023,-6.2023,-6.2023,-6.2023,-6.2023,-6.2023,-6.2023,-6.2023,-6.2023,-6.2023,-6.2023,-6.2023,-6.2023,-6.2023,-6.2023,-6.1372,-6.0669,-5.9966,-5.8925,-5.8212,-5.7808,-5.7514,-5.7588,-6.5636,-6.5793,-6.5994,-6.5724,-6.5567,-6.5466,-6.5437,-6.5137,-6.4818,-6.4715,-6.45,-6.4176,0.0,0.0,-6.2677,0.0,0.0,0.0,0.0,0.0,0.0,0.0,0.0,0.0,0.0,0.0,0.0,0.0,0.0,0.0,0.0,0.0,-5.7881,-5.7881,-5.7881,-5.7881,-5.7881,-5.7881,-5.7881,-5.7881,-5.7881,-5.7881,-5.7881,-5.7881,-5.7881,-5.7881,0.0,-5.7881,-5.7881,-5.7497,-5.7331,-5.7331,-5.7331,-5.7331,-5.7331,-5.7735,-5.7881,-5.7881,-5.7881,-5.7881,-5.7881,-5.7881,-5.7881,-5.7881,-5.7881,-5.8137,-5.8458,-5.8458,-5.8458,-5.8458,-5.8458,-5.8977,-5.9561,-5.9931,-6.0529,-6.1104,-6.143,-6.1239,-6.1104,-6.143,-6.0986,-6.0729,-6.1372,-6.1487,-6.1618,-6.195,-6.2023,-6.2023,-6.2023,-6.2023,-6.2023,-6.2023,-6.2023,-6.2023,-6.2023,-6.2023,-6.2023,-6.2023,-6.2023,-6.1822,-6.1487,-6.1822,-6.1636,-6.0927,-6.0608,-6.0093,-5.9429,-5.8494,-5.7976,-5.7735,-5.7662,-5.7662,-6.4904,-6.5288,-6.5634,-6.5475,-6.5359,-6.523,-6.5016,-6.4661,-6.4294,-6.4101,-6.3919,-6.3723,0.0,-6.294,0.0,0.0,0.0,0.0,0.0,0.0,0.0,0.0,0.0,0.0,0.0,0.0,0.0,0.0,0.0,0.0,0.0,0.0,-5.7881,-5.7881,-5.7881,-5.7881,-5.7881,-5.7881,-5.7881,-5.7881,-5.7881,-5.7881,-5.7881,-5.7881,-5.7881,-5.7881,-5.7881,-5.7881,-5.7881,-5.7881,-5.7881,-5.7881,-5.7881,-5.7881,-5.7881,-5.7881,-5.7881,-5.7881,-5.7881,-5.7881,-5.7881,-5.7881,-5.7881,-5.7954,-5.8082,-5.8528,-5.896,-5.9095,-5.9279,-5.9346,-5.923,-5.9691,-6.0344,-6.0849,-6.1104,-6.1372,-6.1895,-6.1636,-6.1239,-6.1239,-6.1239,-6.1239,-6.1239,-6.1636,-6.2023,-6.2023,-6.2023,-6.2023,-6.2023,-6.2023,-6.2023,-6.2023,-6.2023,-6.195,-6.1766,-6.1766,-6.1692,-6.1561,-6.1692,-6.1448,-6.0789,-6.1257,-6.1063,-6.0048,-5.9756,-5.9429,-5.8892,-5.8048,-5.7662,-5.7588,-5.7735,-5.7735,-6.4717,-6.4864,-6.4971,-6.5686,-6.5801,-6.5552,-6.475,-6.4699,-6.4718,-6.4294,-6.385,-6.349,0.0,0.0,0.0,0.0,0.0,0.0,0.0,0.0,0.0,0.0,0.0,0.0,0.0,0.0,0.0,0.0,0.0,0.0,0.0,0.0,0.0,-5.7881,-5.7881,-5.7881,-5.7881,-5.7881,-5.7881,-5.7881,-5.7881,-5.7881,-5.7881,-5.7881,-5.7881,-5.7881,-5.7881,-5.7881,-5.7881,-5.7881,-5.7881,-5.7881,-5.7881,-5.7881,-5.7881,-5.7881,-5.7881,-5.7881,-5.7881,-5.7881,-5.7881,-5.7881,-5.7881,-5.8027,-5.8651,-5.8823,-5.9028,-5.9709,-6.0344,-6.0729,-6.0093,-6.0406,-6.0909,-6.0968,-6.1505,-6.195,-6.2023,-6.195,-6.195,-6.195,-6.195,-6.195,-6.195,-6.195,-6.2023,-6.2023,-6.2023,-6.2023,-6.2023,-6.2023,-6.2023,-6.2023,-6.2023,-6.1766,-6.1104,-6.1045,-6.0789,-6.0156,-6.0729,-6.0789,-6.0093,-6.0111,-6.0111,-5.9966,-5.9145,-5.8737,-5.8892,-5.7668,-5.7289,-5.7588,-5.7439,-5.7439,-6.3177,-6.3724,-6.435,-6.4632,-6.4966,-6.506,-6.4388,-6.408,-6.3723,-6.3094,-6.2861,-6.2768,0.0,0.0,0.0,0.0,0.0,0.0,0.0,0.0,0.0,0.0,0.0,0.0,0.0,0.0,0.0,0.0,0.0,0.0,0.0,0.0,0.0,-5.7881,-5.7881,-5.7881,-5.7881,-5.7881,-5.7881,-5.7881,-5.7881,-5.7881,-5.7881,-5.7881,-5.7881,-5.7881,-5.7881,-5.7881,-5.7881,-5.7881,-5.7881,-5.7881,-5.7881,-5.7881,-5.7881,-5.7881,-5.7881,-5.7881,-5.7881,-5.7881,-5.7881,-5.7881,-5.7881,-5.7954,-5.8209,-5.8581,-5.9028,-5.9774,-6.0468,-6.0909,-6.0686,-6.1122,-6.1636,-6.1636,-6.1822,-6.2023,-6.2023,-6.2023,-6.2023,-6.2023,-6.2023,-6.2023,-6.2023,-6.2023,-6.2023,-6.2023,-6.2023,-6.2023,-6.2023,-6.1636,-6.1372,-6.1372,-6.1004,-6.0669,-6.0406,-6.0362,-6.0076,-5.9363,-5.9949,-6.0093,-5.9363,-5.9774,-5.9578,-5.8737,-5.8772,-5.8633,-5.8263,-5.7645,-5.7197,-5.6784,-5.7273,-5.6954,-6.1986,-6.2599,-6.3332,-6.3645,-6.4139,-6.4412,-6.3909,-6.3624,-6.3271,-6.2482,-6.2362,-6.2185,-6.1638,0.0,0.0,0.0,0.0,0.0,0.0,0.0,0.0,0.0,0.0,0.0,0.0,0.0,0.0,0.0,0.0,0.0,0.0,0.0,0.0,0.0,-5.7881,-5.7881,-5.7881,-5.7881,-5.7881,-5.7881,-5.7881,-5.7881,-5.7881,-5.7881,-5.7881,-5.7881,-5.7881,-5.7881,-5.7881,-5.7881,-5.7881,-5.7881,-5.7881,-5.7881,-5.7881,-5.7881,-5.7881,-5.7881,-5.7881,-5.801,-5.8209,-5.7954,-5.801,-5.8209,-5.8209,-5.8511,-5.9028,-5.9774,-6.0344,-6.0669,-6.0686,-6.1332,-6.2023,-6.2023,-6.2023,-6.2023,-6.2023,-6.2023,-6.2023,-6.2023,-6.2023,-6.2023,-6.2023,-6.2023,-6.2023,-6.2023,-6.2023,-6.2023,-6.2023,-6.143,-6.0909,-6.0729,-6.0282,-5.9902,-5.9709,-5.9626,-5.938,-5.8651,-5.9062,-5.9113,-5.8581,-5.9062,-5.8858,-5.7881,-5.8317,-5.8157,-5.7497,-5.7181,-5.6707,-5.5908,-5.6536,-5.6129,-6.1368,-6.1532,-6.1841,-6.2813,-6.3372,-6.3584,-6.3252,-6.3519,-6.3624,-6.275,-6.2326,-6.1768,-6.045,-6.0076,0.0,0.0,0.0,0.0,0.0,0.0,0.0,0.0,0.0,0.0,0.0,0.0,0.0,0.0,0.0,0.0,0.0,0.0,0.0,0.0,-5.7881,-5.7881,-5.7881,-5.7881,-5.7881,-5.7881,-5.7881,-5.7881,-5.7881,-5.7881,-5.7881,-5.7881,-5.7881,-5.7881,-5.7881,-5.7881,-5.7881,-5.7881,-5.7881,-5.7881,-5.7881,-5.7881,-5.7881,-5.7881,-5.7881,-5.8334,-5.8772,-5.8137,-5.8317,-5.8892,-5.8892,-5.8892,-5.9028,-5.9774,-5.9966,-5.9966,-5.9984,-6.1004,-6.2023,-6.2023,-6.2023,-6.2023,-6.2023,-6.2023,-6.2023,-6.2023,-6.2023,-6.2023,-6.2023,-6.2023,-6.2023,-6.2023,-6.2023,-6.2023,-6.195,-6.1372,-6.0729,-6.003,-5.9966,-5.9691,-5.896,-5.8892,-5.8581,-5.7954,-5.7881,-5.7881,-5.7881,-5.7881,-5.7881,-5.7881,-5.7662,-5.7256,-5.6614,-5.6162,-5.5685,-5.5001,-5.5001,-5.5001,-6.1116,-6.1065,-6.1102,-6.1749,-6.1878,-6.1831,-6.1676,-6.2134,-6.229,-6.1169,-6.0791,-6.059,-6.0264,0.0,0.0,0.0,0.0,0.0,0.0,0.0,0.0,0.0,0.0,0.0,0.0,0.0,0.0,0.0,0.0,0.0,0.0,0.0,0.0,0.0,-5.7881,-5.7881,-5.7881,-5.7881,-5.7881,-5.7881,-5.7881,-5.7881,-5.7881,-5.7881,-5.7881,-5.7881,-5.7881,-5.7881,-5.7881,-5.7881,-5.8209,-5.8581,-5.8581,-5.8581,-5.8651,-5.9197,-5.8737,-5.7954,-5.8458,-5.8388,-5.8263,-5.8511,-5.8388,-5.8263,-5.8772,-5.8581,-5.8475,-5.9644,-5.9644,-5.9429,-6.0468,-6.1004,-6.1332,-6.1315,-6.1636,-6.2023,-6.2023,-6.2023,-6.2023,-6.2023,-6.2023,-6.2023,-6.2023,-6.2023,-6.2023,-6.2023,-6.2023,-6.1636,-6.0729,-5.9949,-5.9297,-5.8598,-5.8545,-5.8405,-5.8209,-5.8209,-5.8154,-5.7881,-5.7881,-5.7881,-5.7881,-5.7881,-5.7881,-5.7881,-5.7256,-5.6784,-5.6614,-5.5732,-5.4918,-5.4317,-5.4752,-5.4433,-6.0226,-6.005,-6.0076,-6.0434,-6.058,-6.0555,-6.0274,-6.0754,0.0,0.0,-5.9858,-5.9838,-5.9363,0.0,0.0,0.0,0.0,0.0,0.0,0.0,0.0,0.0,0.0,0.0,0.0,0.0,0.0,0.0,0.0,0.0,0.0,0.0,0.0,0.0,-5.8737,-5.8737,-5.8737,-5.8737,-5.8598,-5.8263,-5.8263,-5.8263,-5.8263,-5.801,-5.7881,-5.7881,-5.8209,-5.8263,-5.8334,-5.8598,-5.8994,-5.9363,-5.9363,-5.9363,-5.9363,-5.9838,-5.9247,-5.8334,-5.8772,-5.8651,-5.8334,-5.8458,-5.8598,-5.8737,-5.8528,-5.8598,-5.8806,-5.9062,-5.9045,-5.9095,-5.9931,-6.0406,-6.0686,-6.0927,-6.1505,-6.2023,-6.2023,-6.1766,-6.1692,-6.195,-6.1766,-6.1579,-6.1618,-6.1822,-6.1822,-6.1315,-6.1198,-6.0807,-5.9691,-5.9163,-5.8633,-5.7954,-5.7881,-5.7881,-5.7881,-5.7881,-5.7881,-5.7881,-5.7881,-5.7718,-5.7406,-5.7406,-5.7406,-5.7406,-5.652,-5.5876,-5.5555,-5.4902,-5.4248,-5.3505,-5.3938,-5.3608,-5.9139,-5.8932,-5.8918,-5.9108,-5.9416,0.0,-5.8901,-5.9239,-5.9501,-5.8739,0.0,-5.9189,0.0,0.0,0.0,0.0,0.0,0.0,0.0,0.0,0.0,0.0,0.0,0.0,0.0,0.0,0.0,0.0,0.0,0.0,0.0,0.0,0.0,0.0,-5.9966,-5.9966,-5.9966,-5.9966,-5.9626,0.0,-5.9028,-5.9028,-5.896,-5.8263,-5.8027,-5.8154,-5.872,-5.9028,-5.9028,-5.9709,-6.0048,-6.0093,-6.0093,-6.003,-6.003,-6.0048,-5.9561,-5.8841,-5.8892,-5.8892,-5.8841,-5.828,-5.8944,-5.9774,-5.8528,-5.9062,-5.9726,-5.8545,-5.8598,-5.9028,-5.9095,-5.9561,-6.0219,-6.0849,-6.1505,-6.195,-6.1895,-6.143,-6.118,-6.1766,-6.139,-6.0945,-6.0986,-6.143,-6.1372,-6.0156,-5.9966,-5.9644,-5.896,-5.8823,-5.8581,-5.7954,-5.7881,-5.7881,-5.7881,-5.7881,-5.7881,-5.7881,-5.7808,-5.7406,-5.6614,-5.6614,-5.6536,-5.6442,-5.5636,-5.4803,-5.3976,-5.3907,-5.3505,-5.2713,-5.2713,-5.2713,-5.9987,-5.9319,-5.875,-5.8772,-5.846,-5.7898,-5.7183,-5.7145,-5.724,-5.718,0.0,0.0,0.0,0.0,0.0,0.0,0.0,0.0,0.0,0.0,0.0,0.0,0.0,0.0,0.0,0.0,0.0,0.0,0.0,0.0,0.0,0.0,0.0,-5.9984,-5.9966,-5.9966,-5.9966,-5.9966,-5.9902,0.0,-5.9774,-5.9774,-5.9774,-5.9028,-5.8977,-5.9596,-5.9709,-5.9774,-5.9774,-5.9902,-6.0282,-6.0789,-6.0789,-6.0468,-6.003,-6.0608,-5.9626,-5.8209,-5.8703,-5.8892,-5.896,-5.938,-5.9774,-6.003,-6.0282,-6.0156,-6.0048,-6.0282,-6.0076,-5.9902,-6.0424,-6.0669,-6.0789,-6.0986,-6.1505,-6.184,-6.1297,-6.1104,-6.1045,-6.118,-6.0669,-6.0362,-6.0909,-6.0669,-6.0362,-6.003,-5.9495,-5.9095,-5.8892,-5.8458,-5.8082,-5.7881,-5.7881,-5.7881,-5.7881,-5.7881,-5.7881,-5.7881,-5.7256,-5.6784,-5.6614,-5.6614,-5.6286,-5.5619,-5.472,-5.4147,-5.3976,-5.3346,-5.2862,-5.2713,-5.2713,-5.2713,-5.9756,-5.9173,-5.8613,-5.8314,0.0,-5.7486,-5.7,-5.6431,-5.61,0.0,0.0,0.0,0.0,0.0,0.0,0.0,0.0,0.0,0.0,0.0,0.0,0.0,0.0,0.0,0.0,0.0,0.0,0.0,0.0,0.0,0.0,-6.0789,-6.0849,-6.0927,-6.0945,-6.0945,-6.0885,-6.0945,-6.0747,-6.0379,-6.0441,-6.0485,-6.0468,-5.9756,-5.9644,-6.0048,-6.0344,-6.0468,-6.0468,-6.0807,-6.118,-6.1487,-6.1487,-6.1045,-6.0547,-6.0849,-6.0076,-5.8926,-5.9314,-5.9429,-5.9495,-5.9902,-6.0219,-6.0468,-6.0529,-6.0747,-6.0867,-6.0608,-6.0468,-6.0547,-6.0927,-6.0986,-6.1104,-6.143,-6.1766,-6.1822,-6.1163,-6.0729,-6.0547,-6.0547,-5.9949,-5.9561,-5.9931,-5.9429,-5.9113,-5.9447,-5.8841,-5.8388,-5.8388,-5.8154,-5.7881,-5.7881,-5.7881,-5.7735,-5.7331,-5.7256,-5.7089,-5.6674,-5.6192,-5.5796,-5.5377,-5.5377,-5.5133,-5.4736,-5.3836,-5.3346,-5.3346,-5.2951,-5.2713,-5.2713,-5.2713,-5.2713,-5.9368,-5.8897,-5.8549,-5.7941,-5.7697,0.0,-5.7338,-5.6402,-5.5676,0.0,0.0,0.0,0.0,0.0,0.0,0.0,0.0,0.0,0.0,0.0,0.0,0.0,0.0,0.0,0.0,0.0,0.0,0.0,0.0,0.0,-6.1858,-6.1913,-6.1969,-6.2023,-6.1969,-6.1913,-6.1802,-6.1913,-6.1654,-6.098,-6.1099,-6.1198,-6.1163,-6.0608,-6.0362,-6.0362,-6.0927,-6.1163,-6.1239,-6.1766,-6.2023,-6.2023,-6.2023,-6.1561,-6.0986,-6.0986,-6.0608,-5.9966,-5.9966,-6.0111,-6.0156,-6.0156,-6.0547,-6.0909,-6.0362,-6.0867,-6.1448,-6.0424,-6.0468,-6.0849,-6.0968,-6.0986,-6.1163,-6.1692,-6.1822,-6.1636,-6.0986,-6.0282,-5.9838,-5.9838,-5.9297,-5.8823,-5.8772,-5.8263,-5.8082,-5.8633,-5.8263,-5.7881,-5.7881,-5.7881,-5.7808,-5.7718,-5.7662,-5.7331,-5.6442,-5.6381,-5.605,-5.5377,-5.5133,-5.472,-5.4078,-5.3821,-5.375,-5.375,-5.3113,-5.2713,-5.2713,-5.2713,-5.2713,-5.2713,-5.2713,-5.2713,-5.9989,0.0,-5.8549,0.0,-5.7697,-5.7437,0.0,0.0,0.0,0.0,0.0,0.0,0.0,0.0,0.0,0.0,0.0,0.0,0.0,0.0,0.0,0.0,0.0,0.0,0.0,0.0,0.0,0.0,0.0,0.0,-6.195,-6.1858,-6.1858,-6.2023,-6.1913,-6.1802,-6.1802,-6.1913,-6.1895,-6.1672,-6.1784,-6.1895,-6.1877,-6.1766,-6.171,-6.1766,-6.1822,-6.1895,-6.1877,-6.195,-6.2023,-6.2023,-6.2023,-6.1561,-6.0986,-6.0986,-6.0608,-5.9966,-5.9966,-6.0344,-6.0849,-6.0849,-6.0909,-6.0986,-6.0867,-6.0564,-6.0344,-6.0729,-6.0529,-6.0299,-6.0849,-6.0986,-6.1027,-6.1104,-6.1104,-6.0927,-6.0299,-5.9561,-5.9028,-5.9028,-5.896,-5.8703,-5.8137,-5.7954,-5.7954,-5.801,-5.7954,-5.7881,-5.7881,-5.7881,-5.7645,-5.6844,-5.6768,-5.6442,-5.5555,-5.5458,-5.5377,-5.5296,-5.4553,-5.4147,-5.3976,-5.3274,-5.2862,-5.2862,-5.2803,-5.2713,-5.2713,-5.2713,-5.2713,-5.2713,-5.2713,-5.2713,-5.9889,-5.9212,-5.8549,0.0,-5.7745,-5.7583,-5.717,0.0,0.0,0.0,0.0,0.0,0.0,0.0,0.0,0.0,0.0,0.0,0.0,0.0,0.0,0.0,0.0,0.0,0.0,0.0,0.0,0.0,0.0,-6.1969,-6.1913,-6.1913,-6.1913,-6.1913,-6.1913,-6.1858,-6.169,-6.1913,-6.1969,-6.1913,-6.1969,-6.2023,-6.2023,-6.2023,-6.2023,-6.2023,-6.2023,-6.2023,-6.2023,-6.2023,-6.2023,-6.2023,-6.2023,-6.1561,-6.0986,-6.0986,-6.0789,-6.0529,-6.0529,-6.0986,-6.1561,-6.1561,-6.1315,-6.0986,-6.0986,-6.0547,-6.003,-6.0362,-6.0219,-6.0048,-6.0344,-6.0424,-6.0424,-6.0424,-6.0139,-5.9739,-5.9429,-5.9163,-5.8772,-5.8388,-5.8334,-5.8263,-5.7954,-5.7881,-5.7881,-5.7881,-5.7881,-5.7881,-5.7881,-5.748,-5.7013,-5.6614,-5.6129,-5.5539,-5.4653,-5.4553,-5.4317,-5.3836,-5.3521,-5.3274,-5.3274,-5.2862,-5.2713,-5.2713,-5.2713,-5.2713,-5.2713,-5.2713,-5.2713,-5.2713,-5.2713,-5.2518,0.0,0.0,-5.8894,-5.8201,-5.8015,-5.7877,0.0,0.0,0.0,0.0,0.0,0.0,0.0,0.0,0.0,0.0,0.0,0.0,0.0,0.0,0.0,0.0,0.0,0.0,0.0,0.0,0.0,0.0,0.0,-6.1969,-6.1858,-6.1913,-6.1913,-6.1858,-6.1895,-6.1858,-6.1633,-6.1858,-6.1969,-6.2023,-6.2023,-6.2023,-6.2023,-6.2023,-6.2023,-6.2023,-6.2023,-6.2023,-6.2023,-6.2023,-6.2023,-6.2023,-6.2023,-6.1692,-6.1239,-6.1239,-6.1239,-6.1239,-6.1239,-6.1561,-6.195,-6.1822,-6.1297,-6.0729,-6.0511,-6.0012,-5.9513,-5.9709,-5.9578,-5.9513,-5.9709,-5.9709,-5.9709,-5.9709,-5.9297,-5.8823,-5.8703,-5.8651,-5.8511,-5.8027,-5.7881,-5.7881,-5.7881,-5.7881,-5.7881,-5.7881,-5.7881,-5.7808,-5.7571,-5.7013,-5.6442,-5.5955,-5.5377,-5.4653,-5.375,-5.3664,-5.3434,-5.2713,-5.2713,-5.2713,-5.2713,-5.2713,-5.2713,-5.2713,-5.2713,-5.2713,-5.2713,-5.2713,-5.2713,-5.2713,-5.2533,-5.2155,0.0,-6.0138,0.0,-5.8874,-5.8572,0.0,0.0,0.0,0.0,0.0,0.0,0.0,0.0,0.0,0.0,0.0,0.0,0.0,0.0,0.0,0.0,0.0,0.0,0.0,0.0,0.0,0.0,0.0,0.0,-6.2023,-6.1969,-6.1858,-6.1858,-6.1969,-6.1858,-6.1802,-6.1802,-6.1802,-6.184,-6.2023,-6.2023,-6.2023,-6.2023,-6.2023,-6.2023,-6.2023,-6.2023,-6.2023,-6.2023,-6.2023,-6.2023,-6.2023,-6.2023,-6.195,-6.195,-6.195,-6.195,-6.195,-6.195,-6.195,-6.1895,-6.1239,-6.0608,-5.9902,-5.923,-5.8511,-5.8137,-5.8772,-5.8528,-5.8137,-5.8772,-5.896,-5.896,-5.896,-5.896,-5.8703,-5.8082,-5.7954,-5.7954,-5.7898,-5.7881,-5.7881,-5.7881,-5.7881,-5.7881,-5.7881,-5.7881,-5.7571,-5.6768,-5.6614,-5.5955,-5.4317,-5.4062,-5.375,-5.2877,-5.2803,-5.2713,-5.2713,-5.2713,-5.2713,-5.2713,-5.2713,-5.2713,-5.2713,-5.2713,-5.2713,-5.2713,-5.2713,-5.2713,-5.2713,-5.1956,-5.168,0.0,0.0,0.0,-5.9417,-5.8972,0.0,0.0,0.0,0.0,0.0,0.0,0.0,0.0,0.0,0.0,0.0,0.0,0.0,0.0,0.0,0.0,0.0,0.0,0.0,0.0,0.0,0.0,0.0,0.0,0.0,-6.2023,-6.195,-6.1913,-6.1858,-6.1802,-6.1802,-6.1802,-6.1913,-6.1969,-6.2023,-6.2023,-6.2023,-6.2023,-6.2023,-6.2023,-6.2023,-6.2023,-6.2023,-6.2023,-6.2023,-6.2023,-6.2023,-6.2023,-6.2023,-6.2023,-6.2023,-6.2023,-6.195,-6.1523,-6.1372,-6.1239,-6.0608,-5.9885,-5.923,-5.896,-5.8458,-5.7954,-5.8209,-5.8082,-5.7954,-5.8209,-5.8263,-5.8263,-5.8263,-5.8263,-5.8209,-5.7954,-5.7881,-5.7881,-5.7881,-5.7881,-5.7881,-5.7881,-5.7881,-5.7881,-5.7881,-5.7406,-5.6937,-5.6614,-5.5619,-5.472,-5.4062,-5.3505,-5.3024,-5.2713,-5.2713,-5.2713,-5.2713,-5.2713,-5.2713,-5.2713,-5.2713,-5.2713,-5.2713,-5.2713,-5.2713,-5.2713,-5.2713,-5.2713,-5.2713,-5.1956,-5.1278,-6.0903,0.0,0.0,0.0,0.0,0.0,0.0,0.0,0.0,0.0,0.0,0.0,0.0,0.0,0.0,0.0,0.0,0.0,0.0,0.0,0.0,0.0,0.0,0.0,0.0,0.0,0.0,0.0,0.0,0.0,-6.2023,-6.2023,-6.1969,-6.1858,-6.1858,-6.1858,-6.1858,-6.1969,-6.2023,-6.2023,-6.2023,-6.2023,-6.2023,-6.2023,-6.2023,-6.2023,-6.2023,-6.2023,-6.2023,-6.2023,-6.2023,-6.2023,-6.2023,-6.2023,-6.2023,-6.2023,-6.2023,-6.1895,-6.1257,-6.0986,-6.0849,-5.9949,-5.9297,-5.8823,-5.8633,-5.8263,-5.7881,-5.7881,-5.7881,-5.7881,-5.7881,-5.7881,-5.7881,-5.7881,-5.7881,-5.7881,-5.7881,-5.7881,-5.7881,-5.7881,-5.7881,-5.7881,-5.7881,-5.7645,-5.748,-5.748,-5.6691,-5.6034,-5.5796,-5.472,-5.3907,-5.3577,-5.304,-5.2713,-5.2713,-5.2713,-5.2713,-5.2713,-5.2713,-5.2713,-5.2713,-5.2713,-5.2713,-5.2713,-5.2427,-5.2427,-5.2713,-5.2713,-5.2518,-5.2337,-5.1572,-5.0603,0.0,0.0,0.0,0.0,0.0,0.0,0.0,0.0,0.0,0.0,0.0,0.0,0.0,0.0,0.0,0.0,0.0,0.0,0.0,0.0,0.0,0.0,0.0,0.0,0.0,0.0,0.0,0.0,0.0,-6.2005,-6.2023,-6.2023,-6.2023,-6.2005,-6.2023,-6.2023,-6.2005,-6.2023,-6.2023,-6.2023,-6.2023,-6.2023,-6.2023,-6.2023,-6.2023,-6.2023,-6.2023,-6.2023,-6.2023,-6.2023,-6.2023,-6.2023,-6.2023,-6.2023,-6.2023,-6.2023,-6.2023,-6.1895,-6.1239,-6.0968,-6.0772,-5.9346,-5.8892,-5.8755,-5.8065,-5.7881,-5.7881,-5.7881,-5.7881,-5.7881,-5.7881,-5.7881,-5.7881,-5.7881,-5.7881,-5.7881,-5.7881,-5.7881,-5.7881,-5.7881,-5.7881,-5.7881,-5.7881,-5.7164,-5.6614,-5.6536,-5.5796,-5.4968,-5.4147,-5.3992,-5.3679,-5.2788,-5.2713,-5.2713,-5.2713,-5.2713,-5.2713,-5.2713,-5.2713,-5.2713,-5.2713,-5.2713,-5.2713,-5.2624,-5.1956,-5.1956,-5.2624,-5.2624,-5.2246,-5.1587,-5.0793,-4.9542,-6.1627,0.0,0.0,0.0,0.0,0.0,0.0,0.0,0.0,0.0,0.0,0.0,0.0,0.0,0.0,0.0,0.0,0.0,0.0,0.0,0.0,0.0,0.0,0.0,0.0,0.0,0.0,0.0,-6.198,-6.236,-6.2005,-6.2023,-6.1969,-6.1858,-6.1969,-6.1969,-6.1858,-6.1969,-6.2023,-6.2023,-6.2023,-6.2023,-6.2023,-6.2023,-6.2023,-6.2023,-6.2023,-6.2023,-6.2023,-6.2023,-6.2023,-6.2023,-6.2023,-6.2023,-6.2023,-6.2023,-6.2023,-6.1822,-6.0669,-6.059,-6.0711,-5.8789,-5.8511,-5.8755,-5.8065,-5.7881,-5.7881,-5.7881,-5.7881,-5.7881,-5.7881,-5.7881,-5.7881,-5.7881,-5.7881,-5.7881,-5.7881,-5.7881,-5.7881,-5.7881,-5.7881,-5.7718,-5.7089,-5.6768,-5.6364,-5.5716,-5.4886,-5.4232,-5.4062,-5.3434,-5.2951,-5.2713,-5.2713,-5.2713,-5.2713,-5.2713,-5.2713,-5.2713,-5.2713,-5.2427,-5.1956,-5.2427,-5.2139,-5.1075,-5.1386,-5.1371,-5.1075,-5.1075,-5.1278,-5.1587,-5.022,-4.9065,-6.1673,-6.1615,-6.1534,0.0,0.0,0.0,0.0,-6.002,0.0,0.0,0.0,0.0,0.0,0.0,0.0,0.0,0.0,0.0,0.0,0.0,0.0,0.0,0.0,0.0,0.0,0.0,0.0,-6.1299,-6.207,-6.2542,-6.2563,-6.2412,-6.2273,-6.2167,-6.2042,-6.1969,-6.1913,-6.1969,-6.2023,-6.2023,-6.2023,-6.2023,-6.2023,-6.2023,-6.2023,-6.2023,-6.2023,-6.2023,-6.2023,-6.2023,-6.2023,-6.2023,-6.2023,-6.2023,-6.2023,-6.2023,-6.1822,-6.143,-6.0362,-6.0012,-5.9867,-5.8405,-5.8137,-5.8388,-5.801,-5.7881,-5.7881,-5.7881,-5.7881,-5.7881,-5.7881,-5.7881,-5.7881,-5.7881,-5.7881,-5.7881,-5.7881,-5.7881,-5.7881,-5.7881,-5.7645,-5.7181,-5.6691,-5.6034,-5.5296,-5.4803,-5.3992,-5.3418,-5.3418,-5.3024,-5.2713,-5.2713,-5.2713,-5.2713,-5.2713,-5.2427,-5.2337,-5.2713,-5.2427,-5.2048,-5.1587,-5.2048,-5.165,-5.0397,-5.0603,-5.022,-4.9444,-5.011,-5.0508,-5.0618,-4.936,-4.8509,-6.1687,-6.1691,-6.1681,0.0,0.0,0.0,-6.0652,-6.041,-6.0142,0.0,0.0,0.0,0.0,0.0,0.0,0.0,0.0,0.0,0.0,0.0,0.0,0.0,0.0,0.0,0.0,-5.9799,-6.0449,-6.1856,-6.209,-6.2562,-6.336,-6.2951,-6.2695,-6.2695,-6.222,-6.2023,-6.2023,-6.2023,-6.2023,-6.2023,-6.2023,-6.2023,-6.2023,-6.2023,-6.2023,-6.2023,-6.2023,-6.2023,-6.2023,-6.2023,-6.2023,-6.2023,-6.2023,-6.2023,-6.2023,-6.1895,-6.1505,-6.0909,-6.0156,-5.9495,-5.8909,-5.8137,-5.7954,-5.8027,-5.7954,-5.7881,-5.7881,-5.7881,-5.7881,-5.7881,-5.7881,-5.7881,-5.7881,-5.7881,-5.7881,-5.7881,-5.7881,-5.7808,-5.7735,-5.7735,-5.7164,-5.6536,-5.6459,-5.5051,-5.3992,-5.3907,-5.3186,-5.2713,-5.2713,-5.2713,-5.2713,-5.2713,-5.2713,-5.2713,-5.2624,-5.2048,-5.1956,-5.2533,-5.1956,-5.1572,-5.1479,-5.1479,-5.109,-5.0206,-4.9542,-4.8781,-4.812,-4.9542,-4.9917,-4.9178,-4.8409,-4.812,0.0,0.0,0.0,0.0,0.0,0.0,-6.1247,-6.1137,-6.1005,0.0,0.0,0.0,0.0,0.0,0.0,0.0,0.0,0.0,0.0,0.0,0.0,0.0,0.0,0.0,0.0,-5.9769,-6.0332,-6.0258,-6.1459,-6.2562,-6.336,-6.2951,-6.2695,-6.2695,-6.222,-6.2023,-6.2023,-6.2023,-6.2023,-6.2023,-6.2023,-6.2023,-6.2023,-6.2023,-6.2023,-6.2023,-6.2023,-6.2023,-6.2023,-6.2023,-6.2023,-6.2023,-6.2023,-6.2023,-6.195,-6.1372,-6.1104,-6.0849,-5.9543,-5.9429,-5.9578,-5.8351,-5.8263,-5.8581,-5.8082,-5.7881,-5.7881,-5.7881,-5.7881,-5.7881,-5.7881,-5.7881,-5.7881,-5.7881,-5.7881,-5.7881,-5.7881,-5.7331,-5.6844,-5.6844,-5.6691,-5.6381,-5.57,-5.472,-5.375,-5.3024,-5.2788,-5.2713,-5.2713,-5.2713,-5.2713,-5.2713,-5.2713,-5.2427,-5.1864,-5.2246,-5.2337,-5.1864,-5.168,-5.1278,-5.0683,-5.0588,-5.0028,-4.8595,-4.8409,-4.8221,-4.812,-4.9079,-4.9065,-4.8308,-4.8221,-4.812,0.0,0.0,0.0,-6.169,0.0,0.0,0.0,-6.1295,-6.1197,0.0,0.0,0.0,0.0,0.0,0.0,0.0,0.0,0.0,0.0,0.0,0.0,0.0,0.0,0.0,0.0,-5.983,-6.028,-6.0435,-6.1618,-6.2461,-6.2895,-6.2444,-6.2183,-6.2183,-6.152,-6.1124,-6.1124,-6.1298,-6.1408,-6.1426,-6.1824,-6.2023,-6.2023,-6.2023,-6.2023,-6.2023,-6.2023,-6.2023,-6.2023,-6.2023,-6.2023,-6.2023,-6.2023,-6.1822,-6.143,-6.1104,-6.059,-5.9867,-5.9145,-5.8909,-5.8875,-5.8154,-5.8137,-5.8334,-5.801,-5.7881,-5.7881,-5.7881,-5.7881,-5.7881,-5.7881,-5.7881,-5.7881,-5.7881,-5.7611,-5.7268,-5.6868,-5.6104,-5.5445,-5.5045,-5.4577,-5.4406,-5.4608,-5.3907,-5.3186,-5.2803,-5.2713,-5.2713,-5.2713,-5.2713,-5.2713,-5.2713,-5.2337,-5.1956,-5.168,-5.1557,-5.1371,-5.0981,-5.0981,-5.0698,-4.9917,-4.9834,-4.9262,-4.812,-4.812,-4.812,-4.812,-4.8509,-4.8509,-4.812,-4.812,-4.812,0.0,0.0,0.0,0.0,0.0,-6.1533,0.0,0.0,0.0,-6.1046,0.0,0.0,0.0,0.0,0.0,0.0,0.0,0.0,0.0,0.0,0.0,0.0,0.0,0.0,0.0,-5.9918,-6.0226,-6.1022,-6.1743,-6.2235,-6.2406,-6.1939,-6.1692,-6.1692,-6.08,-6.0309,-6.0309,-6.0474,-6.0575,-6.0593,-6.1245,-6.1553,-6.1553,-6.1553,-6.1553,-6.1553,-6.1553,-6.1553,-6.1553,-6.1553,-6.1498,-6.1388,-6.1696,-6.1505,-6.0986,-6.0711,-5.9867,-5.8892,-5.8772,-5.8317,-5.7881,-5.7881,-5.7881,-5.7881,-5.7881,-5.7797,-5.7679,-5.7679,-5.7577,-5.7476,-5.7476,-5.7476,-5.7476,-5.7476,-5.693,-5.6186,-5.5547,-5.4691,-5.3809,-5.3191,-5.2347,-5.2151,-5.3408,-5.2994,-5.2529,-5.2529,-5.2637,-5.2713,-5.2713,-5.2713,-5.2624,-5.2518,-5.1956,-5.1587,-5.1386,-5.0793,-5.0397,-5.0397,-5.0302,-4.9931,-4.936,-4.9164,-4.8795,-4.812,-4.812,-4.812,-4.812,-4.812,-4.812,-4.812,-4.812,-4.812,0.0,0.0,0.0,0.0,-6.155,0.0,0.0,0.0,-6.1458,-6.144,0.0,0.0,0.0,0.0,0.0,0.0,0.0,0.0,0.0,0.0,0.0,0.0,0.0,0.0,0.0,0.0,-6.0226,-6.1022,-6.1193,-6.1572,-6.2368,-6.1939,-6.1692,-6.1692,-6.08,-6.0309,-6.0309,-5.9929,-5.9742,-5.9742,-5.9832,-5.9868,-5.9868,-5.9868,-5.9868,-5.9868,-5.9868,-5.9868,-5.9868,-5.9868,-5.9583,-5.923,-6.0568,-6.1045,-6.0849,-5.9609,-5.9028,-5.8841,-5.8209,-5.7954,-5.7881,-5.7881,-5.7881,-5.7881,-5.7881,-5.7442,-5.6917,-5.6917,-5.6461,-5.597,-5.597,-5.597,-5.597,-5.597,-5.5336,-5.4708,-5.4634,-5.3412,-5.2281,-5.22,-5.1403,-5.1142,-5.2092,-5.1981,-5.1821,-5.1821,-5.2329,-5.2713,-5.2713,-5.2713,-5.2427,-5.1772,-5.168,-5.1278,-5.0588,-5.0493,-5.0397,-5.0397,-4.9834,-4.936,-4.9262,-4.8595,-4.8221,-4.812,-4.812,-4.812,-4.812,-4.812,-4.812,-4.812,-4.812,-4.812,0.0,0.0,0.0,0.0,0.0,0.0,-6.166,0.0,-6.15,0.0,0.0,0.0,0.0,0.0,0.0,0.0,0.0,0.0,0.0,0.0,0.0,0.0,0.0,0.0,0.0,0.0,0.0,0.0,0.0,-6.0691,-6.0928,-6.0774,-6.067,-6.067,-6.0016,-5.9547,-5.9305,-5.9296,-5.9179,-5.8909,-5.9379,-5.9615,-5.9615,-5.9615,-5.9615,-5.9615,-5.9615,-5.9615,-5.9615,-5.9615,-5.924,-5.872,-5.8994,-5.8818,-5.8426,-5.7863,-5.7363,-5.7002,-5.6755,-5.663,-5.663,-5.663,-5.663,-5.663,-5.663,-5.6427,-5.6173,-5.6173,-5.5953,-5.5716,-5.5716,-5.5312,-5.4991,-5.4991,-5.4039,-5.3052,-5.2592,-5.1566,-5.0592,-5.0117,-4.9718,-4.9566,-4.9952,-5.0631,-5.1113,-5.1113,-5.1359,-5.1682,-5.2082,-5.1741,-5.1501,-5.1635,-5.0807,-5.0124,-4.9834,-4.9737,-4.9542,-4.9065,-4.8781,-4.8595,-4.8595,-4.8322,-4.812,-4.812,-4.812,-4.812,-4.812,-4.812,-4.812,-4.812,-4.812,-4.812,-6.5487,0.0,0.0,0.0,0.0,0.0,0.0,0.0,0.0,0.0,0.0,0.0,0.0,0.0,0.0,0.0,0.0,0.0,0.0,0.0,0.0,0.0,0.0,0.0,0.0,0.0,0.0,0.0,0.0,0.0,-5.9918,-5.9885,-5.9885,-5.9885,-5.9244,-5.8728,-5.8415,-5.8213,-5.7956,-5.7606,-5.809,-5.8311,-5.8329,-5.8528,-5.8619,-5.8637,-5.8854,-5.8945,-5.8945,-5.8945,-5.8484,-5.7779,-5.7233,-5.6558,-5.587,-5.6299,-5.615,-5.5716,-5.5716,-5.5716,-5.5716,-5.5716,-5.5716,-5.5646,-5.5471,-5.5407,-5.5325,-5.5097,-5.5103,-5.5038,-5.4811,-5.4317,-5.3848,-5.361,-5.2525,-5.1401,-5.0787,-5.0072,-4.9325,-4.8687,-4.862,-4.862,-4.862,-4.962,-5.042,-5.042,-5.0574,-5.078,-5.108,-5.0728,-5.0545,-5.0668,-4.9829,-4.9262,-4.9262,-4.9079,-4.8695,-4.812,-4.812,-4.812,-4.812,-4.812,-4.812,-4.812,-4.812,-4.812,-4.812,-4.812,-4.812,-4.812,-4.812,-4.812,0.0,0.0,0.0,-6.2735,0.0,0.0,0.0,0.0,-6.1337,0.0,0.0,0.0,0.0,0.0,0.0,0.0,0.0,0.0,0.0,0.0,0.0,0.0,0.0,0.0,0.0,0.0,0.0,0.0,0.0,0.0,-5.9918,-5.9885,-5.9885,-5.9885,-5.8681,-5.8015,-5.8015,-5.6427,-5.5603,-5.5603,-5.5236,-5.5051,-5.507,-5.5794,-5.612,-5.6156,-5.6935,-5.7279,-5.7279,-5.7279,-5.66,-5.5514,-5.5472,-5.47,-5.3754,-5.5192,-5.5716,-5.5716,-5.5716,-5.5716,-5.5716,-5.5716,-5.5716,-5.5559,-5.4739,-5.4561,-5.4479,-5.3706,-5.3506,-5.3416,-5.2603,-5.2373,-5.2142,-5.1359,-5.0602,-4.9995,-4.99,-4.9259,-4.8604,-4.862,-4.862,-4.862,-4.862,-4.9235,-4.9712,-4.9712,-5.0266,-5.0422,-4.9776,-5.014,-4.9983,-4.8586,-4.8971,-4.9262,-4.9262,-4.8595,-4.812,-4.812,-4.812,-4.812,-4.812,-4.812,-4.812,-4.812,-4.812,-4.812,-4.812,-4.812,-4.812,-4.812,-4.812,-4.812,0.0,0.0,-6.4782,-6.3774,0.0,0.0,0.0,0.0,0.0,0.0,0.0,0.0,0.0,0.0,0.0,0.0,0.0,0.0,0.0,0.0,0.0,0.0,0.0,0.0,0.0,0.0,0.0,0.0,0.0,0.0,0.0,-5.9982,-5.9703,-5.9108,-5.8708,-5.8035,-5.7133,-5.6286,-5.5766,-5.5493,-5.5091,-5.4907,-5.4907,-5.516,-5.5269,-5.5287,-5.5558,-5.5685,-5.5636,-5.5245,-5.4883,-5.4571,-5.4156,-5.3822,-5.3568,-5.4076,-5.4245,-5.4245,-5.4245,-5.3883,-5.3428,-5.3428,-5.3108,-5.2638,-5.231,-5.2294,-5.226,-5.195,-5.186,-5.1826,-5.1606,-5.1086,-5.0631,-5.04,-4.963,-4.9,-4.9,-4.8769,-4.862,-4.862,-4.862,-4.862,-4.862,-4.882,-4.8974,-4.8974,-4.8821,-4.8683,-4.8932,-4.8296,-4.7925,-4.8278,-4.8026,-4.8056,-4.8467,-4.8221,-4.812,-4.812,-4.812,-4.812,-4.812,-4.812,-4.812,-4.812,-4.812,-4.812,-4.812,-4.812,-4.812,-4.812,-4.812,-4.812,-6.6571,-6.5764,0.0,-6.4124,-6.3015,0.0,-6.1423,0.0,0.0,0.0,0.0,0.0,0.0,0.0,0.0,0.0,0.0,0.0,0.0,-6.1434,0.0,0.0,0.0,0.0,0.0,0.0,0.0,0.0,0.0,0.0,0.0,0.0,-5.9166,-5.8318,-5.7984,-5.7402,-5.6534,-5.566,-5.5143,-5.4852,-5.4328,-5.4055,-5.4055,-5.4345,-5.4472,-5.449,-5.478,-5.4907,-5.484,-5.4251,-5.3903,-5.3747,-5.3117,-5.2997,-5.3112,-5.3399,-5.3501,-5.3501,-5.3501,-5.2972,-5.2307,-5.2307,-5.1769,-5.107,-5.0767,-5.0843,-5.1118,-5.1073,-5.1037,-5.1135,-5.1073,-5.0436,-4.9789,-4.9486,-4.9,-4.862,-4.862,-4.862,-4.862,-4.862,-4.862,-4.862,-4.862,-4.8438,-4.8271,-4.8271,-4.7849,-4.7557,-4.7554,-4.6832,-4.6649,-4.7152,-4.7207,-4.7459,-4.8078,-4.812,-4.812,-4.812,-4.812,-4.812,-4.812,-4.812,-4.8021,-4.7797,-4.8007,-4.8007,-4.7797,-4.8021,-4.812,-4.812,-4.812,-4.812]}]]